<?xml version='1.0' encoding='UTF-8'?>
<gpx xmlns="http://www.topografix.com/GPX/1/1" creator="www.balnam.be" version="1.1" xmlns:xsi="http://www.w3.org/2001/XMLSchema-instance" xsi:schemaLocation="http://www.topografix.com/GPX/1/1 http://www.topografix.com/GPX/1/1/gpx.xsd">
<trk>
<name>hlvfg11</name>
<cmt>d</cmt>
<desc>Frasnes-lez-Gosselies Chemin n°11 Chemin de Pierpont</desc>
<link href="https://chemins.be/frasneslezgosselies/chemin/11"/><trkseg>
<trkpt lat="50.553361" lon="4.440856"><time>2026-05-02T20:39:15Z</time></trkpt>
<trkpt lat="50.557376" lon="4.447298"><time>2026-05-02T20:49:15Z</time></trkpt>
</trkseg>
</trk>
<trk>
<name>hlvfg15</name>
<cmt>v</cmt>
<desc>Frasnes-lez-Gosselies Chemin n°15 Chemin de Pierpont</desc>
<link href="https://chemins.be/frasneslezgosselies/chemin/15"/><trkseg>
<trkpt lat="50.545471" lon="4.443904"><time>2026-05-02T20:39:15Z</time></trkpt>
<trkpt lat="50.546075" lon="4.445532"><time>2026-05-02T20:49:15Z</time></trkpt>
<trkpt lat="50.548191" lon="4.444794"><time>2026-05-02T20:59:15Z</time></trkpt>
</trkseg></trk>
<trk>
<name>hlvfg15</name>
<cmt>s</cmt>
<desc>Frasnes-lez-Gosselies Chemin n°15 Chemin de Pierpont</desc>
<link href="https://chemins.be/frasneslezgosselies/chemin/15"/><trkseg>
<trkpt lat="50.548191" lon="4.444794"><time>2026-05-02T20:59:15Z</time></trkpt>
<trkpt lat="50.550931" lon="4.443124"><time>2026-05-02T21:09:15Z</time></trkpt>
<trkpt lat="50.552501" lon="4.441684"><time>2026-05-02T21:19:15Z</time></trkpt>
</trkseg></trk>
<trk>
<name>hlvfg15</name>
<cmt>r</cmt>
<desc>Frasnes-lez-Gosselies Chemin n°15 Chemin de Pierpont</desc>
<link href="https://chemins.be/frasneslezgosselies/chemin/15"/><trkseg>
<trkpt lat="50.552501" lon="4.441684"><time>2026-05-02T21:19:15Z</time></trkpt>
<trkpt lat="50.553241" lon="4.440713"><time>2026-05-02T21:29:15Z</time></trkpt>
</trkseg>
</trk>
<trk>
<name>hlvfg16</name>
<cmt>r</cmt>
<desc>Frasnes-lez-Gosselies Chemin n°16 </desc>
<link href="https://chemins.be/frasneslezgosselies/chemin/16"/><trkseg>
<trkpt lat="50.530690" lon="4.439874"><time>2026-05-02T20:39:15Z</time></trkpt>
<trkpt lat="50.530470" lon="4.439424"><time>2026-05-02T20:49:15Z</time></trkpt>
<trkpt lat="50.530650" lon="4.438179"><time>2026-05-02T20:59:15Z</time></trkpt>
</trkseg></trk>
<trk>
<name>hlvfg16</name>
<cmt>s</cmt>
<desc>Frasnes-lez-Gosselies Chemin n°16 </desc>
<link href="https://chemins.be/frasneslezgosselies/chemin/16"/><trkseg>
<trkpt lat="50.530650" lon="4.438179"><time>2026-05-02T20:59:15Z</time></trkpt>
<trkpt lat="50.530610" lon="4.437414"><time>2026-05-02T21:09:15Z</time></trkpt>
<trkpt lat="50.529100" lon="4.434004"><time>2026-05-02T21:19:15Z</time></trkpt>
<trkpt lat="50.528570" lon="4.433144"><time>2026-05-02T21:29:15Z</time></trkpt>
</trkseg>
</trk>
<trk>
<name>hlvfg24</name>
<cmt>v</cmt>
<desc>Frasnes-lez-Gosselies Chemin n°24 </desc>
<link href="https://chemins.be/frasneslezgosselies/chemin/24"/><trkseg>
<trkpt lat="50.523550" lon="4.426364"><time>2026-05-02T20:39:15Z</time></trkpt>
<trkpt lat="50.525549" lon="4.422877"><time>2026-05-02T20:49:15Z</time></trkpt>
</trkseg>
</trk>
<trk>
<name>hlvfg26</name>
<cmt>r</cmt>
<desc>Frasnes-lez-Gosselies Chemin n°26 </desc>
<link href="https://chemins.be/frasneslezgosselies/chemin/26"/><trkseg>
<trkpt lat="50.530661" lon="4.438184"><time>2026-05-02T20:39:15Z</time></trkpt>
<trkpt lat="50.532530" lon="4.434847"><time>2026-05-02T20:49:15Z</time></trkpt>
<trkpt lat="50.532352" lon="4.434493"><time>2026-05-02T20:59:15Z</time></trkpt>
</trkseg></trk>
<trk>
<name>hlvfg26</name>
<cmt>s</cmt>
<desc>Frasnes-lez-Gosselies Chemin n°26 </desc>
<link href="https://chemins.be/frasneslezgosselies/chemin/26"/><trkseg>
<trkpt lat="50.532352" lon="4.434493"><time>2026-05-02T20:59:15Z</time></trkpt>
<trkpt lat="50.532370" lon="4.433083"><time>2026-05-02T21:09:15Z</time></trkpt>
<trkpt lat="50.532810" lon="4.431953"><time>2026-05-02T21:19:15Z</time></trkpt>
<trkpt lat="50.533500" lon="4.430893"><time>2026-05-02T21:29:15Z</time></trkpt>
<trkpt lat="50.534670" lon="4.429683"><time>2026-05-02T21:39:15Z</time></trkpt>
</trkseg>
</trk>
<trk>
<name>hlvfg3</name>
<cmt>v</cmt>
<desc>Frasnes-lez-Gosselies Chemin n°3 </desc>
<link href="https://chemins.be/frasneslezgosselies/chemin/3"/><trkseg>
<trkpt lat="50.535132" lon="4.449757"><time>2026-05-02T20:39:15Z</time></trkpt>
<trkpt lat="50.534242" lon="4.449474"><time>2026-05-02T20:49:15Z</time></trkpt>
<trkpt lat="50.533461" lon="4.449134"><time>2026-05-02T20:59:15Z</time></trkpt>
<trkpt lat="50.532894" lon="4.449443"><time>2026-05-02T21:09:15Z</time></trkpt>
<trkpt lat="50.531681" lon="4.448298"><time>2026-05-02T21:19:15Z</time></trkpt>
</trkseg>
</trk>
<trk>
<name>hlvfg31</name>
<cmt>v</cmt>
<desc>Frasnes-lez-Gosselies Chemin n°31 Chemin Tincot</desc>
<link href="https://chemins.be/frasneslezgosselies/chemin/31"/><trkseg>
<trkpt lat="50.531233" lon="4.446379"><time>2026-05-02T20:39:15Z</time></trkpt>
<trkpt lat="50.531268" lon="4.447127"><time>2026-05-02T20:49:15Z</time></trkpt>
<trkpt lat="50.531241" lon="4.447663"><time>2026-05-02T20:59:15Z</time></trkpt>
<trkpt lat="50.531079" lon="4.448128"><time>2026-05-02T21:09:15Z</time></trkpt>
<trkpt lat="50.531582" lon="4.448298"><time>2026-05-02T21:19:15Z</time></trkpt>
</trkseg>
</trk>
<trk>
<name>hlvfg35</name>
<cmt>s</cmt>
<desc>Frasnes-lez-Gosselies Chemin n°35 </desc>
<link href="https://chemins.be/frasneslezgosselies/chemin/35"/><trkseg>
<trkpt lat="50.542114" lon="4.456072"><time>2026-05-02T20:39:15Z</time></trkpt>
<trkpt lat="50.541895" lon="4.457273"><time>2026-05-02T20:49:15Z</time></trkpt>
<trkpt lat="50.542583" lon="4.459628"><time>2026-05-02T20:59:15Z</time></trkpt>
</trkseg></trk>
<trk>
<name>hlvfg35</name>
<cmt>v</cmt>
<desc>Frasnes-lez-Gosselies Chemin n°35 </desc>
<link href="https://chemins.be/frasneslezgosselies/chemin/35"/><trkseg>
<trkpt lat="50.542583" lon="4.459628"><time>2026-05-02T20:59:15Z</time></trkpt>
<trkpt lat="50.542973" lon="4.460964"><time>2026-05-02T21:09:15Z</time></trkpt>
<trkpt lat="50.544268" lon="4.463818"><time>2026-05-02T21:19:15Z</time></trkpt>
</trkseg>
</trk>
<trk>
<name>hlvfg36</name>
<cmt>r</cmt>
<desc>Frasnes-lez-Gosselies Chemin n°36 Chemin du Saucy</desc>
<link href="https://chemins.be/frasneslezgosselies/chemin/36"/><trkseg>
<trkpt lat="50.537844" lon="4.454727"><time>2026-05-02T20:39:15Z</time></trkpt>
<trkpt lat="50.537582" lon="4.455432"><time>2026-05-02T20:49:15Z</time></trkpt>
</trkseg></trk>
<trk>
<name>hlvfg36</name>
<cmt>s</cmt>
<desc>Frasnes-lez-Gosselies Chemin n°36 Chemin du Saucy</desc>
<link href="https://chemins.be/frasneslezgosselies/chemin/36"/><trkseg>
<trkpt lat="50.537582" lon="4.455432"><time>2026-05-02T20:49:15Z</time></trkpt>
<trkpt lat="50.536782" lon="4.455600"><time>2026-05-02T20:59:15Z</time></trkpt>
<trkpt lat="50.534659" lon="4.457416"><time>2026-05-02T21:09:15Z</time></trkpt>
<trkpt lat="50.532285" lon="4.458949"><time>2026-05-02T21:19:15Z</time></trkpt>
<trkpt lat="50.531789" lon="4.459766"><time>2026-05-02T21:29:15Z</time></trkpt>
</trkseg>
</trk>
<trk>
<name>hlvfg37</name>
<cmt>v</cmt>
<desc>Frasnes-lez-Gosselies Chemin n°37 Chemin du Saucy</desc>
<link href="https://chemins.be/frasneslezgosselies/chemin/37"/><trkseg>
<trkpt lat="50.537821" lon="4.454754"><time>2026-05-02T20:39:15Z</time></trkpt>
<trkpt lat="50.537971" lon="4.455024"><time>2026-05-02T20:49:15Z</time></trkpt>
<trkpt lat="50.538191" lon="4.455504"><time>2026-05-02T20:59:15Z</time></trkpt>
<trkpt lat="50.538751" lon="4.456864"><time>2026-05-02T21:09:15Z</time></trkpt>
</trkseg></trk>
<trk>
<name>hlvfg37</name>
<cmt>s</cmt>
<desc>Frasnes-lez-Gosselies Chemin n°37 Chemin du Saucy</desc>
<link href="https://chemins.be/frasneslezgosselies/chemin/37"/><trkseg>
<trkpt lat="50.538751" lon="4.456864"><time>2026-05-02T21:09:15Z</time></trkpt>
<trkpt lat="50.538751" lon="4.456854"><time>2026-05-02T21:19:15Z</time></trkpt>
<trkpt lat="50.538891" lon="4.457224"><time>2026-05-02T21:29:15Z</time></trkpt>
<trkpt lat="50.539091" lon="4.457694"><time>2026-05-02T21:39:15Z</time></trkpt>
</trkseg></trk>
<trk>
<name>hlvfg37</name>
<cmt>r</cmt>
<desc>Frasnes-lez-Gosselies Chemin n°37 Chemin du Saucy</desc>
<link href="https://chemins.be/frasneslezgosselies/chemin/37"/><trkseg>
<trkpt lat="50.539091" lon="4.457694"><time>2026-05-02T21:39:15Z</time></trkpt>
<trkpt lat="50.539091" lon="4.457694"><time>2026-05-02T21:49:15Z</time></trkpt>
<trkpt lat="50.540277" lon="4.460648"><time>2026-05-02T21:59:15Z</time></trkpt>
</trkseg></trk>
<trk>
<name>hlvfg37</name>
<cmt>q</cmt>
<desc>Frasnes-lez-Gosselies Chemin n°37 Chemin du Saucy</desc>
<link href="https://chemins.be/frasneslezgosselies/chemin/37"/><trkseg>
<trkpt lat="50.540277" lon="4.460648"><time>2026-05-02T21:59:15Z</time></trkpt>
<trkpt lat="50.539850" lon="4.465848"><time>2026-05-02T22:09:15Z</time></trkpt>
</trkseg>
</trk>
<trk>
<name>hlvfg39</name>
<cmt>v</cmt>
<desc>Frasnes-lez-Gosselies Chemin n°39 </desc>
<link href="https://chemins.be/frasneslezgosselies/chemin/39"/><trkseg>
<trkpt lat="50.553885" lon="4.420635"><time>2026-05-02T20:39:15Z</time></trkpt>
<trkpt lat="50.553704" lon="4.422498"><time>2026-05-02T20:49:15Z</time></trkpt>
<trkpt lat="50.552517" lon="4.423089"><time>2026-05-02T20:59:15Z</time></trkpt>
</trkseg></trk>
<trk>
<name>hlvfg39</name>
<cmt>q</cmt>
<desc>Frasnes-lez-Gosselies Chemin n°39 </desc>
<link href="https://chemins.be/frasneslezgosselies/chemin/39"/><trkseg>
<trkpt lat="50.552517" lon="4.423089"><time>2026-05-02T20:59:15Z</time></trkpt>
<trkpt lat="50.549531" lon="4.424581"><time>2026-05-02T21:09:15Z</time></trkpt>
</trkseg>
</trk>
<trk>
<name>hlvfg41</name>
<cmt>v</cmt>
<desc>Frasnes-lez-Gosselies Sentier n°41 Sentier des Enfants</desc>
<link href="https://chemins.be/frasneslezgosselies/sentier/41"/><trkseg>
<trkpt lat="50.541961" lon="4.451494"><time>2026-05-02T20:39:15Z</time></trkpt>
<trkpt lat="50.541911" lon="4.451984"><time>2026-05-02T20:49:15Z</time></trkpt>
<trkpt lat="50.541951" lon="4.452264"><time>2026-05-02T20:59:15Z</time></trkpt>
<trkpt lat="50.541871" lon="4.452844"><time>2026-05-02T21:09:15Z</time></trkpt>
</trkseg></trk>
<trk>
<name>hlvfg41</name>
<cmt>q</cmt>
<desc>Frasnes-lez-Gosselies Sentier n°41 Sentier des Enfants</desc>
<link href="https://chemins.be/frasneslezgosselies/sentier/41"/><trkseg>
<trkpt lat="50.541871" lon="4.452844"><time>2026-05-02T21:09:15Z</time></trkpt>
<trkpt lat="50.541881" lon="4.452844"><time>2026-05-02T21:19:15Z</time></trkpt>
<trkpt lat="50.542768" lon="4.455192"><time>2026-05-02T21:29:15Z</time></trkpt>
</trkseg></trk>
<trk>
<name>hlvfg41</name>
<cmt>s</cmt>
<desc>Frasnes-lez-Gosselies Sentier n°41 Sentier des Enfants</desc>
<link href="https://chemins.be/frasneslezgosselies/sentier/41"/><trkseg>
<trkpt lat="50.542768" lon="4.455192"><time>2026-05-02T21:29:15Z</time></trkpt>
<trkpt lat="50.543021" lon="4.455844"><time>2026-05-02T21:39:15Z</time></trkpt>
</trkseg></trk>
<trk>
<name>hlvfg41</name>
<cmt>q</cmt>
<desc>Frasnes-lez-Gosselies Sentier n°41 Sentier des Enfants</desc>
<link href="https://chemins.be/frasneslezgosselies/sentier/41"/><trkseg>
<trkpt lat="50.543021" lon="4.455844"><time>2026-05-02T21:39:15Z</time></trkpt>
<trkpt lat="50.543571" lon="4.456054"><time>2026-05-02T21:49:15Z</time></trkpt>
<trkpt lat="50.543815" lon="4.457624"><time>2026-05-02T21:59:15Z</time></trkpt>
<trkpt lat="50.545441" lon="4.461554"><time>2026-05-02T22:09:15Z</time></trkpt>
<trkpt lat="50.546681" lon="4.465465"><time>2026-05-02T22:19:15Z</time></trkpt>
</trkseg>
</trk>
<trk>
<name>hlvfg42</name>
<cmt>v</cmt>
<desc>Frasnes-lez-Gosselies Sentier n°42 Sentier Delcouture / Rue Zéphirin / Ruelle aux Loups / Sentier de la Chapelle / Rue Champ de la Chapelle</desc>
<link href="https://chemins.be/frasneslezgosselies/sentier/42"/><trkseg>
<trkpt lat="50.535711" lon="4.447994"><time>2026-05-02T20:39:15Z</time></trkpt>
<trkpt lat="50.538251" lon="4.448224"><time>2026-05-02T20:49:15Z</time></trkpt>
</trkseg></trk>
<trk>
<name>hlvfg42</name>
<cmt>r</cmt>
<desc>Frasnes-lez-Gosselies Sentier n°42 Sentier Delcouture / Rue Zéphirin / Ruelle aux Loups / Sentier de la Chapelle / Rue Champ de la Chapelle</desc>
<link href="https://chemins.be/frasneslezgosselies/sentier/42"/><trkseg>
<trkpt lat="50.538251" lon="4.448224"><time>2026-05-02T20:49:15Z</time></trkpt>
<trkpt lat="50.539261" lon="4.448454"><time>2026-05-02T20:59:15Z</time></trkpt>
<trkpt lat="50.539581" lon="4.447664"><time>2026-05-02T21:09:15Z</time></trkpt>
<trkpt lat="50.539571" lon="4.447654"><time>2026-05-02T21:19:15Z</time></trkpt>
<trkpt lat="50.540031" lon="4.447934"><time>2026-05-02T21:29:15Z</time></trkpt>
</trkseg></trk>
<trk>
<name>hlvfg42</name>
<cmt>v</cmt>
<desc>Frasnes-lez-Gosselies Sentier n°42 Sentier Delcouture / Rue Zéphirin / Ruelle aux Loups / Sentier de la Chapelle / Rue Champ de la Chapelle</desc>
<link href="https://chemins.be/frasneslezgosselies/sentier/42"/><trkseg>
<trkpt lat="50.540031" lon="4.447934"><time>2026-05-02T21:29:15Z</time></trkpt>
<trkpt lat="50.540531" lon="4.448236"><time>2026-05-02T21:39:15Z</time></trkpt>
<trkpt lat="50.540692" lon="4.448204"><time>2026-05-02T21:49:15Z</time></trkpt>
<trkpt lat="50.540744" lon="4.448251"><time>2026-05-02T21:59:15Z</time></trkpt>
<trkpt lat="50.541331" lon="4.448204"><time>2026-05-02T22:09:15Z</time></trkpt>
<trkpt lat="50.541641" lon="4.448227"><time>2026-05-02T22:19:15Z</time></trkpt>
</trkseg></trk>
<trk>
<name>hlvfg42</name>
<cmt>q</cmt>
<desc>Frasnes-lez-Gosselies Sentier n°42 Sentier Delcouture / Rue Zéphirin / Ruelle aux Loups / Sentier de la Chapelle / Rue Champ de la Chapelle</desc>
<link href="https://chemins.be/frasneslezgosselies/sentier/42"/><trkseg>
<trkpt lat="50.541641" lon="4.448227"><time>2026-05-02T22:19:15Z</time></trkpt>
<trkpt lat="50.543241" lon="4.448344"><time>2026-05-02T22:29:15Z</time></trkpt>
</trkseg></trk>
<trk>
<name>hlvfg42</name>
<cmt>r</cmt>
<desc>Frasnes-lez-Gosselies Sentier n°42 Sentier Delcouture / Rue Zéphirin / Ruelle aux Loups / Sentier de la Chapelle / Rue Champ de la Chapelle</desc>
<link href="https://chemins.be/frasneslezgosselies/sentier/42"/><trkseg>
<trkpt lat="50.543241" lon="4.448344"><time>2026-05-02T22:29:15Z</time></trkpt>
<trkpt lat="50.544443" lon="4.450770"><time>2026-05-02T22:39:15Z</time></trkpt>
<trkpt lat="50.544401" lon="4.451844"><time>2026-05-02T22:49:15Z</time></trkpt>
<trkpt lat="50.545671" lon="4.452034"><time>2026-05-02T22:59:15Z</time></trkpt>
</trkseg></trk>
<trk>
<name>hlvfg42</name>
<cmt>q</cmt>
<desc>Frasnes-lez-Gosselies Sentier n°42 Sentier Delcouture / Rue Zéphirin / Ruelle aux Loups / Sentier de la Chapelle / Rue Champ de la Chapelle</desc>
<link href="https://chemins.be/frasneslezgosselies/sentier/42"/><trkseg>
<trkpt lat="50.545671" lon="4.452034"><time>2026-05-02T22:59:15Z</time></trkpt>
<trkpt lat="50.546421" lon="4.454274"><time>2026-05-02T23:09:15Z</time></trkpt>
<trkpt lat="50.547523" lon="4.455176"><time>2026-05-02T23:19:15Z</time></trkpt>
</trkseg></trk>
<trk>
<name>hlvfg42</name>
<cmt>s</cmt>
<desc>Frasnes-lez-Gosselies Sentier n°42 Sentier Delcouture / Rue Zéphirin / Ruelle aux Loups / Sentier de la Chapelle / Rue Champ de la Chapelle</desc>
<link href="https://chemins.be/frasneslezgosselies/sentier/42"/><trkseg>
<trkpt lat="50.547523" lon="4.455176"><time>2026-05-02T23:19:15Z</time></trkpt>
<trkpt lat="50.547722" lon="4.455346"><time>2026-05-02T23:29:15Z</time></trkpt>
</trkseg></trk>
<trk>
<name>hlvfg42</name>
<cmt>q</cmt>
<desc>Frasnes-lez-Gosselies Sentier n°42 Sentier Delcouture / Rue Zéphirin / Ruelle aux Loups / Sentier de la Chapelle / Rue Champ de la Chapelle</desc>
<link href="https://chemins.be/frasneslezgosselies/sentier/42"/><trkseg>
<trkpt lat="50.547722" lon="4.455346"><time>2026-05-02T23:29:15Z</time></trkpt>
<trkpt lat="50.548561" lon="4.456034"><time>2026-05-02T23:39:15Z</time></trkpt>
<trkpt lat="50.548591" lon="4.456074"><time>2026-05-02T23:49:15Z</time></trkpt>
<trkpt lat="50.549501" lon="4.457984"><time>2026-05-02T23:59:15Z</time></trkpt>
<trkpt lat="50.550141" lon="4.458494"><time>2026-05-03T00:09:15Z</time></trkpt>
<trkpt lat="50.550811" lon="4.460274"><time>2026-05-03T00:19:15Z</time></trkpt>
<trkpt lat="50.550664" lon="4.461130"><time>2026-05-03T00:29:15Z</time></trkpt>
<trkpt lat="50.552818" lon="4.465250"><time>2026-05-03T00:39:15Z</time></trkpt>
<trkpt lat="50.556164" lon="4.470985"><time>2026-05-03T00:49:15Z</time></trkpt>
</trkseg>
</trk>
<trk>
<name>hlvfg43</name>
<cmt>r</cmt>
<desc>Frasnes-lez-Gosselies Sentier n°43 sentier 43</desc>
<link href="https://chemins.be/frasneslezgosselies/sentier/43"/><trkseg>
<trkpt lat="50.551641" lon="4.466404"><time>2026-05-02T20:39:15Z</time></trkpt>
<trkpt lat="50.552765" lon="4.465366"><time>2026-05-02T20:49:15Z</time></trkpt>
<trkpt lat="50.552995" lon="4.465180"><time>2026-05-02T20:59:15Z</time></trkpt>
</trkseg></trk>
<trk>
<name>hlvfg43</name>
<cmt>v</cmt>
<desc>Frasnes-lez-Gosselies Sentier n°43 sentier 43</desc>
<link href="https://chemins.be/frasneslezgosselies/sentier/43"/><trkseg>
<trkpt lat="50.552995" lon="4.465180"><time>2026-05-02T20:59:15Z</time></trkpt>
<trkpt lat="50.554091" lon="4.463164"><time>2026-05-02T21:09:15Z</time></trkpt>
</trkseg></trk>
<trk>
<name>hlvfg43</name>
<cmt>d</cmt>
<desc>Frasnes-lez-Gosselies Sentier n°43 sentier 43</desc>
<link href="https://chemins.be/frasneslezgosselies/sentier/43"/><trkseg>
<trkpt lat="50.554091" lon="4.463164"><time>2026-05-02T21:09:15Z</time></trkpt>
<trkpt lat="50.557721" lon="4.465864"><time>2026-05-02T21:19:15Z</time></trkpt>
<trkpt lat="50.558441" lon="4.465504"><time>2026-05-02T21:29:15Z</time></trkpt>
</trkseg>
</trk>
<trk>
<name>hlvfg44</name>
<cmt>r</cmt>
<desc>Frasnes-lez-Gosselies Sentier n°44 Rue Henri Loriaux</desc>
<link href="https://chemins.be/frasneslezgosselies/sentier/44"/><trkseg>
<trkpt lat="50.538275" lon="4.443517"><time>2026-05-02T20:39:15Z</time></trkpt>
<trkpt lat="50.539984" lon="4.444147"><time>2026-05-02T20:49:15Z</time></trkpt>
<trkpt lat="50.541321" lon="4.445184"><time>2026-05-02T20:59:15Z</time></trkpt>
<trkpt lat="50.541566" lon="4.445584"><time>2026-05-02T21:09:15Z</time></trkpt>
</trkseg></trk>
<trk>
<name>hlvfg44</name>
<cmt>q</cmt>
<desc>Frasnes-lez-Gosselies Sentier n°44 Rue Henri Loriaux</desc>
<link href="https://chemins.be/frasneslezgosselies/sentier/44"/><trkseg>
<trkpt lat="50.541566" lon="4.445584"><time>2026-05-02T21:09:15Z</time></trkpt>
<trkpt lat="50.541811" lon="4.445541"><time>2026-05-02T21:19:15Z</time></trkpt>
<trkpt lat="50.542761" lon="4.445870"><time>2026-05-02T21:29:15Z</time></trkpt>
<trkpt lat="50.543624" lon="4.445634"><time>2026-05-02T21:39:15Z</time></trkpt>
<trkpt lat="50.544670" lon="4.445527"><time>2026-05-02T21:49:15Z</time></trkpt>
<trkpt lat="50.546041" lon="4.445542"><time>2026-05-02T21:59:15Z</time></trkpt>
</trkseg>
</trk>
<trk>
<name>hlvfg45</name>
<cmt>v</cmt>
<desc>Frasnes-lez-Gosselies Sentier n°45 </desc>
<link href="https://chemins.be/frasneslezgosselies/sentier/45"/><trkseg>
<trkpt lat="50.540400" lon="4.450302"><time>2026-05-02T20:39:15Z</time></trkpt>
<trkpt lat="50.540509" lon="4.449597"><time>2026-05-02T20:49:15Z</time></trkpt>
<trkpt lat="50.540500" lon="4.448229"><time>2026-05-02T20:59:15Z</time></trkpt>
<trkpt lat="50.540796" lon="4.448263"><time>2026-05-02T21:09:15Z</time></trkpt>
<trkpt lat="50.541319" lon="4.448230"><time>2026-05-02T21:19:15Z</time></trkpt>
</trkseg></trk>
<trk>
<name>hlvfg45</name>
<cmt>q</cmt>
<desc>Frasnes-lez-Gosselies Sentier n°45 </desc>
<link href="https://chemins.be/frasneslezgosselies/sentier/45"/><trkseg>
<trkpt lat="50.541319" lon="4.448230"><time>2026-05-02T21:19:15Z</time></trkpt>
<trkpt lat="50.541391" lon="4.447483"><time>2026-05-02T21:29:15Z</time></trkpt>
<trkpt lat="50.541033" lon="4.445098"><time>2026-05-02T21:39:15Z</time></trkpt>
<trkpt lat="50.540854" lon="4.443898"><time>2026-05-02T21:49:15Z</time></trkpt>
<trkpt lat="50.540425" lon="4.440371"><time>2026-05-02T21:59:15Z</time></trkpt>
</trkseg>
</trk>
<trk>
<name>hlvfg46</name>
<cmt>v</cmt>
<desc>Frasnes-lez-Gosselies Sentier n°46 Ruelle aux Loups</desc>
<link href="https://chemins.be/frasneslezgosselies/sentier/46"/><trkseg>
<trkpt lat="50.539647" lon="4.447705"><time>2026-05-02T20:39:15Z</time></trkpt>
<trkpt lat="50.539647" lon="4.447141"><time>2026-05-02T20:49:15Z</time></trkpt>
<trkpt lat="50.539549" lon="4.446464"><time>2026-05-02T20:59:15Z</time></trkpt>
<trkpt lat="50.539486" lon="4.446196"><time>2026-05-02T21:09:15Z</time></trkpt>
</trkseg></trk>
<trk>
<name>hlvfg46</name>
<cmt>q</cmt>
<desc>Frasnes-lez-Gosselies Sentier n°46 Ruelle aux Loups</desc>
<link href="https://chemins.be/frasneslezgosselies/sentier/46"/><trkseg>
<trkpt lat="50.539486" lon="4.446196"><time>2026-05-02T21:09:15Z</time></trkpt>
<trkpt lat="50.539567" lon="4.446055"><time>2026-05-02T21:19:15Z</time></trkpt>
<trkpt lat="50.539666" lon="4.445533"><time>2026-05-02T21:29:15Z</time></trkpt>
</trkseg></trk>
<trk>
<name>hlvfg46</name>
<cmt>v</cmt>
<desc>Frasnes-lez-Gosselies Sentier n°46 Ruelle aux Loups</desc>
<link href="https://chemins.be/frasneslezgosselies/sentier/46"/><trkseg>
<trkpt lat="50.539666" lon="4.445533"><time>2026-05-02T21:29:15Z</time></trkpt>
<trkpt lat="50.539964" lon="4.444250"><time>2026-05-02T21:39:15Z</time></trkpt>
</trkseg>
</trk>
<trk>
<name>hlvfg47</name>
<cmt>r</cmt>
<desc>Frasnes-lez-Gosselies Sentier n°47 Ruelle aux Loups / Rue Henri Loriaux</desc>
<link href="https://chemins.be/frasneslezgosselies/sentier/47"/><trkseg>
<trkpt lat="50.538111" lon="4.445674"><time>2026-05-02T20:39:15Z</time></trkpt>
<trkpt lat="50.538261" lon="4.445634"><time>2026-05-02T20:49:15Z</time></trkpt>
<trkpt lat="50.538711" lon="4.445944"><time>2026-05-02T20:59:15Z</time></trkpt>
</trkseg></trk>
<trk>
<name>hlvfg47</name>
<cmt>v</cmt>
<desc>Frasnes-lez-Gosselies Sentier n°47 Ruelle aux Loups / Rue Henri Loriaux</desc>
<link href="https://chemins.be/frasneslezgosselies/sentier/47"/><trkseg>
<trkpt lat="50.538711" lon="4.445944"><time>2026-05-02T20:59:15Z</time></trkpt>
<trkpt lat="50.539201" lon="4.446174"><time>2026-05-02T21:09:15Z</time></trkpt>
<trkpt lat="50.539441" lon="4.446214"><time>2026-05-02T21:19:15Z</time></trkpt>
</trkseg></trk>
<trk>
<name>hlvfg47</name>
<cmt>d</cmt>
<desc>Frasnes-lez-Gosselies Sentier n°47 Ruelle aux Loups / Rue Henri Loriaux</desc>
<link href="https://chemins.be/frasneslezgosselies/sentier/47"/><trkseg>
<trkpt lat="50.539441" lon="4.446214"><time>2026-05-02T21:19:15Z</time></trkpt>
<trkpt lat="50.539451" lon="4.446214"><time>2026-05-02T21:29:15Z</time></trkpt>
<trkpt lat="50.540151" lon="4.446084"><time>2026-05-02T21:39:15Z</time></trkpt>
<trkpt lat="50.540691" lon="4.446074"><time>2026-05-02T21:49:15Z</time></trkpt>
<trkpt lat="50.541731" lon="4.446924"><time>2026-05-02T21:59:15Z</time></trkpt>
<trkpt lat="50.542491" lon="4.447084"><time>2026-05-02T22:09:15Z</time></trkpt>
</trkseg></trk>
<trk>
<name>hlvfg47</name>
<cmt>r</cmt>
<desc>Frasnes-lez-Gosselies Sentier n°47 Ruelle aux Loups / Rue Henri Loriaux</desc>
<link href="https://chemins.be/frasneslezgosselies/sentier/47"/><trkseg>
<trkpt lat="50.542491" lon="4.447084"><time>2026-05-02T22:09:15Z</time></trkpt>
<trkpt lat="50.543289" lon="4.448299"><time>2026-05-02T22:19:15Z</time></trkpt>
</trkseg></trk>
<trk>
<name>hlvfg47</name>
<cmt>d</cmt>
<desc>Frasnes-lez-Gosselies Sentier n°47 Ruelle aux Loups / Rue Henri Loriaux</desc>
<link href="https://chemins.be/frasneslezgosselies/sentier/47"/><trkseg>
<trkpt lat="50.543289" lon="4.448299"><time>2026-05-02T22:19:15Z</time></trkpt>
<trkpt lat="50.544021" lon="4.448458"><time>2026-05-02T22:29:15Z</time></trkpt>
</trkseg></trk>
<trk>
<name>hlvfg47</name>
<cmt>q</cmt>
<desc>Frasnes-lez-Gosselies Sentier n°47 Ruelle aux Loups / Rue Henri Loriaux</desc>
<link href="https://chemins.be/frasneslezgosselies/sentier/47"/><trkseg>
<trkpt lat="50.544021" lon="4.448458"><time>2026-05-02T22:29:15Z</time></trkpt>
<trkpt lat="50.545539" lon="4.448867"><time>2026-05-02T22:39:15Z</time></trkpt>
<trkpt lat="50.550827" lon="4.450192"><time>2026-05-02T22:49:15Z</time></trkpt>
<trkpt lat="50.552210" lon="4.451154"><time>2026-05-02T22:59:15Z</time></trkpt>
<trkpt lat="50.553628" lon="4.452102"><time>2026-05-02T23:09:15Z</time></trkpt>
</trkseg>
</trk>
<trk>
<name>hlvfg48</name>
<cmt>q</cmt>
<desc>Frasnes-lez-Gosselies Sentier n°48 </desc>
<link href="https://chemins.be/frasneslezgosselies/sentier/48"/><trkseg>
<trkpt lat="50.551361" lon="4.438213"><time>2026-05-02T20:39:15Z</time></trkpt>
<trkpt lat="50.550237" lon="4.439377"><time>2026-05-02T20:49:15Z</time></trkpt>
<trkpt lat="50.547941" lon="4.441834"><time>2026-05-02T20:59:15Z</time></trkpt>
<trkpt lat="50.547251" lon="4.442294"><time>2026-05-02T21:09:15Z</time></trkpt>
<trkpt lat="50.545292" lon="4.443782"><time>2026-05-02T21:19:15Z</time></trkpt>
<trkpt lat="50.543573" lon="4.445650"><time>2026-05-02T21:29:15Z</time></trkpt>
<trkpt lat="50.542491" lon="4.447109"><time>2026-05-02T21:39:15Z</time></trkpt>
<trkpt lat="50.542555" lon="4.447209"><time>2026-05-02T21:49:15Z</time></trkpt>
</trkseg></trk>
<trk>
<name>hlvfg48</name>
<cmt>v</cmt>
<desc>Frasnes-lez-Gosselies Sentier n°48 </desc>
<link href="https://chemins.be/frasneslezgosselies/sentier/48"/><trkseg>
<trkpt lat="50.542555" lon="4.447209"><time>2026-05-02T21:49:15Z</time></trkpt>
<trkpt lat="50.541819" lon="4.448196"><time>2026-05-02T21:59:15Z</time></trkpt>
</trkseg>
</trk>
<trk>
<name>hlvfg49</name>
<cmt>q</cmt>
<desc>Frasnes-lez-Gosselies Sentier n°49 </desc>
<link href="https://chemins.be/frasneslezgosselies/sentier/49"/><trkseg>
<trkpt lat="50.548124" lon="4.444812"><time>2026-05-02T20:39:15Z</time></trkpt>
<trkpt lat="50.545379" lon="4.443710"><time>2026-05-02T20:49:15Z</time></trkpt>
</trkseg>
</trk>
<trk>
<name>hlvfg50</name>
<cmt>q</cmt>
<desc>Frasnes-lez-Gosselies Sentier n°50 </desc>
<link href="https://chemins.be/frasneslezgosselies/sentier/50"/><trkseg>
<trkpt lat="50.553271" lon="4.440687"><time>2026-05-02T20:39:15Z</time></trkpt>
<trkpt lat="50.554018" lon="4.440519"><time>2026-05-02T20:49:15Z</time></trkpt>
<trkpt lat="50.557310" lon="4.437504"><time>2026-05-02T20:59:15Z</time></trkpt>
<trkpt lat="50.558670" lon="4.433921"><time>2026-05-02T21:09:15Z</time></trkpt>
<trkpt lat="50.558958" lon="4.432835"><time>2026-05-02T21:19:15Z</time></trkpt>
<trkpt lat="50.559291" lon="4.431156"><time>2026-05-02T21:29:15Z</time></trkpt>
</trkseg>
</trk>
<trk>
<name>hlvfg51</name>
<cmt>q</cmt>
<desc>Frasnes-lez-Gosselies Sentier n°51 </desc>
<link href="https://chemins.be/frasneslezgosselies/sentier/51"/><trkseg>
<trkpt lat="50.556276" lon="4.421611"><time>2026-05-02T20:39:15Z</time></trkpt>
<trkpt lat="50.558812" lon="4.425419"><time>2026-05-02T20:49:15Z</time></trkpt>
</trkseg>
</trk>
<trk>
<name>hlvfg52</name>
<cmt>q</cmt>
<desc>Frasnes-lez-Gosselies Sentier n°52 </desc>
<link href="https://chemins.be/frasneslezgosselies/sentier/52"/><trkseg>
<trkpt lat="50.539331" lon="4.443834"><time>2026-05-02T20:39:15Z</time></trkpt>
<trkpt lat="50.540361" lon="4.440154"><time>2026-05-02T20:49:15Z</time></trkpt>
<trkpt lat="50.540611" lon="4.439464"><time>2026-05-02T20:59:15Z</time></trkpt>
<trkpt lat="50.542731" lon="4.436713"><time>2026-05-02T21:09:15Z</time></trkpt>
<trkpt lat="50.545491" lon="4.433643"><time>2026-05-02T21:19:15Z</time></trkpt>
<trkpt lat="50.548371" lon="4.431315"><time>2026-05-02T21:29:15Z</time></trkpt>
</trkseg></trk>
<trk>
<name>hlvfg52</name>
<cmt>r</cmt>
<desc>Frasnes-lez-Gosselies Sentier n°52 </desc>
<link href="https://chemins.be/frasneslezgosselies/sentier/52"/><trkseg>
<trkpt lat="50.548371" lon="4.431315"><time>2026-05-02T21:29:15Z</time></trkpt>
<trkpt lat="50.549189" lon="4.429555"><time>2026-05-02T21:39:15Z</time></trkpt>
</trkseg></trk>
<trk>
<name>hlvfg52</name>
<cmt>q</cmt>
<desc>Frasnes-lez-Gosselies Sentier n°52 </desc>
<link href="https://chemins.be/frasneslezgosselies/sentier/52"/><trkseg>
<trkpt lat="50.549189" lon="4.429555"><time>2026-05-02T21:39:15Z</time></trkpt>
<trkpt lat="50.551125" lon="4.428311"><time>2026-05-02T21:49:15Z</time></trkpt>
<trkpt lat="50.554888" lon="4.425779"><time>2026-05-02T21:59:15Z</time></trkpt>
<trkpt lat="50.558815" lon="4.425521"><time>2026-05-02T22:09:15Z</time></trkpt>
</trkseg>
</trk>
<trk>
<name>hlvfg53</name>
<cmt>q</cmt>
<desc>Frasnes-lez-Gosselies Sentier n°53 </desc>
<link href="https://chemins.be/frasneslezgosselies/sentier/53"/><trkseg>
<trkpt lat="50.540291" lon="4.422732"><time>2026-05-02T20:39:15Z</time></trkpt>
<trkpt lat="50.539404" lon="4.423912"><time>2026-05-02T20:49:15Z</time></trkpt>
<trkpt lat="50.539089" lon="4.428096"><time>2026-05-02T20:59:15Z</time></trkpt>
<trkpt lat="50.539648" lon="4.431609"><time>2026-05-02T21:09:15Z</time></trkpt>
<trkpt lat="50.539890" lon="4.432047"><time>2026-05-02T21:19:15Z</time></trkpt>
<trkpt lat="50.540283" lon="4.437337"><time>2026-05-02T21:29:15Z</time></trkpt>
</trkseg>
</trk>
<trk>
<name>hlvfg54</name>
<cmt>q</cmt>
<desc>Frasnes-lez-Gosselies Sentier n°54 </desc>
<link href="https://chemins.be/frasneslezgosselies/sentier/54"/><trkseg>
<trkpt lat="50.535867" lon="4.439785"><time>2026-05-02T20:39:15Z</time></trkpt>
<trkpt lat="50.536416" lon="4.439688"><time>2026-05-02T20:49:15Z</time></trkpt>
<trkpt lat="50.537126" lon="4.438913"><time>2026-05-02T20:59:15Z</time></trkpt>
<trkpt lat="50.537504" lon="4.438490"><time>2026-05-02T21:09:15Z</time></trkpt>
</trkseg>
</trk>
<trk>
<name>hlvfg55</name>
<cmt>r</cmt>
<desc>Frasnes-lez-Gosselies Sentier n°55 Rue Bringand</desc>
<link href="https://chemins.be/frasneslezgosselies/sentier/55"/><trkseg>
<trkpt lat="50.537691" lon="4.446083"><time>2026-05-02T20:39:15Z</time></trkpt>
<trkpt lat="50.537651" lon="4.441834"><time>2026-05-02T20:49:15Z</time></trkpt>
<trkpt lat="50.537894" lon="4.441769"><time>2026-05-02T20:59:15Z</time></trkpt>
<trkpt lat="50.537538" lon="4.438423"><time>2026-05-02T21:09:15Z</time></trkpt>
</trkseg></trk>
<trk>
<name>hlvfg55</name>
<cmt>q</cmt>
<desc>Frasnes-lez-Gosselies Sentier n°55 Rue Bringand</desc>
<link href="https://chemins.be/frasneslezgosselies/sentier/55"/><trkseg>
<trkpt lat="50.537538" lon="4.438423"><time>2026-05-02T21:09:15Z</time></trkpt>
<trkpt lat="50.537702" lon="4.438069"><time>2026-05-02T21:19:15Z</time></trkpt>
<trkpt lat="50.537528" lon="4.437790"><time>2026-05-02T21:29:15Z</time></trkpt>
<trkpt lat="50.538554" lon="4.435065"><time>2026-05-02T21:39:15Z</time></trkpt>
<trkpt lat="50.540014" lon="4.433713"><time>2026-05-02T21:49:15Z</time></trkpt>
</trkseg>
</trk>
<trk>
<name>hlvfg56</name>
<cmt>q</cmt>
<desc>Frasnes-lez-Gosselies Sentier n°56 </desc>
<link href="https://chemins.be/frasneslezgosselies/sentier/56"/><trkseg>
<trkpt lat="50.535849" lon="4.439955"><time>2026-05-02T20:39:15Z</time></trkpt>
<trkpt lat="50.536334" lon="4.439871"><time>2026-05-02T20:49:15Z</time></trkpt>
<trkpt lat="50.537511" lon="4.441819"><time>2026-05-02T20:59:15Z</time></trkpt>
</trkseg>
</trk>
<trk>
<name>hlvfg57</name>
<cmt>v</cmt>
<desc>Frasnes-lez-Gosselies Sentier n°57 Rue Hoebeke</desc>
<link href="https://chemins.be/frasneslezgosselies/sentier/57"/><trkseg>
<trkpt lat="50.538737" lon="4.419575"><time>2026-05-02T20:39:15Z</time></trkpt>
<trkpt lat="50.538287" lon="4.419729"><time>2026-05-02T20:49:15Z</time></trkpt>
<trkpt lat="50.538269" lon="4.419405"><time>2026-05-02T20:59:15Z</time></trkpt>
<trkpt lat="50.538008" lon="4.419884"><time>2026-05-02T21:09:15Z</time></trkpt>
<trkpt lat="50.537460" lon="4.420279"><time>2026-05-02T21:19:15Z</time></trkpt>
<trkpt lat="50.537172" lon="4.420687"><time>2026-05-02T21:29:15Z</time></trkpt>
</trkseg></trk>
<trk>
<name>hlvfg57</name>
<cmt>r</cmt>
<desc>Frasnes-lez-Gosselies Sentier n°57 Rue Hoebeke</desc>
<link href="https://chemins.be/frasneslezgosselies/sentier/57"/><trkseg>
<trkpt lat="50.537172" lon="4.420687"><time>2026-05-02T21:29:15Z</time></trkpt>
<trkpt lat="50.535940" lon="4.421236"><time>2026-05-02T21:39:15Z</time></trkpt>
<trkpt lat="50.535374" lon="4.420982"><time>2026-05-02T21:49:15Z</time></trkpt>
</trkseg></trk>
<trk>
<name>hlvfg57</name>
<cmt>q</cmt>
<desc>Frasnes-lez-Gosselies Sentier n°57 Rue Hoebeke</desc>
<link href="https://chemins.be/frasneslezgosselies/sentier/57"/><trkseg>
<trkpt lat="50.535374" lon="4.420982"><time>2026-05-02T21:49:15Z</time></trkpt>
<trkpt lat="50.534295" lon="4.420007"><time>2026-05-02T21:59:15Z</time></trkpt>
</trkseg>
</trk>
<trk>
<name>hlvfg58</name>
<cmt>q</cmt>
<desc>Frasnes-lez-Gosselies Sentier n°58 </desc>
<link href="https://chemins.be/frasneslezgosselies/sentier/58"/><trkseg>
<trkpt lat="50.538547" lon="4.421705"><time>2026-05-02T20:39:15Z</time></trkpt>
<trkpt lat="50.538556" lon="4.420872"><time>2026-05-02T20:49:15Z</time></trkpt>
<trkpt lat="50.538772" lon="4.419871"><time>2026-05-02T20:59:15Z</time></trkpt>
</trkseg>
</trk>
<trk>
<name>hlvfg6</name>
<cmt>s</cmt>
<desc>Frasnes-lez-Gosselies Chemin n°6 </desc>
<link href="https://chemins.be/frasneslezgosselies/chemin/6"/><trkseg>
<trkpt lat="50.526250" lon="4.427557"><time>2026-05-02T20:39:15Z</time></trkpt>
<trkpt lat="50.528440" lon="4.426902"><time>2026-05-02T20:49:15Z</time></trkpt>
<trkpt lat="50.530032" lon="4.426981"><time>2026-05-02T20:59:15Z</time></trkpt>
</trkseg></trk>
<trk>
<name>hlvfg6</name>
<cmt>r</cmt>
<desc>Frasnes-lez-Gosselies Chemin n°6 </desc>
<link href="https://chemins.be/frasneslezgosselies/chemin/6"/><trkseg>
<trkpt lat="50.530032" lon="4.426981"><time>2026-05-02T20:59:15Z</time></trkpt>
<trkpt lat="50.531641" lon="4.426902"><time>2026-05-02T21:09:15Z</time></trkpt>
<trkpt lat="50.532514" lon="4.426315"><time>2026-05-02T21:19:15Z</time></trkpt>
<trkpt lat="50.533587" lon="4.426251"><time>2026-05-02T21:29:15Z</time></trkpt>
<trkpt lat="50.534269" lon="4.426122"><time>2026-05-02T21:39:15Z</time></trkpt>
</trkseg>
</trk>
<trk>
<name>hlvfg60</name>
<cmt>q</cmt>
<desc>Frasnes-lez-Gosselies Sentier n°60 </desc>
<link href="https://chemins.be/frasneslezgosselies/sentier/60"/><trkseg>
<trkpt lat="50.534704" lon="4.429642"><time>2026-05-02T20:39:15Z</time></trkpt>
<trkpt lat="50.534400" lon="4.426453"><time>2026-05-02T20:49:15Z</time></trkpt>
</trkseg>
</trk>
<trk>
<name>hlvfg61</name>
<cmt>q</cmt>
<desc>Frasnes-lez-Gosselies Sentier n°61 </desc>
<link href="https://chemins.be/frasneslezgosselies/sentier/61"/><trkseg>
<trkpt lat="50.529477" lon="4.431508"><time>2026-05-02T20:39:15Z</time></trkpt>
<trkpt lat="50.531741" lon="4.426809"><time>2026-05-02T20:49:15Z</time></trkpt>
</trkseg>
</trk>
<trk>
<name>hlvfg62</name>
<cmt>v</cmt>
<desc>Frasnes-lez-Gosselies Sentier n°62 </desc>
<link href="https://chemins.be/frasneslezgosselies/sentier/62"/><trkseg>
<trkpt lat="50.535681" lon="4.440344"><time>2026-05-02T20:39:15Z</time></trkpt>
<trkpt lat="50.534331" lon="4.440994"><time>2026-05-02T20:49:15Z</time></trkpt>
</trkseg></trk>
<trk>
<name>hlvfg62</name>
<cmt>q</cmt>
<desc>Frasnes-lez-Gosselies Sentier n°62 </desc>
<link href="https://chemins.be/frasneslezgosselies/sentier/62"/><trkseg>
<trkpt lat="50.534331" lon="4.440994"><time>2026-05-02T20:49:15Z</time></trkpt>
<trkpt lat="50.534331" lon="4.440994"><time>2026-05-02T20:59:15Z</time></trkpt>
<trkpt lat="50.533450" lon="4.440694"><time>2026-05-02T21:09:15Z</time></trkpt>
<trkpt lat="50.532710" lon="4.439844"><time>2026-05-02T21:19:15Z</time></trkpt>
<trkpt lat="50.530474" lon="4.438693"><time>2026-05-02T21:29:15Z</time></trkpt>
<trkpt lat="50.528865" lon="4.437620"><time>2026-05-02T21:39:15Z</time></trkpt>
<trkpt lat="50.527528" lon="4.435003"><time>2026-05-02T21:49:15Z</time></trkpt>
<trkpt lat="50.527391" lon="4.434445"><time>2026-05-02T21:59:15Z</time></trkpt>
<trkpt lat="50.524854" lon="4.429509"><time>2026-05-02T22:09:15Z</time></trkpt>
<trkpt lat="50.523108" lon="4.427320"><time>2026-05-02T22:19:15Z</time></trkpt>
</trkseg>
</trk>
<trk>
<name>hlvfg63</name>
<cmt>q</cmt>
<desc>Frasnes-lez-Gosselies Sentier n°63 </desc>
<link href="https://chemins.be/frasneslezgosselies/sentier/63"/><trkseg>
<trkpt lat="50.532116" lon="4.442643"><time>2026-05-02T20:39:15Z</time></trkpt>
<trkpt lat="50.532972" lon="4.440783"><time>2026-05-02T20:49:15Z</time></trkpt>
<trkpt lat="50.533502" lon="4.440699"><time>2026-05-02T20:59:15Z</time></trkpt>
<trkpt lat="50.533728" lon="4.438485"><time>2026-05-02T21:09:15Z</time></trkpt>
<trkpt lat="50.534376" lon="4.437555"><time>2026-05-02T21:19:15Z</time></trkpt>
<trkpt lat="50.535348" lon="4.435962"><time>2026-05-02T21:29:15Z</time></trkpt>
</trkseg>
</trk>
<trk>
<name>hlvfg64</name>
<cmt>v</cmt>
<desc>Frasnes-lez-Gosselies Sentier n°64 Rue Bielle</desc>
<link href="https://chemins.be/frasneslezgosselies/sentier/64"/><trkseg>
<trkpt lat="50.533256" lon="4.445184"><time>2026-05-02T20:39:15Z</time></trkpt>
<trkpt lat="50.533213" lon="4.443562"><time>2026-05-02T20:49:15Z</time></trkpt>
</trkseg></trk>
<trk>
<name>hlvfg64</name>
<cmt>q</cmt>
<desc>Frasnes-lez-Gosselies Sentier n°64 Rue Bielle</desc>
<link href="https://chemins.be/frasneslezgosselies/sentier/64"/><trkseg>
<trkpt lat="50.533213" lon="4.443562"><time>2026-05-02T20:49:15Z</time></trkpt>
<trkpt lat="50.533466" lon="4.440783"><time>2026-05-02T20:59:15Z</time></trkpt>
</trkseg>
</trk>
<trk>
<name>hlvfg65</name>
<cmt>r</cmt>
<desc>Frasnes-lez-Gosselies Sentier n°65 Rue Trichon</desc>
<link href="https://chemins.be/frasneslezgosselies/sentier/65"/><trkseg>
<trkpt lat="50.533706" lon="4.444917"><time>2026-05-02T20:39:15Z</time></trkpt>
<trkpt lat="50.533762" lon="4.442265"><time>2026-05-02T20:49:15Z</time></trkpt>
</trkseg></trk>
<trk>
<name>hlvfg65</name>
<cmt>v</cmt>
<desc>Frasnes-lez-Gosselies Sentier n°65 Rue Trichon</desc>
<link href="https://chemins.be/frasneslezgosselies/sentier/65"/><trkseg>
<trkpt lat="50.533762" lon="4.442265"><time>2026-05-02T20:49:15Z</time></trkpt>
<trkpt lat="50.533808" lon="4.440911"><time>2026-05-02T20:59:15Z</time></trkpt>
</trkseg>
</trk>
<trk>
<name>hlvfg66</name>
<cmt>q</cmt>
<desc>Frasnes-lez-Gosselies Sentier n°66 Rue Gode</desc>
<link href="https://chemins.be/frasneslezgosselies/sentier/66"/><trkseg>
<trkpt lat="50.535017" lon="4.447500"><time>2026-05-02T20:39:15Z</time></trkpt>
<trkpt lat="50.534865" lon="4.445991"><time>2026-05-02T20:49:15Z</time></trkpt>
</trkseg></trk>
<trk>
<name>hlvfg66</name>
<cmt>r</cmt>
<desc>Frasnes-lez-Gosselies Sentier n°66 Rue Gode</desc>
<link href="https://chemins.be/frasneslezgosselies/sentier/66"/><trkseg>
<trkpt lat="50.534865" lon="4.445991"><time>2026-05-02T20:49:15Z</time></trkpt>
<trkpt lat="50.534570" lon="4.444311"><time>2026-05-02T20:59:15Z</time></trkpt>
<trkpt lat="50.534597" lon="4.443522"><time>2026-05-02T21:09:15Z</time></trkpt>
</trkseg></trk>
<trk>
<name>hlvfg66</name>
<cmt>d</cmt>
<desc>Frasnes-lez-Gosselies Sentier n°66 Rue Gode</desc>
<link href="https://chemins.be/frasneslezgosselies/sentier/66"/><trkseg>
<trkpt lat="50.534597" lon="4.443522"><time>2026-05-02T21:09:15Z</time></trkpt>
<trkpt lat="50.534626" lon="4.442679"><time>2026-05-02T21:19:15Z</time></trkpt>
</trkseg></trk>
<trk>
<name>hlvfg66</name>
<cmt>r</cmt>
<desc>Frasnes-lez-Gosselies Sentier n°66 Rue Gode</desc>
<link href="https://chemins.be/frasneslezgosselies/sentier/66"/><trkseg>
<trkpt lat="50.534626" lon="4.442679"><time>2026-05-02T21:19:15Z</time></trkpt>
<trkpt lat="50.534689" lon="4.440842"><time>2026-05-02T21:29:15Z</time></trkpt>
</trkseg>
</trk>
<trk>
<name>hlvfg67</name>
<cmt>v</cmt>
<desc>Frasnes-lez-Gosselies Sentier n°67 Rue Édouard Givron</desc>
<link href="https://chemins.be/frasneslezgosselies/sentier/67"/><trkseg>
<trkpt lat="50.536512" lon="4.443722"><time>2026-05-02T20:39:15Z</time></trkpt>
<trkpt lat="50.536574" lon="4.444526"><time>2026-05-02T20:49:15Z</time></trkpt>
<trkpt lat="50.536781" lon="4.444541"><time>2026-05-02T20:59:15Z</time></trkpt>
<trkpt lat="50.536790" lon="4.445147"><time>2026-05-02T21:09:15Z</time></trkpt>
<trkpt lat="50.536898" lon="4.445147"><time>2026-05-02T21:19:15Z</time></trkpt>
</trkseg></trk>
<trk>
<name>hlvfg67</name>
<cmt>q</cmt>
<desc>Frasnes-lez-Gosselies Sentier n°67 Rue Édouard Givron</desc>
<link href="https://chemins.be/frasneslezgosselies/sentier/67"/><trkseg>
<trkpt lat="50.536898" lon="4.445147"><time>2026-05-02T21:19:15Z</time></trkpt>
<trkpt lat="50.536933" lon="4.445895"><time>2026-05-02T21:29:15Z</time></trkpt>
<trkpt lat="50.537076" lon="4.446869"><time>2026-05-02T21:39:15Z</time></trkpt>
</trkseg>
</trk>
<trk>
<name>hlvfg68</name>
<cmt>q</cmt>
<desc>Frasnes-lez-Gosselies Sentier n°68 </desc>
<link href="https://chemins.be/frasneslezgosselies/sentier/68"/><trkseg>
<trkpt lat="50.537972" lon="4.451272"><time>2026-05-02T20:39:15Z</time></trkpt>
<trkpt lat="50.538125" lon="4.451004"><time>2026-05-02T20:49:15Z</time></trkpt>
<trkpt lat="50.538260" lon="4.450369"><time>2026-05-02T20:59:15Z</time></trkpt>
<trkpt lat="50.538243" lon="4.449748"><time>2026-05-02T21:09:15Z</time></trkpt>
<trkpt lat="50.538073" lon="4.448239"><time>2026-05-02T21:19:15Z</time></trkpt>
<trkpt lat="50.537778" lon="4.446292"><time>2026-05-02T21:29:15Z</time></trkpt>
</trkseg>
</trk>
<trk>
<name>hlvfg69</name>
<cmt>r</cmt>
<desc>Frasnes-lez-Gosselies Sentier n°69 Rue Petit Marais</desc>
<link href="https://chemins.be/frasneslezgosselies/sentier/69"/><trkseg>
<trkpt lat="50.531260" lon="4.446210"><time>2026-05-02T20:39:15Z</time></trkpt>
<trkpt lat="50.531224" lon="4.445477"><time>2026-05-02T20:49:15Z</time></trkpt>
<trkpt lat="50.531243" lon="4.444278"><time>2026-05-02T20:59:15Z</time></trkpt>
</trkseg>
</trk>
<trk>
<name>hlvfg70</name>
<cmt>q</cmt>
<desc>Frasnes-lez-Gosselies Sentier n°70 </desc>
<link href="https://chemins.be/frasneslezgosselies/sentier/70"/><trkseg>
<trkpt lat="50.529238" lon="4.445558"><time>2026-05-02T20:39:15Z</time></trkpt>
<trkpt lat="50.528888" lon="4.443371"><time>2026-05-02T20:49:15Z</time></trkpt>
<trkpt lat="50.528745" lon="4.442892"><time>2026-05-02T20:59:15Z</time></trkpt>
<trkpt lat="50.527964" lon="4.441452"><time>2026-05-02T21:09:15Z</time></trkpt>
<trkpt lat="50.526029" lon="4.438740"><time>2026-05-02T21:19:15Z</time></trkpt>
<trkpt lat="50.524109" lon="4.436904"><time>2026-05-02T21:29:15Z</time></trkpt>
<trkpt lat="50.523323" lon="4.435187"><time>2026-05-02T21:39:15Z</time></trkpt>
<trkpt lat="50.522111" lon="4.434329"><time>2026-05-02T21:49:15Z</time></trkpt>
<trkpt lat="50.520834" lon="4.432063"><time>2026-05-02T21:59:15Z</time></trkpt>
</trkseg>
</trk>
<trk>
<name>hlvfg72</name>
<cmt>q</cmt>
<desc>Frasnes-lez-Gosselies Sentier n°72 </desc>
<link href="https://chemins.be/frasneslezgosselies/sentier/72"/><trkseg>
<trkpt lat="50.529543" lon="4.445869"><time>2026-05-02T20:39:15Z</time></trkpt>
<trkpt lat="50.526188" lon="4.448684"><time>2026-05-02T20:49:15Z</time></trkpt>
<trkpt lat="50.525022" lon="4.448653"><time>2026-05-02T20:59:15Z</time></trkpt>
<trkpt lat="50.520119" lon="4.448501"><time>2026-05-02T21:09:15Z</time></trkpt>
<trkpt lat="50.519700" lon="4.448901"><time>2026-05-02T21:19:15Z</time></trkpt>
<trkpt lat="50.516235" lon="4.450103"><time>2026-05-02T21:29:15Z</time></trkpt>
<trkpt lat="50.512624" lon="4.455181"><time>2026-05-02T21:39:15Z</time></trkpt>
</trkseg>
</trk>
<trk>
<name>hlvfg73</name>
<cmt>q</cmt>
<desc>Frasnes-lez-Gosselies Sentier n°73 </desc>
<link href="https://chemins.be/frasneslezgosselies/sentier/73"/><trkseg>
<trkpt lat="50.522626" lon="4.464846"><time>2026-05-02T20:39:15Z</time></trkpt>
<trkpt lat="50.521398" lon="4.462801"><time>2026-05-02T20:49:15Z</time></trkpt>
<trkpt lat="50.520666" lon="4.461256"><time>2026-05-02T20:59:15Z</time></trkpt>
<trkpt lat="50.518509" lon="4.457570"><time>2026-05-02T21:09:15Z</time></trkpt>
</trkseg></trk>
<trk>
<name>hlvfg73</name>
<cmt>v</cmt>
<desc>Frasnes-lez-Gosselies Sentier n°73 </desc>
<link href="https://chemins.be/frasneslezgosselies/sentier/73"/><trkseg>
<trkpt lat="50.518509" lon="4.457570"><time>2026-05-02T21:09:15Z</time></trkpt>
<trkpt lat="50.517601" lon="4.454696"><time>2026-05-02T21:19:15Z</time></trkpt>
<trkpt lat="50.516260" lon="4.450414"><time>2026-05-02T21:29:15Z</time></trkpt>
</trkseg></trk>
<trk>
<name>hlvfg73</name>
<cmt>q</cmt>
<desc>Frasnes-lez-Gosselies Sentier n°73 </desc>
<link href="https://chemins.be/frasneslezgosselies/sentier/73"/><trkseg>
<trkpt lat="50.516260" lon="4.450414"><time>2026-05-02T21:29:15Z</time></trkpt>
<trkpt lat="50.516070" lon="4.448014"><time>2026-05-02T21:39:15Z</time></trkpt>
<trkpt lat="50.514900" lon="4.445184"><time>2026-05-02T21:49:15Z</time></trkpt>
</trkseg>
</trk>
<trk>
<name>hlvfg74</name>
<cmt>q</cmt>
<desc>Frasnes-lez-Gosselies Sentier n°74 </desc>
<link href="https://chemins.be/frasneslezgosselies/sentier/74"/><trkseg>
<trkpt lat="50.512384" lon="4.454393"><time>2026-05-02T20:39:15Z</time></trkpt>
<trkpt lat="50.513542" lon="4.448663"><time>2026-05-02T20:49:15Z</time></trkpt>
</trkseg>
</trk>
<trk>
<name>hlvfg75</name>
<cmt>v</cmt>
<desc>Frasnes-lez-Gosselies Sentier n°75 </desc>
<link href="https://chemins.be/frasneslezgosselies/sentier/75"/><trkseg>
<trkpt lat="50.530196" lon="4.451046"><time>2026-05-02T20:39:15Z</time></trkpt>
<trkpt lat="50.530311" lon="4.453599"><time>2026-05-02T20:49:15Z</time></trkpt>
<trkpt lat="50.530681" lon="4.454735"><time>2026-05-02T20:59:15Z</time></trkpt>
</trkseg></trk>
<trk>
<name>hlvfg75</name>
<cmt>r</cmt>
<desc>Frasnes-lez-Gosselies Sentier n°75 </desc>
<link href="https://chemins.be/frasneslezgosselies/sentier/75"/><trkseg>
<trkpt lat="50.530681" lon="4.454735"><time>2026-05-02T20:59:15Z</time></trkpt>
<trkpt lat="50.530169" lon="4.455130"><time>2026-05-02T21:09:15Z</time></trkpt>
</trkseg></trk>
<trk>
<name>hlvfg75</name>
<cmt>q</cmt>
<desc>Frasnes-lez-Gosselies Sentier n°75 </desc>
<link href="https://chemins.be/frasneslezgosselies/sentier/75"/><trkseg>
<trkpt lat="50.530169" lon="4.455130"><time>2026-05-02T21:09:15Z</time></trkpt>
<trkpt lat="50.529208" lon="4.458504"><time>2026-05-02T21:19:15Z</time></trkpt>
</trkseg></trk>
<trk>
<name>hlvfg75</name>
<cmt>s</cmt>
<desc>Frasnes-lez-Gosselies Sentier n°75 </desc>
<link href="https://chemins.be/frasneslezgosselies/sentier/75"/><trkseg>
<trkpt lat="50.529208" lon="4.458504"><time>2026-05-02T21:19:15Z</time></trkpt>
<trkpt lat="50.529132" lon="4.459148"><time>2026-05-02T21:29:15Z</time></trkpt>
</trkseg></trk>
<trk>
<name>hlvfg75</name>
<cmt>q</cmt>
<desc>Frasnes-lez-Gosselies Sentier n°75 </desc>
<link href="https://chemins.be/frasneslezgosselies/sentier/75"/><trkseg>
<trkpt lat="50.529132" lon="4.459148"><time>2026-05-02T21:29:15Z</time></trkpt>
<trkpt lat="50.528554" lon="4.466511"><time>2026-05-02T21:39:15Z</time></trkpt>
</trkseg>
</trk>
<trk>
<name>hlvfg76</name>
<cmt>v</cmt>
<desc>Frasnes-lez-Gosselies Sentier n°76 Chaussée de Bruxelles</desc>
<link href="https://chemins.be/frasneslezgosselies/sentier/76"/><trkseg>
<trkpt lat="50.535159" lon="4.449856"><time>2026-05-02T20:39:15Z</time></trkpt>
<trkpt lat="50.534787" lon="4.451527"><time>2026-05-02T20:49:15Z</time></trkpt>
<trkpt lat="50.534457" lon="4.451590"><time>2026-05-02T20:59:15Z</time></trkpt>
<trkpt lat="50.534078" lon="4.452605"><time>2026-05-02T21:09:15Z</time></trkpt>
<trkpt lat="50.534160" lon="4.453503"><time>2026-05-02T21:19:15Z</time></trkpt>
<trkpt lat="50.534075" lon="4.453793"><time>2026-05-02T21:29:15Z</time></trkpt>
</trkseg></trk>
<trk>
<name>hlvfg76</name>
<cmt>r</cmt>
<desc>Frasnes-lez-Gosselies Sentier n°76 Chaussée de Bruxelles</desc>
<link href="https://chemins.be/frasneslezgosselies/sentier/76"/><trkseg>
<trkpt lat="50.534075" lon="4.453793"><time>2026-05-02T21:29:15Z</time></trkpt>
<trkpt lat="50.533646" lon="4.453986"><time>2026-05-02T21:39:15Z</time></trkpt>
</trkseg></trk>
<trk>
<name>hlvfg76</name>
<cmt>q</cmt>
<desc>Frasnes-lez-Gosselies Sentier n°76 Chaussée de Bruxelles</desc>
<link href="https://chemins.be/frasneslezgosselies/sentier/76"/><trkseg>
<trkpt lat="50.533646" lon="4.453986"><time>2026-05-02T21:39:15Z</time></trkpt>
<trkpt lat="50.533248" lon="4.456877"><time>2026-05-02T21:49:15Z</time></trkpt>
<trkpt lat="50.532813" lon="4.457792"><time>2026-05-02T21:59:15Z</time></trkpt>
</trkseg></trk>
<trk>
<name>hlvfg76</name>
<cmt>s</cmt>
<desc>Frasnes-lez-Gosselies Sentier n°76 Chaussée de Bruxelles</desc>
<link href="https://chemins.be/frasneslezgosselies/sentier/76"/><trkseg>
<trkpt lat="50.532813" lon="4.457792"><time>2026-05-02T21:59:15Z</time></trkpt>
<trkpt lat="50.532371" lon="4.458663"><time>2026-05-02T22:09:15Z</time></trkpt>
</trkseg></trk>
<trk>
<name>hlvfg76</name>
<cmt>q</cmt>
<desc>Frasnes-lez-Gosselies Sentier n°76 Chaussée de Bruxelles</desc>
<link href="https://chemins.be/frasneslezgosselies/sentier/76"/><trkseg>
<trkpt lat="50.532371" lon="4.458663"><time>2026-05-02T22:09:15Z</time></trkpt>
<trkpt lat="50.531751" lon="4.459775"><time>2026-05-02T22:19:15Z</time></trkpt>
<trkpt lat="50.528614" lon="4.466556"><time>2026-05-02T22:29:15Z</time></trkpt>
</trkseg>
</trk>
<trk>
<name>hlvfg77</name>
<cmt>r</cmt>
<desc>Frasnes-lez-Gosselies Sentier n°77 Chemin du Saucy</desc>
<link href="https://chemins.be/frasneslezgosselies/sentier/77"/><trkseg>
<trkpt lat="50.537506" lon="4.455653"><time>2026-05-02T20:39:15Z</time></trkpt>
<trkpt lat="50.536806" lon="4.456726"><time>2026-05-02T20:49:15Z</time></trkpt>
<trkpt lat="50.536672" lon="4.458096"><time>2026-05-02T20:59:15Z</time></trkpt>
</trkseg></trk>
<trk>
<name>hlvfg77</name>
<cmt>q</cmt>
<desc>Frasnes-lez-Gosselies Sentier n°77 Chemin du Saucy</desc>
<link href="https://chemins.be/frasneslezgosselies/sentier/77"/><trkseg>
<trkpt lat="50.536672" lon="4.458096"><time>2026-05-02T20:59:15Z</time></trkpt>
<trkpt lat="50.535215" lon="4.462148"><time>2026-05-02T21:09:15Z</time></trkpt>
<trkpt lat="50.535726" lon="4.465409"><time>2026-05-02T21:19:15Z</time></trkpt>
</trkseg>
</trk>
<trk>
<name>hlvfg78</name>
<cmt>r</cmt>
<desc>Frasnes-lez-Gosselies Sentier n°78 Chemin du Saucy</desc>
<link href="https://chemins.be/frasneslezgosselies/sentier/78"/><trkseg>
<trkpt lat="50.540312" lon="4.460767"><time>2026-05-02T20:39:15Z</time></trkpt>
<trkpt lat="50.541585" lon="4.462198"><time>2026-05-02T20:49:15Z</time></trkpt>
</trkseg></trk>
<trk>
<name>hlvfg78</name>
<cmt>v</cmt>
<desc>Frasnes-lez-Gosselies Sentier n°78 Chemin du Saucy</desc>
<link href="https://chemins.be/frasneslezgosselies/sentier/78"/><trkseg>
<trkpt lat="50.541585" lon="4.462198"><time>2026-05-02T20:49:15Z</time></trkpt>
<trkpt lat="50.541835" lon="4.462450"><time>2026-05-02T20:59:15Z</time></trkpt>
</trkseg></trk>
<trk>
<name>hlvfg78</name>
<cmt>q</cmt>
<desc>Frasnes-lez-Gosselies Sentier n°78 Chemin du Saucy</desc>
<link href="https://chemins.be/frasneslezgosselies/sentier/78"/><trkseg>
<trkpt lat="50.541835" lon="4.462450"><time>2026-05-02T20:59:15Z</time></trkpt>
<trkpt lat="50.542094" lon="4.463212"><time>2026-05-02T21:09:15Z</time></trkpt>
<trkpt lat="50.543382" lon="4.465680"><time>2026-05-02T21:19:15Z</time></trkpt>
</trkseg>
</trk>
<trk>
<name>hlvfg79</name>
<cmt>r</cmt>
<desc>Frasnes-lez-Gosselies Sentier n°79 Chemin du Moulin Druet</desc>
<link href="https://chemins.be/frasneslezgosselies/sentier/79"/><trkseg>
<trkpt lat="50.520792" lon="4.432111"><time>2026-05-02T20:39:15Z</time></trkpt>
<trkpt lat="50.519625" lon="4.433064"><time>2026-05-02T20:49:15Z</time></trkpt>
<trkpt lat="50.518500" lon="4.436815"><time>2026-05-02T20:59:15Z</time></trkpt>
</trkseg>
</trk>
<trk>
<name>hlvfg8</name>
<cmt>b</cmt>
<desc>Frasnes-lez-Gosselies Chemin n°8 </desc>
<link href="https://chemins.be/frasneslezgosselies/chemin/8"/><trkseg>
<trkpt lat="50.526565" lon="4.457041"><time>2026-05-02T20:39:15Z</time></trkpt>
<trkpt lat="50.526223" lon="4.455960"><time>2026-05-02T20:49:15Z</time></trkpt>
</trkseg>
</trk>
<trk>
<name>hlvfg80</name>
<cmt>q</cmt>
<desc>Frasnes-lez-Gosselies Sentier n°80 </desc>
<link href="https://chemins.be/frasneslezgosselies/sentier/80"/><trkseg>
<trkpt lat="50.535416" lon="4.463852"><time>2026-05-02T20:39:15Z</time></trkpt>
<trkpt lat="50.534984" lon="4.465111"><time>2026-05-02T20:49:15Z</time></trkpt>
</trkseg>
</trk>
<trk>
<name>hlvfg81</name>
<cmt>q</cmt>
<desc>Frasnes-lez-Gosselies Sentier n°81 </desc>
<link href="https://chemins.be/frasneslezgosselies/sentier/81"/><trkseg>
<trkpt lat="50.541966" lon="4.434785"><time>2026-05-02T20:39:15Z</time></trkpt>
<trkpt lat="50.541579" lon="4.435851"><time>2026-05-02T20:49:15Z</time></trkpt>
<trkpt lat="50.541477" lon="4.436684"><time>2026-05-02T20:59:15Z</time></trkpt>
<trkpt lat="50.541718" lon="4.438007"><time>2026-05-02T21:09:15Z</time></trkpt>
</trkseg>
</trk>
<trk>
<name>hlvfg82</name>
<cmt>q</cmt>
<desc>Frasnes-lez-Gosselies Sentier n°82 </desc>
<link href="https://chemins.be/frasneslezgosselies/sentier/82"/><trkseg>
<trkpt lat="50.534320" lon="4.423543"><time>2026-05-02T20:39:15Z</time></trkpt>
<trkpt lat="50.533280" lon="4.421723"><time>2026-05-02T20:49:15Z</time></trkpt>
<trkpt lat="50.533320" lon="4.421493"><time>2026-05-02T20:59:15Z</time></trkpt>
<trkpt lat="50.532954" lon="4.420954"><time>2026-05-02T21:09:15Z</time></trkpt>
<trkpt lat="50.534168" lon="4.419801"><time>2026-05-02T21:19:15Z</time></trkpt>
</trkseg>
</trk>
<trk>
<name>hlvfg83</name>
<cmt>v</cmt>
<desc>Frasnes-lez-Gosselies Sentier n°83 Rue Bayard</desc>
<link href="https://chemins.be/frasneslezgosselies/sentier/83"/><trkseg>
<trkpt lat="50.533615" lon="4.446595"><time>2026-05-02T20:39:15Z</time></trkpt>
<trkpt lat="50.533337" lon="4.445226"><time>2026-05-02T20:49:15Z</time></trkpt>
</trkseg>
</trk>
<trk>
<name>hlvfg9</name>
<cmt>v</cmt>
<desc>Frasnes-lez-Gosselies Chemin n°9 </desc>
<link href="https://chemins.be/frasneslezgosselies/chemin/9"/><trkseg>
<trkpt lat="50.530220" lon="4.455151"><time>2026-05-02T20:39:15Z</time></trkpt>
<trkpt lat="50.529482" lon="4.456123"><time>2026-05-02T20:49:15Z</time></trkpt>
</trkseg></trk>
<trk>
<name>hlvfg9</name>
<cmt>s</cmt>
<desc>Frasnes-lez-Gosselies Chemin n°9 </desc>
<link href="https://chemins.be/frasneslezgosselies/chemin/9"/><trkseg>
<trkpt lat="50.529482" lon="4.456123"><time>2026-05-02T20:49:15Z</time></trkpt>
<trkpt lat="50.528762" lon="4.457475"><time>2026-05-02T20:59:15Z</time></trkpt>
<trkpt lat="50.528303" lon="4.458165"><time>2026-05-02T21:09:15Z</time></trkpt>
<trkpt lat="50.527448" lon="4.458982"><time>2026-05-02T21:19:15Z</time></trkpt>
<trkpt lat="50.526683" lon="4.460306"><time>2026-05-02T21:29:15Z</time></trkpt>
</trkseg>
</trk>
<trk>
<name>hlvfgi1</name>
<cmt>v</cmt>
<desc>Frasnes-lez-Gosselies Chemin n°i1 </desc>
<link href="https://chemins.be/frasneslezgosselies/chemin/i1"/><trkseg>
<trkpt lat="50.552346" lon="4.477063"><time>2026-05-02T20:39:15Z</time></trkpt>
<trkpt lat="50.551399" lon="4.474949"><time>2026-05-02T20:49:15Z</time></trkpt>
</trkseg>
</trk>
<trk>
<name>hlvfgi2</name>
<cmt>v</cmt>
<desc>Frasnes-lez-Gosselies Chemin n°i2 </desc>
<link href="https://chemins.be/frasneslezgosselies/chemin/i2"/><trkseg>
<trkpt lat="50.556168" lon="4.421626"><time>2026-05-02T20:39:15Z</time></trkpt>
<trkpt lat="50.556346" lon="4.425858"><time>2026-05-02T20:49:15Z</time></trkpt>
<trkpt lat="50.558931" lon="4.432849"><time>2026-05-02T20:59:15Z</time></trkpt>
<trkpt lat="50.559703" lon="4.433809"><time>2026-05-02T21:09:15Z</time></trkpt>
</trkseg>
</trk>
<trk>
<name>hlvfgi3</name>
<cmt>v</cmt>
<desc>Frasnes-lez-Gosselies Sentier n°i3 </desc>
<link href="https://chemins.be/frasneslezgosselies/sentier/i3"/><trkseg>
<trkpt lat="50.537659" lon="4.448534"><time>2026-05-02T20:39:15Z</time></trkpt>
<trkpt lat="50.537597" lon="4.448196"><time>2026-05-02T20:49:15Z</time></trkpt>
</trkseg>
</trk>
<trk>
<name>hlvfgi4</name>
<cmt>v</cmt>
<desc>Frasnes-lez-Gosselies Chemin n°i4 </desc>
<link href="https://chemins.be/frasneslezgosselies/chemin/i4"/><trkseg>
<trkpt lat="50.543395" lon="4.457493"><time>2026-05-02T20:39:15Z</time></trkpt>
<trkpt lat="50.542740" lon="4.459596"><time>2026-05-02T20:49:15Z</time></trkpt>
<trkpt lat="50.542625" lon="4.459709"><time>2026-05-02T20:59:15Z</time></trkpt>
</trkseg>
</trk>
<trk>
<name>hlvfgi5</name>
<cmt>v</cmt>
<desc>Frasnes-lez-Gosselies Chemin n°i5 </desc>
<link href="https://chemins.be/frasneslezgosselies/chemin/i5"/><trkseg>
<trkpt lat="50.536630" lon="4.426020"><time>2026-05-02T20:39:15Z</time></trkpt>
<trkpt lat="50.538630" lon="4.431261"><time>2026-05-02T20:49:15Z</time></trkpt>
</trkseg>
</trk>
<trk>
<name>hlvfgL131A</name>
<cmt>v</cmt>
<desc>Frasnes-lez-Gosselies Chemin n°L131A Ligne 131</desc>
<link href="https://chemins.be/frasneslezgosselies/chemin/L131A"/><trkseg>
<trkpt lat="50.553066" lon="4.420606"><time>2026-05-02T20:39:15Z</time></trkpt>
<trkpt lat="50.549608" lon="4.433824"><time>2026-05-02T20:49:15Z</time></trkpt>
<trkpt lat="50.546913" lon="4.443852"><time>2026-05-02T20:59:15Z</time></trkpt>
<trkpt lat="50.544633" lon="4.451904"><time>2026-05-02T21:09:15Z</time></trkpt>
</trkseg></trk>
<trk>
<name>hlvfgL131A</name>
<cmt>s</cmt>
<desc>Frasnes-lez-Gosselies Chemin n°L131A Ligne 131</desc>
<link href="https://chemins.be/frasneslezgosselies/chemin/L131A"/><trkseg>
<trkpt lat="50.544633" lon="4.451904"><time>2026-05-02T21:09:15Z</time></trkpt>
<trkpt lat="50.543228" lon="4.457306"><time>2026-05-02T21:19:15Z</time></trkpt>
</trkseg></trk>
<trk>
<name>hlvfgL131A</name>
<cmt>d</cmt>
<desc>Frasnes-lez-Gosselies Chemin n°L131A Ligne 131</desc>
<link href="https://chemins.be/frasneslezgosselies/chemin/L131A"/><trkseg>
<trkpt lat="50.543228" lon="4.457306"><time>2026-05-02T21:19:15Z</time></trkpt>
<trkpt lat="50.542606" lon="4.459725"><time>2026-05-02T21:29:15Z</time></trkpt>
</trkseg></trk>
<trk>
<name>hlvfgL131A</name>
<cmt>v</cmt>
<desc>Frasnes-lez-Gosselies Chemin n°L131A Ligne 131</desc>
<link href="https://chemins.be/frasneslezgosselies/chemin/L131A"/><trkseg>
<trkpt lat="50.542606" lon="4.459725"><time>2026-05-02T21:29:15Z</time></trkpt>
<trkpt lat="50.541836" lon="4.462447"><time>2026-05-02T21:39:15Z</time></trkpt>
<trkpt lat="50.540774" lon="4.466442"><time>2026-05-02T21:49:15Z</time></trkpt>
</trkseg>
</trk>
<trk>
<name>hlvml11</name>
<cmt>v</cmt>
<desc>Mellet Chemin n°11 </desc>
<link href="https://chemins.be/mellet/chemin/11"/><trkseg>
<trkpt lat="50.501733" lon="4.456909"><time>2026-05-02T20:39:15Z</time></trkpt>
<trkpt lat="50.504262" lon="4.453295"><time>2026-05-02T20:49:15Z</time></trkpt>
<trkpt lat="50.506143" lon="4.451864"><time>2026-05-02T20:59:15Z</time></trkpt>
</trkseg>
</trk>
<trk>
<name>hlvml12</name>
<cmt>v</cmt>
<desc>Mellet Chemin n°12 Rue Monplaisir</desc>
<link href="https://chemins.be/mellet/chemin/12"/><trkseg>
<trkpt lat="50.501586" lon="4.454802"><time>2026-05-02T20:39:15Z</time></trkpt>
<trkpt lat="50.501508" lon="4.451151"><time>2026-05-02T20:49:15Z</time></trkpt>
<trkpt lat="50.501690" lon="4.448417"><time>2026-05-02T20:59:15Z</time></trkpt>
<trkpt lat="50.502113" lon="4.446980"><time>2026-05-02T21:09:15Z</time></trkpt>
<trkpt lat="50.502240" lon="4.445077"><time>2026-05-02T21:19:15Z</time></trkpt>
</trkseg>
</trk>
<trk>
<name>hlvml13</name>
<cmt>s</cmt>
<desc>Mellet Chemin n°13 </desc>
<link href="https://chemins.be/mellet/chemin/13"/><trkseg>
<trkpt lat="50.504278" lon="4.491021"><time>2026-05-02T20:39:15Z</time></trkpt>
<trkpt lat="50.503296" lon="4.492217"><time>2026-05-02T20:49:15Z</time></trkpt>
<trkpt lat="50.502569" lon="4.493212"><time>2026-05-02T20:59:15Z</time></trkpt>
<trkpt lat="50.502364" lon="4.494039"><time>2026-05-02T21:09:15Z</time></trkpt>
</trkseg></trk>
<trk>
<name>hlvml13</name>
<cmt>r</cmt>
<desc>Mellet Chemin n°13 </desc>
<link href="https://chemins.be/mellet/chemin/13"/><trkseg>
<trkpt lat="50.502364" lon="4.494039"><time>2026-05-02T21:09:15Z</time></trkpt>
<trkpt lat="50.502257" lon="4.497120"><time>2026-05-02T21:19:15Z</time></trkpt>
<trkpt lat="50.502139" lon="4.498444"><time>2026-05-02T21:29:15Z</time></trkpt>
<trkpt lat="50.501633" lon="4.500445"><time>2026-05-02T21:39:15Z</time></trkpt>
</trkseg></trk>
<trk>
<name>hlvml13</name>
<cmt>s</cmt>
<desc>Mellet Chemin n°13 </desc>
<link href="https://chemins.be/mellet/chemin/13"/><trkseg>
<trkpt lat="50.501633" lon="4.500445"><time>2026-05-02T21:39:15Z</time></trkpt>
<trkpt lat="50.501335" lon="4.501515"><time>2026-05-02T21:49:15Z</time></trkpt>
</trkseg>
</trk>
<trk>
<name>hlvml17</name>
<cmt>s</cmt>
<desc>Mellet Chemin n°17 </desc>
<link href="https://chemins.be/mellet/chemin/17"/><trkseg>
<trkpt lat="50.509803" lon="4.470253"><time>2026-05-02T20:39:15Z</time></trkpt>
<trkpt lat="50.510469" lon="4.467015"><time>2026-05-02T20:49:15Z</time></trkpt>
</trkseg>
</trk>
<trk>
<name>hlvml18</name>
<cmt>r</cmt>
<desc>Mellet Chemin n°18 Rue de Marbais</desc>
<link href="https://chemins.be/mellet/chemin/18"/><trkseg>
<trkpt lat="50.508267" lon="4.484815"><time>2026-05-02T20:39:15Z</time></trkpt>
<trkpt lat="50.509344" lon="4.486100"><time>2026-05-02T20:49:15Z</time></trkpt>
</trkseg></trk>
<trk>
<name>hlvml18</name>
<cmt>v</cmt>
<desc>Mellet Chemin n°18 Rue de Marbais</desc>
<link href="https://chemins.be/mellet/chemin/18"/><trkseg>
<trkpt lat="50.509344" lon="4.486100"><time>2026-05-02T20:49:15Z</time></trkpt>
<trkpt lat="50.510799" lon="4.488078"><time>2026-05-02T20:59:15Z</time></trkpt>
<trkpt lat="50.515888" lon="4.495606"><time>2026-05-02T21:09:15Z</time></trkpt>
</trkseg>
</trk>
<trk>
<name>hlvml19</name>
<cmt>s</cmt>
<desc>Mellet Chemin n°19 </desc>
<link href="https://chemins.be/mellet/chemin/19"/><trkseg>
<trkpt lat="50.508737" lon="4.482038"><time>2026-05-02T20:39:15Z</time></trkpt>
<trkpt lat="50.509727" lon="4.480575"><time>2026-05-02T20:49:15Z</time></trkpt>
</trkseg>
</trk>
<trk>
<name>hlvml2</name>
<cmt>r</cmt>
<desc>Mellet Chemin n°2 Rue des Combattants</desc>
<link href="https://chemins.be/mellet/chemin/2"/><trkseg>
<trkpt lat="50.507288" lon="4.492058"><time>2026-05-02T20:39:15Z</time></trkpt>
<trkpt lat="50.507779" lon="4.495612"><time>2026-05-02T20:49:15Z</time></trkpt>
<trkpt lat="50.508575" lon="4.499181"><time>2026-05-02T20:59:15Z</time></trkpt>
<trkpt lat="50.508849" lon="4.503637"><time>2026-05-02T21:09:15Z</time></trkpt>
</trkseg>
</trk>
<trk>
<name>hlvml24</name>
<cmt>d</cmt>
<desc>Mellet Chemin n°24 </desc>
<link href="https://chemins.be/mellet/chemin/24"/><trkseg>
<trkpt lat="50.502834" lon="4.478697"><time>2026-05-02T20:39:15Z</time></trkpt>
<trkpt lat="50.502841" lon="4.480347"><time>2026-05-02T20:49:15Z</time></trkpt>
<trkpt lat="50.502553" lon="4.480558"><time>2026-05-02T20:59:15Z</time></trkpt>
</trkseg>
</trk>
<trk>
<name>hlvml25</name>
<cmt>v</cmt>
<desc>Mellet Chemin n°25 </desc>
<link href="https://chemins.be/mellet/chemin/25"/><trkseg>
<trkpt lat="50.493961" lon="4.499765"><time>2026-05-02T20:39:15Z</time></trkpt>
<trkpt lat="50.491026" lon="4.496582"><time>2026-05-02T20:49:15Z</time></trkpt>
</trkseg>
</trk>
<trk>
<name>hlvml27</name>
<cmt>v</cmt>
<desc>Mellet Chemin n°27 </desc>
<link href="https://chemins.be/mellet/chemin/27"/><trkseg>
<trkpt lat="50.503007" lon="4.485492"><time>2026-05-02T20:39:15Z</time></trkpt>
<trkpt lat="50.502710" lon="4.485139"><time>2026-05-02T20:49:15Z</time></trkpt>
<trkpt lat="50.502514" lon="4.484718"><time>2026-05-02T20:59:15Z</time></trkpt>
<trkpt lat="50.502598" lon="4.484497"><time>2026-05-02T21:09:15Z</time></trkpt>
<trkpt lat="50.502846" lon="4.484181"><time>2026-05-02T21:19:15Z</time></trkpt>
</trkseg>
</trk>
<trk>
<name>hlvml28</name>
<cmt>v</cmt>
<desc>Mellet Chemin n°28 Rue Petit Chassart</desc>
<link href="https://chemins.be/mellet/chemin/28"/><trkseg>
<trkpt lat="50.504200" lon="4.487849"><time>2026-05-02T20:39:15Z</time></trkpt>
<trkpt lat="50.504478" lon="4.488456"><time>2026-05-02T20:49:15Z</time></trkpt>
<trkpt lat="50.504541" lon="4.488372"><time>2026-05-02T20:59:15Z</time></trkpt>
</trkseg></trk>
<trk>
<name>hlvml28</name>
<cmt>r</cmt>
<desc>Mellet Chemin n°28 Rue Petit Chassart</desc>
<link href="https://chemins.be/mellet/chemin/28"/><trkseg>
<trkpt lat="50.504541" lon="4.488372"><time>2026-05-02T20:59:15Z</time></trkpt>
<trkpt lat="50.504963" lon="4.489360"><time>2026-05-02T21:09:15Z</time></trkpt>
</trkseg>
</trk>
<trk>
<name>hlvml28bis</name>
<cmt>v</cmt>
<desc>Mellet Chemin n°28bis </desc>
<link href="https://chemins.be/mellet/chemin/28bis"/><trkseg>
<trkpt lat="50.504290" lon="4.487779"><time>2026-05-02T20:39:15Z</time></trkpt>
<trkpt lat="50.504550" lon="4.488301"><time>2026-05-02T20:49:15Z</time></trkpt>
</trkseg>
</trk>
<trk>
<name>hlvml30</name>
<cmt>v</cmt>
<desc>Mellet Chemin n°30 </desc>
<link href="https://chemins.be/mellet/chemin/30"/><trkseg>
<trkpt lat="50.505463" lon="4.469388"><time>2026-05-02T20:39:15Z</time></trkpt>
<trkpt lat="50.506071" lon="4.465506"><time>2026-05-02T20:49:15Z</time></trkpt>
<trkpt lat="50.505924" lon="4.463034"><time>2026-05-02T20:59:15Z</time></trkpt>
<trkpt lat="50.505798" lon="4.460410"><time>2026-05-02T21:09:15Z</time></trkpt>
</trkseg>
</trk>
<trk>
<name>hlvml31</name>
<cmt>q</cmt>
<desc>Mellet Chemin n°31 </desc>
<link href="https://chemins.be/mellet/chemin/31"/><trkseg>
<trkpt lat="50.503917" lon="4.453787"><time>2026-05-02T20:39:15Z</time></trkpt>
<trkpt lat="50.503207" lon="4.452642"><time>2026-05-02T20:49:15Z</time></trkpt>
<trkpt lat="50.502964" lon="4.450492"><time>2026-05-02T20:59:15Z</time></trkpt>
</trkseg>
</trk>
<trk>
<name>hlvml32</name>
<cmt>r</cmt>
<desc>Mellet Chemin n°32 Chemin du Bruart</desc>
<link href="https://chemins.be/mellet/chemin/32"/><trkseg>
<trkpt lat="50.509781" lon="4.480744"><time>2026-05-02T20:39:15Z</time></trkpt>
<trkpt lat="50.510374" lon="4.481535"><time>2026-05-02T20:49:15Z</time></trkpt>
<trkpt lat="50.511892" lon="4.482074"><time>2026-05-02T20:59:15Z</time></trkpt>
<trkpt lat="50.515766" lon="4.483367"><time>2026-05-02T21:09:15Z</time></trkpt>
</trkseg>
</trk>
<trk>
<name>hlvml33</name>
<cmt>s</cmt>
<desc>Mellet Chemin n°33 </desc>
<link href="https://chemins.be/mellet/chemin/33"/><trkseg>
<trkpt lat="50.496328" lon="4.501346"><time>2026-05-02T20:39:15Z</time></trkpt>
<trkpt lat="50.496445" lon="4.501501"><time>2026-05-02T20:49:15Z</time></trkpt>
<trkpt lat="50.497236" lon="4.501208"><time>2026-05-02T20:59:15Z</time></trkpt>
<trkpt lat="50.499496" lon="4.497845"><time>2026-05-02T21:09:15Z</time></trkpt>
<trkpt lat="50.501018" lon="4.496144"><time>2026-05-02T21:19:15Z</time></trkpt>
<trkpt lat="50.502344" lon="4.494012"><time>2026-05-02T21:29:15Z</time></trkpt>
</trkseg></trk>
<trk>
<name>hlvml33</name>
<cmt>r</cmt>
<desc>Mellet Chemin n°33 </desc>
<link href="https://chemins.be/mellet/chemin/33"/><trkseg>
<trkpt lat="50.502344" lon="4.494012"><time>2026-05-02T21:29:15Z</time></trkpt>
<trkpt lat="50.502436" lon="4.492182"><time>2026-05-02T21:39:15Z</time></trkpt>
<trkpt lat="50.502156" lon="4.490396"><time>2026-05-02T21:49:15Z</time></trkpt>
</trkseg>
</trk>
<trk>
<name>hlvml34</name>
<cmt>s</cmt>
<desc>Mellet Chemin n°34 </desc>
<link href="https://chemins.be/mellet/chemin/34"/><trkseg>
<trkpt lat="50.501336" lon="4.501465"><time>2026-05-02T20:39:15Z</time></trkpt>
<trkpt lat="50.500385" lon="4.505209"><time>2026-05-02T20:49:15Z</time></trkpt>
</trkseg></trk>
<trk>
<name>hlvml34</name>
<cmt>v</cmt>
<desc>Mellet Chemin n°34 </desc>
<link href="https://chemins.be/mellet/chemin/34"/><trkseg>
<trkpt lat="50.500385" lon="4.505209"><time>2026-05-02T20:49:15Z</time></trkpt>
<trkpt lat="50.501752" lon="4.509558"><time>2026-05-02T20:59:15Z</time></trkpt>
</trkseg>
</trk>
<trk>
<name>hlvml35</name>
<cmt>q</cmt>
<desc>Mellet Chemin n°35 </desc>
<link href="https://chemins.be/mellet/chemin/35"/><trkseg>
<trkpt lat="50.497306" lon="4.501235"><time>2026-05-02T20:39:15Z</time></trkpt>
<trkpt lat="50.501325" lon="4.501589"><time>2026-05-02T20:49:15Z</time></trkpt>
</trkseg>
</trk>
<trk>
<name>hlvml37</name>
<cmt>v</cmt>
<desc>Mellet Chemin n°37 </desc>
<link href="https://chemins.be/mellet/chemin/37"/><trkseg>
<trkpt lat="50.495938" lon="4.488948"><time>2026-05-02T20:39:15Z</time></trkpt>
<trkpt lat="50.495057" lon="4.487148"><time>2026-05-02T20:49:15Z</time></trkpt>
<trkpt lat="50.495085" lon="4.485818"><time>2026-05-02T20:59:15Z</time></trkpt>
</trkseg>
</trk>
<trk>
<name>hlvml37bis</name>
<cmt>q</cmt>
<desc>Mellet Sentier n°37bis </desc>
<link href="https://chemins.be/mellet/sentier/37bis"/><trkseg>
<trkpt lat="50.501603" lon="4.456987"><time>2026-05-02T20:39:15Z</time></trkpt>
<trkpt lat="50.500515" lon="4.456886"><time>2026-05-02T20:49:15Z</time></trkpt>
</trkseg>
</trk>
<trk>
<name>hlvml38</name>
<cmt>q</cmt>
<desc>Mellet Sentier n°38 Rue Monplaisir</desc>
<link href="https://chemins.be/mellet/sentier/38"/><trkseg>
<trkpt lat="50.504138" lon="4.446421"><time>2026-05-02T20:39:15Z</time></trkpt>
<trkpt lat="50.503034" lon="4.448767"><time>2026-05-02T20:49:15Z</time></trkpt>
<trkpt lat="50.501675" lon="4.453001"><time>2026-05-02T20:59:15Z</time></trkpt>
<trkpt lat="50.501627" lon="4.454870"><time>2026-05-02T21:09:15Z</time></trkpt>
<trkpt lat="50.500423" lon="4.457026"><time>2026-05-02T21:19:15Z</time></trkpt>
</trkseg></trk>
<trk>
<name>hlvml38</name>
<cmt>s</cmt>
<desc>Mellet Sentier n°38 Rue Monplaisir</desc>
<link href="https://chemins.be/mellet/sentier/38"/><trkseg>
<trkpt lat="50.500423" lon="4.457026"><time>2026-05-02T21:19:15Z</time></trkpt>
<trkpt lat="50.499311" lon="4.458003"><time>2026-05-02T21:29:15Z</time></trkpt>
</trkseg></trk>
<trk>
<name>hlvml38</name>
<cmt>q</cmt>
<desc>Mellet Sentier n°38 Rue Monplaisir</desc>
<link href="https://chemins.be/mellet/sentier/38"/><trkseg>
<trkpt lat="50.499311" lon="4.458003"><time>2026-05-02T21:29:15Z</time></trkpt>
<trkpt lat="50.498612" lon="4.458513"><time>2026-05-02T21:39:15Z</time></trkpt>
<trkpt lat="50.497731" lon="4.459822"><time>2026-05-02T21:49:15Z</time></trkpt>
</trkseg>
</trk>
<trk>
<name>hlvml39</name>
<cmt>q</cmt>
<desc>Mellet Sentier n°39 </desc>
<link href="https://chemins.be/mellet/sentier/39"/><trkseg>
<trkpt lat="50.497103" lon="4.460069"><time>2026-05-02T20:39:15Z</time></trkpt>
<trkpt lat="50.497182" lon="4.460889"><time>2026-05-02T20:49:15Z</time></trkpt>
<trkpt lat="50.497530" lon="4.461930"><time>2026-05-02T20:59:15Z</time></trkpt>
<trkpt lat="50.497861" lon="4.462365"><time>2026-05-02T21:09:15Z</time></trkpt>
</trkseg>
</trk>
<trk>
<name>hlvml4</name>
<cmt>r</cmt>
<desc>Mellet Chemin n°4 Chemin du Bruart</desc>
<link href="https://chemins.be/mellet/chemin/4"/><trkseg>
<trkpt lat="50.508452" lon="4.479458"><time>2026-05-02T20:39:15Z</time></trkpt>
<trkpt lat="50.509745" lon="4.480603"><time>2026-05-02T20:49:15Z</time></trkpt>
</trkseg></trk>
<trk>
<name>hlvml4</name>
<cmt>s</cmt>
<desc>Mellet Chemin n°4 Chemin du Bruart</desc>
<link href="https://chemins.be/mellet/chemin/4"/><trkseg>
<trkpt lat="50.509745" lon="4.480603"><time>2026-05-02T20:49:15Z</time></trkpt>
<trkpt lat="50.511293" lon="4.478774"><time>2026-05-02T20:59:15Z</time></trkpt>
</trkseg></trk>
<trk>
<name>hlvml4</name>
<cmt>v</cmt>
<desc>Mellet Chemin n°4 Chemin du Bruart</desc>
<link href="https://chemins.be/mellet/chemin/4"/><trkseg>
<trkpt lat="50.511293" lon="4.478774"><time>2026-05-02T20:59:15Z</time></trkpt>
<trkpt lat="50.512329" lon="4.477253"><time>2026-05-02T21:09:15Z</time></trkpt>
<trkpt lat="50.513463" lon="4.475550"><time>2026-05-02T21:19:15Z</time></trkpt>
</trkseg>
</trk>
<trk>
<name>hlvml40</name>
<cmt>d</cmt>
<desc>Mellet Sentier n°40 Rue du Mitan / r</desc>
<link href="https://chemins.be/mellet/sentier/40"/><trkseg>
<trkpt lat="50.497997" lon="4.460128"><time>2026-05-02T20:39:15Z</time></trkpt>
<trkpt lat="50.498229" lon="4.460965"><time>2026-05-02T20:49:15Z</time></trkpt>
<trkpt lat="50.498939" lon="4.462563"><time>2026-05-02T20:59:15Z</time></trkpt>
<trkpt lat="50.500024" lon="4.463529"><time>2026-05-02T21:09:15Z</time></trkpt>
</trkseg></trk>
<trk>
<name>hlvml40</name>
<cmt>r</cmt>
<desc>Mellet Sentier n°40 Rue du Mitan / r</desc>
<link href="https://chemins.be/mellet/sentier/40"/><trkseg>
<trkpt lat="50.500024" lon="4.463529"><time>2026-05-02T21:09:15Z</time></trkpt>
<trkpt lat="50.500666" lon="4.465138"><time>2026-05-02T21:19:15Z</time></trkpt>
</trkseg></trk>
<trk>
<name>hlvml40</name>
<cmt>s</cmt>
<desc>Mellet Sentier n°40 Rue du Mitan / r</desc>
<link href="https://chemins.be/mellet/sentier/40"/><trkseg>
<trkpt lat="50.500666" lon="4.465138"><time>2026-05-02T21:19:15Z</time></trkpt>
<trkpt lat="50.503210" lon="4.465925"><time>2026-05-02T21:29:15Z</time></trkpt>
</trkseg></trk>
<trk>
<name>hlvml40</name>
<cmt>r</cmt>
<desc>Mellet Sentier n°40 Rue du Mitan / r</desc>
<link href="https://chemins.be/mellet/sentier/40"/><trkseg>
<trkpt lat="50.503210" lon="4.465925"><time>2026-05-02T21:29:15Z</time></trkpt>
<trkpt lat="50.503458" lon="4.467022"><time>2026-05-02T21:39:15Z</time></trkpt>
</trkseg></trk>
<trk>
<name>hlvml40</name>
<cmt>d</cmt>
<desc>Mellet Sentier n°40 Rue du Mitan / r</desc>
<link href="https://chemins.be/mellet/sentier/40"/><trkseg>
<trkpt lat="50.503458" lon="4.467022"><time>2026-05-02T21:39:15Z</time></trkpt>
<trkpt lat="50.503795" lon="4.466786"><time>2026-05-02T21:49:15Z</time></trkpt>
<trkpt lat="50.504720" lon="4.468655"><time>2026-05-02T21:59:15Z</time></trkpt>
<trkpt lat="50.505270" lon="4.470095"><time>2026-05-02T22:09:15Z</time></trkpt>
</trkseg></trk>
<trk>
<name>hlvml40</name>
<cmt>s</cmt>
<desc>Mellet Sentier n°40 Rue du Mitan / r</desc>
<link href="https://chemins.be/mellet/sentier/40"/><trkseg>
<trkpt lat="50.505270" lon="4.470095"><time>2026-05-02T22:09:15Z</time></trkpt>
<trkpt lat="50.507010" lon="4.471285"><time>2026-05-02T22:19:15Z</time></trkpt>
</trkseg></trk>
<trk>
<name>hlvml40</name>
<cmt>r</cmt>
<desc>Mellet Sentier n°40 Rue du Mitan / r</desc>
<link href="https://chemins.be/mellet/sentier/40"/><trkseg>
<trkpt lat="50.507010" lon="4.471285"><time>2026-05-02T22:19:15Z</time></trkpt>
<trkpt lat="50.507010" lon="4.471275"><time>2026-05-02T22:29:15Z</time></trkpt>
<trkpt lat="50.508680" lon="4.470715"><time>2026-05-02T22:39:15Z</time></trkpt>
</trkseg></trk>
<trk>
<name>hlvml40</name>
<cmt>q</cmt>
<desc>Mellet Sentier n°40 Rue du Mitan / r</desc>
<link href="https://chemins.be/mellet/sentier/40"/><trkseg>
<trkpt lat="50.508680" lon="4.470715"><time>2026-05-02T22:39:15Z</time></trkpt>
<trkpt lat="50.509380" lon="4.471505"><time>2026-05-02T22:49:15Z</time></trkpt>
<trkpt lat="50.511900" lon="4.475755"><time>2026-05-02T22:59:15Z</time></trkpt>
<trkpt lat="50.512880" lon="4.476475"><time>2026-05-02T23:09:15Z</time></trkpt>
<trkpt lat="50.514590" lon="4.477465"><time>2026-05-02T23:19:15Z</time></trkpt>
</trkseg>
</trk>
<trk>
<name>hlvml41</name>
<cmt>v</cmt>
<desc>Mellet Sentier n°41 Rue du Mitan</desc>
<link href="https://chemins.be/mellet/sentier/41"/><trkseg>
<trkpt lat="50.501330" lon="4.460875"><time>2026-05-02T20:39:15Z</time></trkpt>
<trkpt lat="50.500620" lon="4.462355"><time>2026-05-02T20:49:15Z</time></trkpt>
<trkpt lat="50.499854" lon="4.462975"><time>2026-05-02T20:59:15Z</time></trkpt>
</trkseg></trk>
<trk>
<name>hlvml41</name>
<cmt>r</cmt>
<desc>Mellet Sentier n°41 Rue du Mitan</desc>
<link href="https://chemins.be/mellet/sentier/41"/><trkseg>
<trkpt lat="50.499854" lon="4.462975"><time>2026-05-02T20:59:15Z</time></trkpt>
<trkpt lat="50.499991" lon="4.463576"><time>2026-05-02T21:09:15Z</time></trkpt>
<trkpt lat="50.499158" lon="4.464263"><time>2026-05-02T21:19:15Z</time></trkpt>
</trkseg></trk>
<trk>
<name>hlvml41</name>
<cmt>v</cmt>
<desc>Mellet Sentier n°41 Rue du Mitan</desc>
<link href="https://chemins.be/mellet/sentier/41"/><trkseg>
<trkpt lat="50.499158" lon="4.464263"><time>2026-05-02T21:19:15Z</time></trkpt>
<trkpt lat="50.498831" lon="4.464477"><time>2026-05-02T21:29:15Z</time></trkpt>
</trkseg>
</trk>
<trk>
<name>hlvml42</name>
<cmt>q</cmt>
<desc>Mellet Sentier n°42 </desc>
<link href="https://chemins.be/mellet/sentier/42"/><trkseg>
<trkpt lat="50.506020" lon="4.466134"><time>2026-05-02T20:39:15Z</time></trkpt>
<trkpt lat="50.508549" lon="4.463988"><time>2026-05-02T20:49:15Z</time></trkpt>
<trkpt lat="50.509056" lon="4.463086"><time>2026-05-02T20:59:15Z</time></trkpt>
</trkseg>
</trk>
<trk>
<name>hlvml43</name>
<cmt>s</cmt>
<desc>Mellet Sentier n°43 </desc>
<link href="https://chemins.be/mellet/sentier/43"/><trkseg>
<trkpt lat="50.500542" lon="4.467402"><time>2026-05-02T20:39:15Z</time></trkpt>
<trkpt lat="50.499984" lon="4.468204"><time>2026-05-02T20:49:15Z</time></trkpt>
</trkseg>
</trk>
<trk>
<name>hlvml44</name>
<cmt>r</cmt>
<desc>Mellet Sentier n°44 Rue des Prés</desc>
<link href="https://chemins.be/mellet/sentier/44"/><trkseg>
<trkpt lat="50.503068" lon="4.478416"><time>2026-05-02T20:39:15Z</time></trkpt>
<trkpt lat="50.502735" lon="4.477894"><time>2026-05-02T20:49:15Z</time></trkpt>
<trkpt lat="50.502781" lon="4.477217"><time>2026-05-02T20:59:15Z</time></trkpt>
<trkpt lat="50.501903" lon="4.474438"><time>2026-05-02T21:09:15Z</time></trkpt>
<trkpt lat="50.500962" lon="4.470574"><time>2026-05-02T21:19:15Z</time></trkpt>
<trkpt lat="50.501124" lon="4.470419"><time>2026-05-02T21:29:15Z</time></trkpt>
</trkseg>
</trk>
<trk>
<name>hlvml45</name>
<cmt>v</cmt>
<desc>Mellet Sentier n°45 </desc>
<link href="https://chemins.be/mellet/sentier/45"/><trkseg>
<trkpt lat="50.503962" lon="4.473879"><time>2026-05-02T20:39:15Z</time></trkpt>
<trkpt lat="50.504132" lon="4.474387"><time>2026-05-02T20:49:15Z</time></trkpt>
</trkseg></trk>
<trk>
<name>hlvml45</name>
<cmt>q</cmt>
<desc>Mellet Sentier n°45 </desc>
<link href="https://chemins.be/mellet/sentier/45"/><trkseg>
<trkpt lat="50.504132" lon="4.474387"><time>2026-05-02T20:49:15Z</time></trkpt>
<trkpt lat="50.504365" lon="4.475078"><time>2026-05-02T20:59:15Z</time></trkpt>
<trkpt lat="50.504545" lon="4.475642"><time>2026-05-02T21:09:15Z</time></trkpt>
</trkseg>
</trk>
<trk>
<name>hlvml46</name>
<cmt>q</cmt>
<desc>Mellet Sentier n°46 </desc>
<link href="https://chemins.be/mellet/sentier/46"/><trkseg>
<trkpt lat="50.505157" lon="4.474460"><time>2026-05-02T20:39:15Z</time></trkpt>
<trkpt lat="50.504338" lon="4.475106"><time>2026-05-02T20:49:15Z</time></trkpt>
</trkseg>
</trk>
<trk>
<name>hlvml47</name>
<cmt>v</cmt>
<desc>Mellet Sentier n°47 </desc>
<link href="https://chemins.be/mellet/sentier/47"/><trkseg>
<trkpt lat="50.504329" lon="4.475825"><time>2026-05-02T20:39:15Z</time></trkpt>
<trkpt lat="50.504427" lon="4.476051"><time>2026-05-02T20:49:15Z</time></trkpt>
<trkpt lat="50.504715" lon="4.476164"><time>2026-05-02T20:59:15Z</time></trkpt>
</trkseg></trk>
<trk>
<name>hlvml47</name>
<cmt>q</cmt>
<desc>Mellet Sentier n°47 </desc>
<link href="https://chemins.be/mellet/sentier/47"/><trkseg>
<trkpt lat="50.504715" lon="4.476164"><time>2026-05-02T20:59:15Z</time></trkpt>
<trkpt lat="50.504975" lon="4.476574"><time>2026-05-02T21:09:15Z</time></trkpt>
</trkseg>
</trk>
<trk>
<name>hlvml48</name>
<cmt>v</cmt>
<desc>Mellet Sentier n°48 </desc>
<link href="https://chemins.be/mellet/sentier/48"/><trkseg>
<trkpt lat="50.504076" lon="4.476868"><time>2026-05-02T20:39:15Z</time></trkpt>
<trkpt lat="50.503653" lon="4.477233"><time>2026-05-02T20:49:15Z</time></trkpt>
<trkpt lat="50.503320" lon="4.477613"><time>2026-05-02T20:59:15Z</time></trkpt>
<trkpt lat="50.503266" lon="4.477853"><time>2026-05-02T21:09:15Z</time></trkpt>
<trkpt lat="50.503275" lon="4.478276"><time>2026-05-02T21:19:15Z</time></trkpt>
</trkseg>
</trk>
<trk>
<name>hlvml49</name>
<cmt>q</cmt>
<desc>Mellet Sentier n°49 </desc>
<link href="https://chemins.be/mellet/sentier/49"/><trkseg>
<trkpt lat="50.505301" lon="4.474333"><time>2026-05-02T20:39:15Z</time></trkpt>
<trkpt lat="50.505534" lon="4.475617"><time>2026-05-02T20:49:15Z</time></trkpt>
</trkseg></trk>
<trk>
<name>hlvml49</name>
<cmt>v</cmt>
<desc>Mellet Sentier n°49 </desc>
<link href="https://chemins.be/mellet/sentier/49"/><trkseg>
<trkpt lat="50.505534" lon="4.475617"><time>2026-05-02T20:49:15Z</time></trkpt>
<trkpt lat="50.505954" lon="4.477690"><time>2026-05-02T20:59:15Z</time></trkpt>
</trkseg></trk>
<trk>
<name>hlvml49</name>
<cmt>q</cmt>
<desc>Mellet Sentier n°49 </desc>
<link href="https://chemins.be/mellet/sentier/49"/><trkseg>
<trkpt lat="50.505954" lon="4.477690"><time>2026-05-02T20:59:15Z</time></trkpt>
<trkpt lat="50.506033" lon="4.480185"><time>2026-05-02T21:09:15Z</time></trkpt>
</trkseg>
</trk>
<trk>
<name>hlvml5</name>
<cmt>v</cmt>
<desc>Mellet Chemin n°5 </desc>
<link href="https://chemins.be/mellet/chemin/5"/><trkseg>
<trkpt lat="50.496207" lon="4.458555"><time>2026-05-02T20:39:15Z</time></trkpt>
<trkpt lat="50.495902" lon="4.458076"><time>2026-05-02T20:49:15Z</time></trkpt>
<trkpt lat="50.495929" lon="4.457568"><time>2026-05-02T20:59:15Z</time></trkpt>
<trkpt lat="50.495957" lon="4.456511"><time>2026-05-02T21:09:15Z</time></trkpt>
</trkseg>
</trk>
<trk>
<name>hlvml50</name>
<cmt>v</cmt>
<desc>Mellet Sentier n°50 Rue Léon Mercier / Rue des Trois Arbres</desc>
<link href="https://chemins.be/mellet/sentier/50"/><trkseg>
<trkpt lat="50.503951" lon="4.475994"><time>2026-05-02T20:39:15Z</time></trkpt>
<trkpt lat="50.504248" lon="4.475853"><time>2026-05-02T20:49:15Z</time></trkpt>
<trkpt lat="50.505120" lon="4.475517"><time>2026-05-02T20:59:15Z</time></trkpt>
<trkpt lat="50.505516" lon="4.475546"><time>2026-05-02T21:09:15Z</time></trkpt>
<trkpt lat="50.506478" lon="4.475309"><time>2026-05-02T21:19:15Z</time></trkpt>
<trkpt lat="50.506496" lon="4.474745"><time>2026-05-02T21:29:15Z</time></trkpt>
</trkseg></trk>
<trk>
<name>hlvml50</name>
<cmt>q</cmt>
<desc>Mellet Sentier n°50 Rue Léon Mercier / Rue des Trois Arbres</desc>
<link href="https://chemins.be/mellet/sentier/50"/><trkseg>
<trkpt lat="50.506496" lon="4.474745"><time>2026-05-02T21:29:15Z</time></trkpt>
<trkpt lat="50.507703" lon="4.472449"><time>2026-05-02T21:39:15Z</time></trkpt>
<trkpt lat="50.509215" lon="4.470592"><time>2026-05-02T21:49:15Z</time></trkpt>
<trkpt lat="50.509836" lon="4.470410"><time>2026-05-02T21:59:15Z</time></trkpt>
<trkpt lat="50.511741" lon="4.471528"><time>2026-05-02T22:09:15Z</time></trkpt>
</trkseg>
</trk>
<trk>
<name>hlvml51</name>
<cmt>v</cmt>
<desc>Mellet Sentier n°51 Rue Léon Mercier / Rue Léon Burny</desc>
<link href="https://chemins.be/mellet/sentier/51"/><trkseg>
<trkpt lat="50.505352" lon="4.477956"><time>2026-05-02T20:39:15Z</time></trkpt>
<trkpt lat="50.505936" lon="4.477676"><time>2026-05-02T20:49:15Z</time></trkpt>
<trkpt lat="50.506593" lon="4.477409"><time>2026-05-02T20:59:15Z</time></trkpt>
<trkpt lat="50.506745" lon="4.477945"><time>2026-05-02T21:09:15Z</time></trkpt>
</trkseg></trk>
<trk>
<name>hlvml51</name>
<cmt>q</cmt>
<desc>Mellet Sentier n°51 Rue Léon Mercier / Rue Léon Burny</desc>
<link href="https://chemins.be/mellet/sentier/51"/><trkseg>
<trkpt lat="50.506745" lon="4.477945"><time>2026-05-02T21:09:15Z</time></trkpt>
<trkpt lat="50.508353" lon="4.479401"><time>2026-05-02T21:19:15Z</time></trkpt>
</trkseg></trk>
<trk>
<name>hlvml51</name>
<cmt>r</cmt>
<desc>Mellet Sentier n°51 Rue Léon Mercier / Rue Léon Burny</desc>
<link href="https://chemins.be/mellet/sentier/51"/><trkseg>
<trkpt lat="50.508353" lon="4.479401"><time>2026-05-02T21:19:15Z</time></trkpt>
<trkpt lat="50.511176" lon="4.478802"><time>2026-05-02T21:29:15Z</time></trkpt>
</trkseg>
</trk>
<trk>
<name>hlvml51bis</name>
<cmt>q</cmt>
<desc>Mellet Sentier n°51bis </desc>
<link href="https://chemins.be/mellet/sentier/51bis"/><trkseg>
<trkpt lat="50.505757" lon="4.476872"><time>2026-05-02T20:39:15Z</time></trkpt>
<trkpt lat="50.506530" lon="4.477423"><time>2026-05-02T20:49:15Z</time></trkpt>
</trkseg>
</trk>
<trk>
<name>hlvml52</name>
<cmt>v</cmt>
<desc>Mellet Sentier n°52 Ruelle Gaspard</desc>
<link href="https://chemins.be/mellet/sentier/52"/><trkseg>
<trkpt lat="50.505544" lon="4.483469"><time>2026-05-02T20:39:15Z</time></trkpt>
<trkpt lat="50.505445" lon="4.483370"><time>2026-05-02T20:49:15Z</time></trkpt>
<trkpt lat="50.505374" lon="4.482918"><time>2026-05-02T20:59:15Z</time></trkpt>
<trkpt lat="50.505321" lon="4.481988"><time>2026-05-02T21:09:15Z</time></trkpt>
<trkpt lat="50.505267" lon="4.481706"><time>2026-05-02T21:19:15Z</time></trkpt>
<trkpt lat="50.505213" lon="4.481438"><time>2026-05-02T21:29:15Z</time></trkpt>
<trkpt lat="50.505178" lon="4.481297"><time>2026-05-02T21:39:15Z</time></trkpt>
<trkpt lat="50.505151" lon="4.481184"><time>2026-05-02T21:49:15Z</time></trkpt>
<trkpt lat="50.505097" lon="4.480958"><time>2026-05-02T21:59:15Z</time></trkpt>
<trkpt lat="50.505052" lon="4.480662"><time>2026-05-02T22:09:15Z</time></trkpt>
<trkpt lat="50.504891" lon="4.479844"><time>2026-05-02T22:19:15Z</time></trkpt>
</trkseg></trk>
<trk>
<name>hlvml52</name>
<cmt>r</cmt>
<desc>Mellet Sentier n°52 Ruelle Gaspard</desc>
<link href="https://chemins.be/mellet/sentier/52"/><trkseg>
<trkpt lat="50.504891" lon="4.479844"><time>2026-05-02T22:19:15Z</time></trkpt>
<trkpt lat="50.504614" lon="4.478617"><time>2026-05-02T22:29:15Z</time></trkpt>
</trkseg>
</trk>
<trk>
<name>hlvml52bis</name>
<cmt>v</cmt>
<desc>Mellet Sentier n°52bis Ruelle Gaspard</desc>
<link href="https://chemins.be/mellet/sentier/52bis"/><trkseg>
<trkpt lat="50.505932" lon="4.481806"><time>2026-05-02T20:39:15Z</time></trkpt>
<trkpt lat="50.505321" lon="4.482002"><time>2026-05-02T20:49:15Z</time></trkpt>
</trkseg>
</trk>
<trk>
<name>hlvml52quater</name>
<cmt>r</cmt>
<desc>Mellet Sentier n°52quater Chemin des Prés des Fostys</desc>
<link href="https://chemins.be/mellet/sentier/52quater"/><trkseg>
<trkpt lat="50.497338" lon="4.480996"><time>2026-05-02T20:39:15Z</time></trkpt>
<trkpt lat="50.497590" lon="4.481420"><time>2026-05-02T20:49:15Z</time></trkpt>
</trkseg>
</trk>
<trk>
<name>hlvml52ter</name>
<cmt>q</cmt>
<desc>Mellet Sentier n°52ter </desc>
<link href="https://chemins.be/mellet/sentier/52ter"/><trkseg>
<trkpt lat="50.505727" lon="4.479860"><time>2026-05-02T20:39:15Z</time></trkpt>
<trkpt lat="50.504981" lon="4.480197"><time>2026-05-02T20:49:15Z</time></trkpt>
</trkseg>
</trk>
<trk>
<name>hlvml53</name>
<cmt>v</cmt>
<desc>Mellet Sentier n°53 </desc>
<link href="https://chemins.be/mellet/sentier/53"/><trkseg>
<trkpt lat="50.504605" lon="4.478575"><time>2026-05-02T20:39:15Z</time></trkpt>
<trkpt lat="50.503588" lon="4.479460"><time>2026-05-02T20:49:15Z</time></trkpt>
</trkseg></trk>
<trk>
<name>hlvml53</name>
<cmt>q</cmt>
<desc>Mellet Sentier n°53 </desc>
<link href="https://chemins.be/mellet/sentier/53"/><trkseg>
<trkpt lat="50.503588" lon="4.479460"><time>2026-05-02T20:49:15Z</time></trkpt>
<trkpt lat="50.502886" lon="4.480333"><time>2026-05-02T20:59:15Z</time></trkpt>
</trkseg></trk>
<trk>
<name>hlvml53</name>
<cmt>v</cmt>
<desc>Mellet Sentier n°53 </desc>
<link href="https://chemins.be/mellet/sentier/53"/><trkseg>
<trkpt lat="50.502886" lon="4.480333"><time>2026-05-02T20:59:15Z</time></trkpt>
<trkpt lat="50.502544" lon="4.480614"><time>2026-05-02T21:09:15Z</time></trkpt>
</trkseg></trk>
<trk>
<name>hlvml53</name>
<cmt>q</cmt>
<desc>Mellet Sentier n°53 </desc>
<link href="https://chemins.be/mellet/sentier/53"/><trkseg>
<trkpt lat="50.502544" lon="4.480614"><time>2026-05-02T21:09:15Z</time></trkpt>
<trkpt lat="50.501968" lon="4.480993"><time>2026-05-02T21:19:15Z</time></trkpt>
<trkpt lat="50.500737" lon="4.480807"><time>2026-05-02T21:29:15Z</time></trkpt>
<trkpt lat="50.497841" lon="4.481364"><time>2026-05-02T21:39:15Z</time></trkpt>
<trkpt lat="50.497617" lon="4.481462"><time>2026-05-02T21:49:15Z</time></trkpt>
<trkpt lat="50.496951" lon="4.481799"><time>2026-05-02T21:59:15Z</time></trkpt>
</trkseg>
</trk>
<trk>
<name>hlvml54</name>
<cmt>d</cmt>
<desc>Mellet Sentier n°54 </desc>
<link href="https://chemins.be/mellet/sentier/54"/><trkseg>
<trkpt lat="50.504330" lon="4.483593"><time>2026-05-02T20:39:15Z</time></trkpt>
<trkpt lat="50.505383" lon="4.482947"><time>2026-05-02T20:49:15Z</time></trkpt>
</trkseg></trk>
<trk>
<name>hlvml54</name>
<cmt>q</cmt>
<desc>Mellet Sentier n°54 </desc>
<link href="https://chemins.be/mellet/sentier/54"/><trkseg>
<trkpt lat="50.505383" lon="4.482947"><time>2026-05-02T20:49:15Z</time></trkpt>
<trkpt lat="50.505904" lon="4.482708"><time>2026-05-02T20:59:15Z</time></trkpt>
</trkseg></trk>
<trk>
<name>hlvml54</name>
<cmt>v</cmt>
<desc>Mellet Sentier n°54 </desc>
<link href="https://chemins.be/mellet/sentier/54"/><trkseg>
<trkpt lat="50.505904" lon="4.482708"><time>2026-05-02T20:59:15Z</time></trkpt>
<trkpt lat="50.506192" lon="4.482864"><time>2026-05-02T21:09:15Z</time></trkpt>
<trkpt lat="50.506381" lon="4.482935"><time>2026-05-02T21:19:15Z</time></trkpt>
<trkpt lat="50.506677" lon="4.482964"><time>2026-05-02T21:29:15Z</time></trkpt>
<trkpt lat="50.506947" lon="4.482908"><time>2026-05-02T21:39:15Z</time></trkpt>
<trkpt lat="50.507298" lon="4.482923"><time>2026-05-02T21:49:15Z</time></trkpt>
<trkpt lat="50.507415" lon="4.482937"><time>2026-05-02T21:59:15Z</time></trkpt>
<trkpt lat="50.507486" lon="4.482938"><time>2026-05-02T22:09:15Z</time></trkpt>
<trkpt lat="50.507630" lon="4.482839"><time>2026-05-02T22:19:15Z</time></trkpt>
<trkpt lat="50.507828" lon="4.482973"><time>2026-05-02T22:29:15Z</time></trkpt>
<trkpt lat="50.508179" lon="4.483038"><time>2026-05-02T22:39:15Z</time></trkpt>
</trkseg></trk>
<trk>
<name>hlvml54</name>
<cmt>s</cmt>
<desc>Mellet Sentier n°54 </desc>
<link href="https://chemins.be/mellet/sentier/54"/><trkseg>
<trkpt lat="50.508179" lon="4.483038"><time>2026-05-02T22:39:15Z</time></trkpt>
<trkpt lat="50.508204" lon="4.484744"><time>2026-05-02T22:49:15Z</time></trkpt>
</trkseg>
</trk>
<trk>
<name>hlvml55</name>
<cmt>q</cmt>
<desc>Mellet Sentier n°55 Rue Auguste Sottiaux</desc>
<link href="https://chemins.be/mellet/sentier/55"/><trkseg>
<trkpt lat="50.504276" lon="4.483635"><time>2026-05-02T20:39:15Z</time></trkpt>
<trkpt lat="50.504024" lon="4.484015"><time>2026-05-02T20:49:15Z</time></trkpt>
<trkpt lat="50.503602" lon="4.483534"><time>2026-05-02T20:59:15Z</time></trkpt>
<trkpt lat="50.503277" lon="4.485366"><time>2026-05-02T21:09:15Z</time></trkpt>
</trkseg></trk>
<trk>
<name>hlvml55</name>
<cmt>r</cmt>
<desc>Mellet Sentier n°55 Rue Auguste Sottiaux</desc>
<link href="https://chemins.be/mellet/sentier/55"/><trkseg>
<trkpt lat="50.503277" lon="4.485366"><time>2026-05-02T21:09:15Z</time></trkpt>
<trkpt lat="50.502241" lon="4.486604"><time>2026-05-02T21:19:15Z</time></trkpt>
</trkseg></trk>
<trk>
<name>hlvml55</name>
<cmt>q</cmt>
<desc>Mellet Sentier n°55 Rue Auguste Sottiaux</desc>
<link href="https://chemins.be/mellet/sentier/55"/><trkseg>
<trkpt lat="50.502241" lon="4.486604"><time>2026-05-02T21:19:15Z</time></trkpt>
<trkpt lat="50.502187" lon="4.487421"><time>2026-05-02T21:29:15Z</time></trkpt>
<trkpt lat="50.501664" lon="4.488195"><time>2026-05-02T21:39:15Z</time></trkpt>
<trkpt lat="50.500881" lon="4.489067"><time>2026-05-02T21:49:15Z</time></trkpt>
<trkpt lat="50.500458" lon="4.489546"><time>2026-05-02T21:59:15Z</time></trkpt>
<trkpt lat="50.499935" lon="4.491244"><time>2026-05-02T22:09:15Z</time></trkpt>
<trkpt lat="50.499396" lon="4.493422"><time>2026-05-02T22:19:15Z</time></trkpt>
</trkseg>
</trk>
<trk>
<name>hlvml56</name>
<cmt>q</cmt>
<desc>Mellet Sentier n°56 </desc>
<link href="https://chemins.be/mellet/sentier/56"/><trkseg>
<trkpt lat="50.503651" lon="4.488426"><time>2026-05-02T20:39:15Z</time></trkpt>
<trkpt lat="50.503427" lon="4.487862"><time>2026-05-02T20:49:15Z</time></trkpt>
<trkpt lat="50.503005" lon="4.487691"><time>2026-05-02T20:59:15Z</time></trkpt>
<trkpt lat="50.502232" lon="4.486731"><time>2026-05-02T21:09:15Z</time></trkpt>
</trkseg>
</trk>
<trk>
<name>hlvml56bis</name>
<cmt>q</cmt>
<desc>Mellet Sentier n°56bis </desc>
<link href="https://chemins.be/mellet/sentier/56bis"/><trkseg>
<trkpt lat="50.502969" lon="4.487705"><time>2026-05-02T20:39:15Z</time></trkpt>
<trkpt lat="50.501709" lon="4.488125"><time>2026-05-02T20:49:15Z</time></trkpt>
</trkseg>
</trk>
<trk>
<name>hlvml57</name>
<cmt>v</cmt>
<desc>Mellet Sentier n°57 Sentier communal n°57 / Rue de Wayaux</desc>
<link href="https://chemins.be/mellet/sentier/57"/><trkseg>
<trkpt lat="50.502653" lon="4.485029"><time>2026-05-02T20:39:15Z</time></trkpt>
<trkpt lat="50.502480" lon="4.485222"><time>2026-05-02T20:49:15Z</time></trkpt>
<trkpt lat="50.502526" lon="4.485383"><time>2026-05-02T20:59:15Z</time></trkpt>
<trkpt lat="50.501946" lon="4.485842"><time>2026-05-02T21:09:15Z</time></trkpt>
</trkseg></trk>
<trk>
<name>hlvml57</name>
<cmt>r</cmt>
<desc>Mellet Sentier n°57 Sentier communal n°57 / Rue de Wayaux</desc>
<link href="https://chemins.be/mellet/sentier/57"/><trkseg>
<trkpt lat="50.501946" lon="4.485842"><time>2026-05-02T21:09:15Z</time></trkpt>
<trkpt lat="50.501981" lon="4.485997"><time>2026-05-02T21:19:15Z</time></trkpt>
</trkseg></trk>
<trk>
<name>hlvml57</name>
<cmt>s</cmt>
<desc>Mellet Sentier n°57 Sentier communal n°57 / Rue de Wayaux</desc>
<link href="https://chemins.be/mellet/sentier/57"/><trkseg>
<trkpt lat="50.501981" lon="4.485997"><time>2026-05-02T21:19:15Z</time></trkpt>
<trkpt lat="50.501010" lon="4.486897"><time>2026-05-02T21:29:15Z</time></trkpt>
<trkpt lat="50.500640" lon="4.487883"><time>2026-05-02T21:39:15Z</time></trkpt>
</trkseg>
</trk>
<trk>
<name>hlvml58</name>
<cmt>q</cmt>
<desc>Mellet Sentier n°58 </desc>
<link href="https://chemins.be/mellet/sentier/58"/><trkseg>
<trkpt lat="50.495640" lon="4.503112"><time>2026-05-02T20:39:15Z</time></trkpt>
<trkpt lat="50.496514" lon="4.505119"><time>2026-05-02T20:49:15Z</time></trkpt>
<trkpt lat="50.497237" lon="4.507758"><time>2026-05-02T20:59:15Z</time></trkpt>
<trkpt lat="50.497783" lon="4.510998"><time>2026-05-02T21:09:15Z</time></trkpt>
</trkseg>
</trk>
<trk>
<name>hlvml59</name>
<cmt>q</cmt>
<desc>Mellet Sentier n°59 </desc>
<link href="https://chemins.be/mellet/sentier/59"/><trkseg>
<trkpt lat="50.501291" lon="4.501525"><time>2026-05-02T20:39:15Z</time></trkpt>
<trkpt lat="50.502636" lon="4.502190"><time>2026-05-02T20:49:15Z</time></trkpt>
<trkpt lat="50.504887" lon="4.504014"><time>2026-05-02T20:59:15Z</time></trkpt>
<trkpt lat="50.507317" lon="4.505097"><time>2026-05-02T21:09:15Z</time></trkpt>
</trkseg>
</trk>
<trk>
<name>hlvml60</name>
<cmt>q</cmt>
<desc>Mellet Sentier n°60 </desc>
<link href="https://chemins.be/mellet/sentier/60"/><trkseg>
<trkpt lat="50.502322" lon="4.495400"><time>2026-05-02T20:39:15Z</time></trkpt>
<trkpt lat="50.502755" lon="4.494584"><time>2026-05-02T20:49:15Z</time></trkpt>
<trkpt lat="50.503341" lon="4.492400"><time>2026-05-02T20:59:15Z</time></trkpt>
</trkseg>
</trk>
<trk>
<name>hlvml61</name>
<cmt>q</cmt>
<desc>Mellet Sentier n°61 </desc>
<link href="https://chemins.be/mellet/sentier/61"/><trkseg>
<trkpt lat="50.504687" lon="4.486751"><time>2026-05-02T20:39:15Z</time></trkpt>
<trkpt lat="50.504167" lon="4.485227"><time>2026-05-02T20:49:15Z</time></trkpt>
<trkpt lat="50.504024" lon="4.484001"><time>2026-05-02T20:59:15Z</time></trkpt>
<trkpt lat="50.503611" lon="4.483534"><time>2026-05-02T21:09:15Z</time></trkpt>
</trkseg>
</trk>
<trk>
<name>hlvml62</name>
<cmt>r</cmt>
<desc>Mellet Chemin n°62 Rue des Combattants</desc>
<link href="https://chemins.be/mellet/chemin/62"/><trkseg>
<trkpt lat="50.506469" lon="4.486426"><time>2026-05-02T20:39:15Z</time></trkpt>
<trkpt lat="50.507037" lon="4.487303"><time>2026-05-02T20:49:15Z</time></trkpt>
</trkseg></trk>
<trk>
<name>hlvml62</name>
<cmt>q</cmt>
<desc>Mellet Chemin n°62 Rue des Combattants</desc>
<link href="https://chemins.be/mellet/chemin/62"/><trkseg>
<trkpt lat="50.507037" lon="4.487303"><time>2026-05-02T20:49:15Z</time></trkpt>
<trkpt lat="50.510541" lon="4.492754"><time>2026-05-02T20:59:15Z</time></trkpt>
<trkpt lat="50.513952" lon="4.497946"><time>2026-05-02T21:09:15Z</time></trkpt>
</trkseg>
</trk>
<trk>
<name>hlvml63</name>
<cmt>q</cmt>
<desc>Mellet Sentier n°63 </desc>
<link href="https://chemins.be/mellet/sentier/63"/><trkseg>
<trkpt lat="50.507076" lon="4.488030"><time>2026-05-02T20:39:15Z</time></trkpt>
<trkpt lat="50.507161" lon="4.487392"><time>2026-05-02T20:49:15Z</time></trkpt>
<trkpt lat="50.507089" lon="4.485051"><time>2026-05-02T20:59:15Z</time></trkpt>
</trkseg>
</trk>
<trk>
<name>hlvml65</name>
<cmt>d</cmt>
<desc>Mellet Sentier n°65 </desc>
<link href="https://chemins.be/mellet/sentier/65"/><trkseg>
<trkpt lat="50.515660" lon="4.483363"><time>2026-05-02T20:39:15Z</time></trkpt>
<trkpt lat="50.517088" lon="4.483271"><time>2026-05-02T20:49:15Z</time></trkpt>
</trkseg>
</trk>
<trk>
<name>hlvml65bis</name>
<cmt>v</cmt>
<desc>Mellet Sentier n°65bis </desc>
<link href="https://chemins.be/mellet/sentier/65bis"/><trkseg>
<trkpt lat="50.515678" lon="4.483333"><time>2026-05-02T20:39:15Z</time></trkpt>
<trkpt lat="50.515924" lon="4.483187"><time>2026-05-02T20:49:15Z</time></trkpt>
<trkpt lat="50.516131" lon="4.482861"><time>2026-05-02T20:59:15Z</time></trkpt>
<trkpt lat="50.516430" lon="4.482588"><time>2026-05-02T21:09:15Z</time></trkpt>
<trkpt lat="50.516704" lon="4.482444"><time>2026-05-02T21:19:15Z</time></trkpt>
</trkseg>
</trk>
<trk>
<name>hlvml67</name>
<cmt>q</cmt>
<desc>Mellet Sentier n°67 </desc>
<link href="https://chemins.be/mellet/sentier/67"/><trkseg>
<trkpt lat="50.505663" lon="4.471585"><time>2026-05-02T20:39:15Z</time></trkpt>
<trkpt lat="50.505601" lon="4.470781"><time>2026-05-02T20:49:15Z</time></trkpt>
<trkpt lat="50.505341" lon="4.470203"><time>2026-05-02T20:59:15Z</time></trkpt>
</trkseg>
</trk>
<trk>
<name>hlvml68</name>
<cmt>r</cmt>
<desc>Mellet Chemin n°68 Chemin de la Tuilerie</desc>
<link href="https://chemins.be/mellet/chemin/68"/><trkseg>
<trkpt lat="50.501541" lon="4.454844"><time>2026-05-02T20:39:15Z</time></trkpt>
<trkpt lat="50.500967" lon="4.452813"><time>2026-05-02T20:49:15Z</time></trkpt>
</trkseg></trk>
<trk>
<name>hlvml68</name>
<cmt>v</cmt>
<desc>Mellet Chemin n°68 Chemin de la Tuilerie</desc>
<link href="https://chemins.be/mellet/chemin/68"/><trkseg>
<trkpt lat="50.500967" lon="4.452813"><time>2026-05-02T20:49:15Z</time></trkpt>
<trkpt lat="50.500726" lon="4.451559"><time>2026-05-02T20:59:15Z</time></trkpt>
<trkpt lat="50.500304" lon="4.450360"><time>2026-05-02T21:09:15Z</time></trkpt>
<trkpt lat="50.500530" lon="4.448866"><time>2026-05-02T21:19:15Z</time></trkpt>
<trkpt lat="50.500449" lon="4.448457"><time>2026-05-02T21:29:15Z</time></trkpt>
</trkseg>
</trk>
<trk>
<name>hlvml8</name>
<cmt>v</cmt>
<desc>Mellet Chemin n°8 Chemin de l'Escavée / Rue des Trois Arbres</desc>
<link href="https://chemins.be/mellet/chemin/8"/><trkseg>
<trkpt lat="50.507310" lon="4.479610"><time>2026-05-02T20:39:15Z</time></trkpt>
<trkpt lat="50.507662" lon="4.478455"><time>2026-05-02T20:49:15Z</time></trkpt>
<trkpt lat="50.507663" lon="4.476947"><time>2026-05-02T20:59:15Z</time></trkpt>
<trkpt lat="50.509782" lon="4.470339"><time>2026-05-02T21:09:15Z</time></trkpt>
</trkseg></trk>
<trk>
<name>hlvml8</name>
<cmt>r</cmt>
<desc>Mellet Chemin n°8 Chemin de l'Escavée / Rue des Trois Arbres</desc>
<link href="https://chemins.be/mellet/chemin/8"/><trkseg>
<trkpt lat="50.509782" lon="4.470339"><time>2026-05-02T21:09:15Z</time></trkpt>
<trkpt lat="50.511132" lon="4.468411"><time>2026-05-02T21:19:15Z</time></trkpt>
</trkseg>
</trk>
<trk>
<name>hlvmli1</name>
<cmt>v</cmt>
<desc>Mellet Sentier n°i1 </desc>
<link href="https://chemins.be/mellet/sentier/i1"/><trkseg>
<trkpt lat="50.508088" lon="4.483235"><time>2026-05-02T20:39:15Z</time></trkpt>
<trkpt lat="50.508223" lon="4.483165"><time>2026-05-02T20:49:15Z</time></trkpt>
<trkpt lat="50.508340" lon="4.483109"><time>2026-05-02T20:59:15Z</time></trkpt>
<trkpt lat="50.508520" lon="4.483095"><time>2026-05-02T21:09:15Z</time></trkpt>
<trkpt lat="50.508682" lon="4.483180"><time>2026-05-02T21:19:15Z</time></trkpt>
<trkpt lat="50.509113" lon="4.483506"><time>2026-05-02T21:29:15Z</time></trkpt>
<trkpt lat="50.509544" lon="4.483845"><time>2026-05-02T21:39:15Z</time></trkpt>
<trkpt lat="50.509922" lon="4.484142"><time>2026-05-02T21:49:15Z</time></trkpt>
</trkseg>
</trk>
<trk>
<name>hlvmli10</name>
<cmt>r</cmt>
<desc>Mellet Chemin n°i10 </desc>
<link href="https://chemins.be/mellet/chemin/i10"/><trkseg>
<trkpt lat="50.507187" lon="4.490367"><time>2026-05-02T20:39:15Z</time></trkpt>
<trkpt lat="50.507876" lon="4.491246"><time>2026-05-02T20:49:15Z</time></trkpt>
<trkpt lat="50.510564" lon="4.496171"><time>2026-05-02T20:59:15Z</time></trkpt>
<trkpt lat="50.511138" lon="4.498263"><time>2026-05-02T21:09:15Z</time></trkpt>
<trkpt lat="50.511178" lon="4.498907"><time>2026-05-02T21:19:15Z</time></trkpt>
</trkseg>
</trk>
<trk>
<name>hlvmli2</name>
<cmt>r</cmt>
<desc>Mellet Chemin n°i2 Chemin des Prés des Fostys</desc>
<link href="https://chemins.be/mellet/chemin/i2"/><trkseg>
<trkpt lat="50.502807" lon="4.478754"><time>2026-05-02T20:39:15Z</time></trkpt>
<trkpt lat="50.500943" lon="4.481202"><time>2026-05-02T20:49:15Z</time></trkpt>
<trkpt lat="50.498846" lon="4.483452"><time>2026-05-02T20:59:15Z</time></trkpt>
<trkpt lat="50.497653" lon="4.481504"><time>2026-05-02T21:09:15Z</time></trkpt>
</trkseg>
</trk>
<trk>
<name>hlvmli3</name>
<cmt>v</cmt>
<desc>Mellet Sentier n°i3 </desc>
<link href="https://chemins.be/mellet/sentier/i3"/><trkseg>
<trkpt lat="50.507487" lon="4.481866"><time>2026-05-02T20:39:15Z</time></trkpt>
<trkpt lat="50.507694" lon="4.481895"><time>2026-05-02T20:49:15Z</time></trkpt>
<trkpt lat="50.507910" lon="4.481402"><time>2026-05-02T20:59:15Z</time></trkpt>
</trkseg>
</trk>
<trk>
<name>hlvmli4</name>
<cmt>r</cmt>
<desc>Mellet Chemin n°i4 Chemin du Gibet</desc>
<link href="https://chemins.be/mellet/chemin/i4"/><trkseg>
<trkpt lat="50.496787" lon="4.500459"><time>2026-05-02T20:39:15Z</time></trkpt>
<trkpt lat="50.497434" lon="4.501490"><time>2026-05-02T20:49:15Z</time></trkpt>
<trkpt lat="50.500405" lon="4.505177"><time>2026-05-02T20:59:15Z</time></trkpt>
</trkseg>
</trk>
<trk>
<name>hlvmli5</name>
<cmt>d</cmt>
<desc>Mellet Chemin n°i5 </desc>
<link href="https://chemins.be/mellet/chemin/i5"/><trkseg>
<trkpt lat="50.502535" lon="4.480557"><time>2026-05-02T20:39:15Z</time></trkpt>
<trkpt lat="50.502051" lon="4.479696"><time>2026-05-02T20:49:15Z</time></trkpt>
<trkpt lat="50.501467" lon="4.478525"><time>2026-05-02T20:59:15Z</time></trkpt>
<trkpt lat="50.501539" lon="4.478342"><time>2026-05-02T21:09:15Z</time></trkpt>
<trkpt lat="50.501019" lon="4.477086"><time>2026-05-02T21:19:15Z</time></trkpt>
<trkpt lat="50.500994" lon="4.474944"><time>2026-05-02T21:29:15Z</time></trkpt>
</trkseg>
</trk>
<trk>
<name>hlvmli6</name>
<cmt>r</cmt>
<desc>Mellet Chemin n°i6 </desc>
<link href="https://chemins.be/mellet/chemin/i6"/><trkseg>
<trkpt lat="50.501678" lon="4.500515"><time>2026-05-02T20:39:15Z</time></trkpt>
<trkpt lat="50.505213" lon="4.506996"><time>2026-05-02T20:49:15Z</time></trkpt>
</trkseg>
</trk>
<trk>
<name>hlvmli7</name>
<cmt>v</cmt>
<desc>Mellet Chemin n°i7 </desc>
<link href="https://chemins.be/mellet/chemin/i7"/><trkseg>
<trkpt lat="50.505951" lon="4.471614"><time>2026-05-02T20:39:15Z</time></trkpt>
<trkpt lat="50.505772" lon="4.470232"><time>2026-05-02T20:49:15Z</time></trkpt>
<trkpt lat="50.505440" lon="4.469442"><time>2026-05-02T20:59:15Z</time></trkpt>
<trkpt lat="50.504543" lon="4.467819"><time>2026-05-02T21:09:15Z</time></trkpt>
<trkpt lat="50.503277" lon="4.465772"><time>2026-05-02T21:19:15Z</time></trkpt>
</trkseg>
</trk>
<trk>
<name>hlvmli8</name>
<cmt>v</cmt>
<desc>Mellet Chemin n°i8 Chemin des Ecoliers</desc>
<link href="https://chemins.be/mellet/chemin/i8"/><trkseg>
<trkpt lat="50.500944" lon="4.470546"><time>2026-05-02T20:39:15Z</time></trkpt>
<trkpt lat="50.500603" lon="4.470263"><time>2026-05-02T20:49:15Z</time></trkpt>
<trkpt lat="50.500306" lon="4.470065"><time>2026-05-02T20:59:15Z</time></trkpt>
<trkpt lat="50.500054" lon="4.470093"><time>2026-05-02T21:09:15Z</time></trkpt>
<trkpt lat="50.499533" lon="4.470472"><time>2026-05-02T21:19:15Z</time></trkpt>
<trkpt lat="50.499326" lon="4.470711"><time>2026-05-02T21:29:15Z</time></trkpt>
<trkpt lat="50.499218" lon="4.470880"><time>2026-05-02T21:39:15Z</time></trkpt>
<trkpt lat="50.499155" lon="4.471106"><time>2026-05-02T21:49:15Z</time></trkpt>
<trkpt lat="50.499190" lon="4.471416"><time>2026-05-02T21:59:15Z</time></trkpt>
</trkseg>
</trk>
<trk>
<name>hlvmli9</name>
<cmt>r</cmt>
<desc>Mellet Chemin n°i9 </desc>
<link href="https://chemins.be/mellet/chemin/i9"/><trkseg>
<trkpt lat="50.502986" lon="4.470927"><time>2026-05-02T20:39:15Z</time></trkpt>
<trkpt lat="50.502577" lon="4.472236"><time>2026-05-02T20:49:15Z</time></trkpt>
</trkseg>
</trk>
<trk>
<name>hlvrv10</name>
<cmt>r</cmt>
<desc>Rèves Chemin n°10 Chemin du Chenois / Chemin des Hayettes</desc>
<link href="https://chemins.be/reves/chemin/10"/><trkseg>
<trkpt lat="50.543815" lon="4.395328"><time>2026-05-02T20:39:15Z</time></trkpt>
<trkpt lat="50.540741" lon="4.394762"><time>2026-05-02T20:49:15Z</time></trkpt>
<trkpt lat="50.539419" lon="4.394479"><time>2026-05-02T20:59:15Z</time></trkpt>
</trkseg></trk>
<trk>
<name>hlvrv10</name>
<cmt>q</cmt>
<desc>Rèves Chemin n°10 Chemin du Chenois / Chemin des Hayettes</desc>
<link href="https://chemins.be/reves/chemin/10"/><trkseg>
<trkpt lat="50.539419" lon="4.394479"><time>2026-05-02T20:59:15Z</time></trkpt>
<trkpt lat="50.538044" lon="4.395000"><time>2026-05-02T21:09:15Z</time></trkpt>
<trkpt lat="50.536192" lon="4.395140"><time>2026-05-02T21:19:15Z</time></trkpt>
<trkpt lat="50.534106" lon="4.394053"><time>2026-05-02T21:29:15Z</time></trkpt>
<trkpt lat="50.532263" lon="4.393840"><time>2026-05-02T21:39:15Z</time></trkpt>
</trkseg></trk>
<trk>
<name>hlvrv10</name>
<cmt>r</cmt>
<desc>Rèves Chemin n°10 Chemin du Chenois / Chemin des Hayettes</desc>
<link href="https://chemins.be/reves/chemin/10"/><trkseg>
<trkpt lat="50.532263" lon="4.393840"><time>2026-05-02T21:39:15Z</time></trkpt>
<trkpt lat="50.530510" lon="4.394939"><time>2026-05-02T21:49:15Z</time></trkpt>
<trkpt lat="50.529467" lon="4.396547"><time>2026-05-02T21:59:15Z</time></trkpt>
</trkseg>
</trk>
<trk>
<name>hlvrv11</name>
<cmt>v</cmt>
<desc>Rèves Chemin n°11 </desc>
<link href="https://chemins.be/reves/chemin/11"/><trkseg>
<trkpt lat="50.541534" lon="4.402007"><time>2026-05-02T20:39:15Z</time></trkpt>
<trkpt lat="50.541668" lon="4.400965"><time>2026-05-02T20:49:15Z</time></trkpt>
<trkpt lat="50.543031" lon="4.398977"><time>2026-05-02T20:59:15Z</time></trkpt>
<trkpt lat="50.543802" lon="4.395277"><time>2026-05-02T21:09:15Z</time></trkpt>
</trkseg></trk>
<trk>
<name>hlvrv11</name>
<cmt>r</cmt>
<desc>Rèves Chemin n°11 </desc>
<link href="https://chemins.be/reves/chemin/11"/><trkseg>
<trkpt lat="50.543802" lon="4.395277"><time>2026-05-02T21:09:15Z</time></trkpt>
<trkpt lat="50.544613" lon="4.394499"><time>2026-05-02T21:19:15Z</time></trkpt>
<trkpt lat="50.546684" lon="4.391308"><time>2026-05-02T21:29:15Z</time></trkpt>
<trkpt lat="50.549535" lon="4.386696"><time>2026-05-02T21:39:15Z</time></trkpt>
<trkpt lat="50.550848" lon="4.383437"><time>2026-05-02T21:49:15Z</time></trkpt>
<trkpt lat="50.552493" lon="4.380467"><time>2026-05-02T21:59:15Z</time></trkpt>
</trkseg>
</trk>
<trk>
<name>hlvrv15</name>
<cmt>r</cmt>
<desc>Rèves Chemin n°15 Rue Bati Notre Dame / Les-Bons-Villers - Pont-à-Celles</desc>
<link href="https://chemins.be/reves/chemin/15"/><trkseg>
<trkpt lat="50.523235" lon="4.400816"><time>2026-05-02T20:39:15Z</time></trkpt>
<trkpt lat="50.523496" lon="4.401563"><time>2026-05-02T20:49:15Z</time></trkpt>
<trkpt lat="50.523496" lon="4.402353"><time>2026-05-02T20:59:15Z</time></trkpt>
<trkpt lat="50.523855" lon="4.403355"><time>2026-05-02T21:09:15Z</time></trkpt>
<trkpt lat="50.524619" lon="4.404794"><time>2026-05-02T21:19:15Z</time></trkpt>
</trkseg>
</trk>
<trk>
<name>hlvrv16</name>
<cmt>v</cmt>
<desc>Rèves Chemin n°16 </desc>
<link href="https://chemins.be/reves/chemin/16"/><trkseg>
<trkpt lat="50.542293" lon="4.418535"><time>2026-05-02T20:39:15Z</time></trkpt>
<trkpt lat="50.542321" lon="4.418473"><time>2026-05-02T20:49:15Z</time></trkpt>
<trkpt lat="50.542621" lon="4.418223"><time>2026-05-02T20:59:15Z</time></trkpt>
<trkpt lat="50.543631" lon="4.418183"><time>2026-05-02T21:09:15Z</time></trkpt>
<trkpt lat="50.544351" lon="4.418513"><time>2026-05-02T21:19:15Z</time></trkpt>
<trkpt lat="50.544841" lon="4.418963"><time>2026-05-02T21:29:15Z</time></trkpt>
<trkpt lat="50.548191" lon="4.419013"><time>2026-05-02T21:39:15Z</time></trkpt>
<trkpt lat="50.549301" lon="4.419083"><time>2026-05-02T21:49:15Z</time></trkpt>
</trkseg>
</trk>
<trk>
<name>hlvrv17</name>
<cmt>v</cmt>
<desc>Rèves Chemin n°17 </desc>
<link href="https://chemins.be/reves/chemin/17"/><trkseg>
<trkpt lat="50.542359" lon="4.420707"><time>2026-05-02T20:39:15Z</time></trkpt>
<trkpt lat="50.542872" lon="4.419918"><time>2026-05-02T20:49:15Z</time></trkpt>
<trkpt lat="50.544311" lon="4.418551"><time>2026-05-02T20:59:15Z</time></trkpt>
</trkseg>
</trk>
<trk>
<name>hlvrv2</name>
<cmt>q</cmt>
<desc>Rèves Chemin n°2 </desc>
<link href="https://chemins.be/reves/chemin/2"/><trkseg>
<trkpt lat="50.551980" lon="4.386626"><time>2026-05-02T20:39:15Z</time></trkpt>
<trkpt lat="50.552277" lon="4.383900"><time>2026-05-02T20:49:15Z</time></trkpt>
</trkseg></trk>
<trk>
<name>hlvrv2</name>
<cmt>s</cmt>
<desc>Rèves Chemin n°2 </desc>
<link href="https://chemins.be/reves/chemin/2"/><trkseg>
<trkpt lat="50.552277" lon="4.383900"><time>2026-05-02T20:49:15Z</time></trkpt>
<trkpt lat="50.552484" lon="4.380488"><time>2026-05-02T20:59:15Z</time></trkpt>
<trkpt lat="50.554085" lon="4.376692"><time>2026-05-02T21:09:15Z</time></trkpt>
<trkpt lat="50.555164" lon="4.373743"><time>2026-05-02T21:19:15Z</time></trkpt>
</trkseg></trk>
<trk>
<name>hlvrv2</name>
<cmt>r</cmt>
<desc>Rèves Chemin n°2 </desc>
<link href="https://chemins.be/reves/chemin/2"/><trkseg>
<trkpt lat="50.555164" lon="4.373743"><time>2026-05-02T21:19:15Z</time></trkpt>
<trkpt lat="50.555326" lon="4.373122"><time>2026-05-02T21:29:15Z</time></trkpt>
</trkseg>
</trk>
<trk>
<name>hlvrv20</name>
<cmt>v</cmt>
<desc>Rèves Chemin n°20 </desc>
<link href="https://chemins.be/reves/chemin/20"/><trkseg>
<trkpt lat="50.527407" lon="4.401383"><time>2026-05-02T20:39:15Z</time></trkpt>
<trkpt lat="50.527622" lon="4.403047"><time>2026-05-02T20:49:15Z</time></trkpt>
<trkpt lat="50.527478" lon="4.404105"><time>2026-05-02T20:59:15Z</time></trkpt>
</trkseg>
</trk>
<trk>
<name>hlvrv21</name>
<cmt>v</cmt>
<desc>Rèves Chemin n°21 </desc>
<link href="https://chemins.be/reves/chemin/21"/><trkseg>
<trkpt lat="50.523936" lon="4.403425"><time>2026-05-02T20:39:15Z</time></trkpt>
<trkpt lat="50.525303" lon="4.402072"><time>2026-05-02T20:49:15Z</time></trkpt>
</trkseg>
</trk>
<trk>
<name>hlvrv23</name>
<cmt>s</cmt>
<desc>Rèves Chemin n°23 </desc>
<link href="https://chemins.be/reves/chemin/23"/><trkseg>
<trkpt lat="50.526321" lon="4.392709"><time>2026-05-02T20:39:15Z</time></trkpt>
<trkpt lat="50.526806" lon="4.392667"><time>2026-05-02T20:49:15Z</time></trkpt>
<trkpt lat="50.528101" lon="4.393485"><time>2026-05-02T20:59:15Z</time></trkpt>
<trkpt lat="50.528865" lon="4.393598"><time>2026-05-02T21:09:15Z</time></trkpt>
</trkseg>
</trk>
<trk>
<name>hlvrv28</name>
<cmt>q</cmt>
<desc>Rèves Chemin n°28 </desc>
<link href="https://chemins.be/reves/chemin/28"/><trkseg>
<trkpt lat="50.551467" lon="4.387698"><time>2026-05-02T20:39:15Z</time></trkpt>
<trkpt lat="50.549409" lon="4.388389"><time>2026-05-02T20:49:15Z</time></trkpt>
<trkpt lat="50.548465" lon="4.388431"><time>2026-05-02T20:59:15Z</time></trkpt>
</trkseg>
</trk>
<trk>
<name>hlvrv29</name>
<cmt>r</cmt>
<desc>Rèves Chemin n°29 Chemin des Hayettes</desc>
<link href="https://chemins.be/reves/chemin/29"/><trkseg>
<trkpt lat="50.532353" lon="4.393586"><time>2026-05-02T20:39:15Z</time></trkpt>
<trkpt lat="50.534385" lon="4.391133"><time>2026-05-02T20:49:15Z</time></trkpt>
<trkpt lat="50.535447" lon="4.389060"><time>2026-05-02T20:59:15Z</time></trkpt>
<trkpt lat="50.536213" lon="4.388180"><time>2026-05-02T21:09:15Z</time></trkpt>
</trkseg></trk>
<trk>
<name>hlvrv29</name>
<cmt>q</cmt>
<desc>Rèves Chemin n°29 Chemin des Hayettes</desc>
<link href="https://chemins.be/reves/chemin/29"/><trkseg>
<trkpt lat="50.536213" lon="4.388180"><time>2026-05-02T21:09:15Z</time></trkpt>
<trkpt lat="50.536554" lon="4.384711"><time>2026-05-02T21:19:15Z</time></trkpt>
</trkseg>
</trk>
<trk>
<name>hlvrv30</name>
<cmt>q</cmt>
<desc>Rèves Chemin n°30 </desc>
<link href="https://chemins.be/reves/chemin/30"/><trkseg>
<trkpt lat="50.559351" lon="4.377167"><time>2026-05-02T20:39:15Z</time></trkpt>
<trkpt lat="50.558165" lon="4.378658"><time>2026-05-02T20:49:15Z</time></trkpt>
<trkpt lat="50.557893" lon="4.378663"><time>2026-05-02T20:59:15Z</time></trkpt>
</trkseg></trk>
<trk>
<name>hlvrv30</name>
<cmt>v</cmt>
<desc>Rèves Chemin n°30 </desc>
<link href="https://chemins.be/reves/chemin/30"/><trkseg>
<trkpt lat="50.557893" lon="4.378663"><time>2026-05-02T20:59:15Z</time></trkpt>
<trkpt lat="50.557591" lon="4.378231"><time>2026-05-02T21:09:15Z</time></trkpt>
<trkpt lat="50.556108" lon="4.375578"><time>2026-05-02T21:19:15Z</time></trkpt>
<trkpt lat="50.555263" lon="4.375084"><time>2026-05-02T21:29:15Z</time></trkpt>
<trkpt lat="50.554741" lon="4.375084"><time>2026-05-02T21:39:15Z</time></trkpt>
</trkseg>
</trk>
<trk>
<name>hlvrv31</name>
<cmt>s</cmt>
<desc>Rèves Chemin n°31 </desc>
<link href="https://chemins.be/reves/chemin/31"/><trkseg>
<trkpt lat="50.555756" lon="4.418027"><time>2026-05-02T20:39:15Z</time></trkpt>
<trkpt lat="50.557446" lon="4.417873"><time>2026-05-02T20:49:15Z</time></trkpt>
<trkpt lat="50.558472" lon="4.415955"><time>2026-05-02T20:59:15Z</time></trkpt>
<trkpt lat="50.558418" lon="4.413669"><time>2026-05-02T21:09:15Z</time></trkpt>
</trkseg></trk>
<trk>
<name>hlvrv31</name>
<cmt>r</cmt>
<desc>Rèves Chemin n°31 </desc>
<link href="https://chemins.be/reves/chemin/31"/><trkseg>
<trkpt lat="50.558418" lon="4.413669"><time>2026-05-02T21:09:15Z</time></trkpt>
<trkpt lat="50.558392" lon="4.411792"><time>2026-05-02T21:19:15Z</time></trkpt>
<trkpt lat="50.558502" lon="4.407826"><time>2026-05-02T21:29:15Z</time></trkpt>
</trkseg></trk>
<trk>
<name>hlvrv31</name>
<cmt>v</cmt>
<desc>Rèves Chemin n°31 </desc>
<link href="https://chemins.be/reves/chemin/31"/><trkseg>
<trkpt lat="50.558502" lon="4.407826"><time>2026-05-02T21:29:15Z</time></trkpt>
<trkpt lat="50.558637" lon="4.405780"><time>2026-05-02T21:39:15Z</time></trkpt>
<trkpt lat="50.559006" lon="4.404185"><time>2026-05-02T21:49:15Z</time></trkpt>
</trkseg></trk>
<trk>
<name>hlvrv31</name>
<cmt>q</cmt>
<desc>Rèves Chemin n°31 </desc>
<link href="https://chemins.be/reves/chemin/31"/><trkseg>
<trkpt lat="50.559006" lon="4.404185"><time>2026-05-02T21:49:15Z</time></trkpt>
<trkpt lat="50.558072" lon="4.401009"><time>2026-05-02T21:59:15Z</time></trkpt>
<trkpt lat="50.556320" lon="4.398143"><time>2026-05-02T22:09:15Z</time></trkpt>
</trkseg></trk>
<trk>
<name>hlvrv31</name>
<cmt>v</cmt>
<desc>Rèves Chemin n°31 </desc>
<link href="https://chemins.be/reves/chemin/31"/><trkseg>
<trkpt lat="50.556320" lon="4.398143"><time>2026-05-02T22:09:15Z</time></trkpt>
<trkpt lat="50.554810" lon="4.395320"><time>2026-05-02T22:19:15Z</time></trkpt>
<trkpt lat="50.553651" lon="4.393654"><time>2026-05-02T22:29:15Z</time></trkpt>
</trkseg>
</trk>
<trk>
<name>hlvrv34</name>
<cmt>r</cmt>
<desc>Rèves Chemin n°34 Ruelle du Coucou</desc>
<link href="https://chemins.be/reves/chemin/34"/><trkseg>
<trkpt lat="50.548957" lon="4.396713"><time>2026-05-02T20:39:15Z</time></trkpt>
<trkpt lat="50.549478" lon="4.397814"><time>2026-05-02T20:49:15Z</time></trkpt>
</trkseg>
</trk>
<trk>
<name>hlvrv36</name>
<cmt>s</cmt>
<desc>Rèves Chemin n°36 </desc>
<link href="https://chemins.be/reves/chemin/36"/><trkseg>
<trkpt lat="50.529682" lon="4.426966"><time>2026-05-02T20:39:15Z</time></trkpt>
<trkpt lat="50.528418" lon="4.426873"><time>2026-05-02T20:49:15Z</time></trkpt>
</trkseg>
</trk>
<trk>
<name>hlvrv37</name>
<cmt>r</cmt>
<desc>Rèves Chemin n°37 </desc>
<link href="https://chemins.be/reves/chemin/37"/><trkseg>
<trkpt lat="50.546621" lon="4.391195"><time>2026-05-02T20:39:15Z</time></trkpt>
<trkpt lat="50.546441" lon="4.390532"><time>2026-05-02T20:49:15Z</time></trkpt>
<trkpt lat="50.545921" lon="4.387329"><time>2026-05-02T20:59:15Z</time></trkpt>
<trkpt lat="50.545453" lon="4.385918"><time>2026-05-02T21:09:15Z</time></trkpt>
</trkseg>
</trk>
<trk>
<name>hlvrv38</name>
<cmt>v</cmt>
<desc>Rèves Chemin n°38 Rue de la Cure</desc>
<link href="https://chemins.be/reves/chemin/38"/><trkseg>
<trkpt lat="50.538639" lon="4.416076"><time>2026-05-02T20:39:15Z</time></trkpt>
<trkpt lat="50.538469" lon="4.415737"><time>2026-05-02T20:49:15Z</time></trkpt>
<trkpt lat="50.538685" lon="4.415216"><time>2026-05-02T20:59:15Z</time></trkpt>
</trkseg>
</trk>
<trk>
<name>hlvrv39</name>
<cmt>r</cmt>
<desc>Rèves Chemin n°39 Impasse Lannois</desc>
<link href="https://chemins.be/reves/chemin/39"/><trkseg>
<trkpt lat="50.529276" lon="4.397088"><time>2026-05-02T20:39:15Z</time></trkpt>
<trkpt lat="50.530017" lon="4.396788"><time>2026-05-02T20:49:15Z</time></trkpt>
<trkpt lat="50.530456" lon="4.397069"><time>2026-05-02T20:59:15Z</time></trkpt>
</trkseg></trk>
<trk>
<name>hlvrv39</name>
<cmt>v</cmt>
<desc>Rèves Chemin n°39 Impasse Lannois</desc>
<link href="https://chemins.be/reves/chemin/39"/><trkseg>
<trkpt lat="50.530456" lon="4.397069"><time>2026-05-02T20:59:15Z</time></trkpt>
<trkpt lat="50.530627" lon="4.397197"><time>2026-05-02T21:09:15Z</time></trkpt>
</trkseg>
</trk>
<trk>
<name>hlvrv4</name>
<cmt>r</cmt>
<desc>Rèves Chemin n°4 </desc>
<link href="https://chemins.be/reves/chemin/4"/><trkseg>
<trkpt lat="50.533004" lon="4.418830"><time>2026-05-02T20:39:15Z</time></trkpt>
<trkpt lat="50.532506" lon="4.418057"><time>2026-05-02T20:49:15Z</time></trkpt>
<trkpt lat="50.532090" lon="4.416912"><time>2026-05-02T20:59:15Z</time></trkpt>
</trkseg></trk>
<trk>
<name>hlvrv4</name>
<cmt>v</cmt>
<desc>Rèves Chemin n°4 </desc>
<link href="https://chemins.be/reves/chemin/4"/><trkseg>
<trkpt lat="50.532090" lon="4.416912"><time>2026-05-02T20:59:15Z</time></trkpt>
<trkpt lat="50.530767" lon="4.418221"><time>2026-05-02T21:09:15Z</time></trkpt>
</trkseg>
</trk>
<trk>
<name>hlvrv41</name>
<cmt>q</cmt>
<desc>Rèves Sentier n°41 </desc>
<link href="https://chemins.be/reves/sentier/41"/><trkseg>
<trkpt lat="50.550478" lon="4.391508"><time>2026-05-02T20:39:15Z</time></trkpt>
<trkpt lat="50.551080" lon="4.392213"><time>2026-05-02T20:49:15Z</time></trkpt>
<trkpt lat="50.551233" lon="4.392199"><time>2026-05-02T20:59:15Z</time></trkpt>
<trkpt lat="50.552096" lon="4.393244"><time>2026-05-02T21:09:15Z</time></trkpt>
<trkpt lat="50.552446" lon="4.393202"><time>2026-05-02T21:19:15Z</time></trkpt>
<trkpt lat="50.552536" lon="4.393724"><time>2026-05-02T21:29:15Z</time></trkpt>
</trkseg>
</trk>
<trk>
<name>hlvrv42</name>
<cmt>v</cmt>
<desc>Rèves Sentier n°42 Rue de Bruxelles</desc>
<link href="https://chemins.be/reves/sentier/42"/><trkseg>
<trkpt lat="50.546997" lon="4.399069"><time>2026-05-02T20:39:15Z</time></trkpt>
<trkpt lat="50.547689" lon="4.400155"><time>2026-05-02T20:49:15Z</time></trkpt>
<trkpt lat="50.548156" lon="4.401539"><time>2026-05-02T20:59:15Z</time></trkpt>
<trkpt lat="50.549809" lon="4.405378"><time>2026-05-02T21:09:15Z</time></trkpt>
</trkseg>
</trk>
<trk>
<name>hlvrv44</name>
<cmt>q</cmt>
<desc>Rèves Sentier n°44 </desc>
<link href="https://chemins.be/reves/sentier/44"/><trkseg>
<trkpt lat="50.548435" lon="4.399422"><time>2026-05-02T20:39:15Z</time></trkpt>
<trkpt lat="50.549307" lon="4.400890"><time>2026-05-02T20:49:15Z</time></trkpt>
<trkpt lat="50.549999" lon="4.402288"><time>2026-05-02T20:59:15Z</time></trkpt>
<trkpt lat="50.551418" lon="4.404970"><time>2026-05-02T21:09:15Z</time></trkpt>
<trkpt lat="50.553342" lon="4.405832"><time>2026-05-02T21:19:15Z</time></trkpt>
</trkseg>
</trk>
<trk>
<name>hlvrv45</name>
<cmt>q</cmt>
<desc>Rèves Sentier n°45 </desc>
<link href="https://chemins.be/reves/sentier/45"/><trkseg>
<trkpt lat="50.547718" lon="4.400266"><time>2026-05-02T20:39:15Z</time></trkpt>
<trkpt lat="50.549304" lon="4.400905"><time>2026-05-02T20:49:15Z</time></trkpt>
</trkseg>
</trk>
<trk>
<name>hlvrv46</name>
<cmt>q</cmt>
<desc>Rèves Sentier n°46 </desc>
<link href="https://chemins.be/reves/sentier/46"/><trkseg>
<trkpt lat="50.546231" lon="4.401322"><time>2026-05-02T20:39:15Z</time></trkpt>
<trkpt lat="50.547761" lon="4.400252"><time>2026-05-02T20:49:15Z</time></trkpt>
</trkseg></trk>
<trk>
<name>hlvrv46</name>
<cmt>v</cmt>
<desc>Rèves Sentier n°46 </desc>
<link href="https://chemins.be/reves/sentier/46"/><trkseg>
<trkpt lat="50.547761" lon="4.400252"><time>2026-05-02T20:49:15Z</time></trkpt>
<trkpt lat="50.547761" lon="4.400252"><time>2026-05-02T20:59:15Z</time></trkpt>
<trkpt lat="50.548701" lon="4.399052"><time>2026-05-02T21:09:15Z</time></trkpt>
<trkpt lat="50.548711" lon="4.399042"><time>2026-05-02T21:19:15Z</time></trkpt>
<trkpt lat="50.549461" lon="4.397732"><time>2026-05-02T21:29:15Z</time></trkpt>
<trkpt lat="50.549831" lon="4.397592"><time>2026-05-02T21:39:15Z</time></trkpt>
<trkpt lat="50.549831" lon="4.397592"><time>2026-05-02T21:49:15Z</time></trkpt>
<trkpt lat="50.550221" lon="4.397242"><time>2026-05-02T21:59:15Z</time></trkpt>
</trkseg></trk>
<trk>
<name>hlvrv46</name>
<cmt>q</cmt>
<desc>Rèves Sentier n°46 </desc>
<link href="https://chemins.be/reves/sentier/46"/><trkseg>
<trkpt lat="50.550221" lon="4.397242"><time>2026-05-02T21:59:15Z</time></trkpt>
<trkpt lat="50.550801" lon="4.396772"><time>2026-05-02T22:09:15Z</time></trkpt>
<trkpt lat="50.552641" lon="4.395302"><time>2026-05-02T22:19:15Z</time></trkpt>
<trkpt lat="50.553341" lon="4.393482"><time>2026-05-02T22:29:15Z</time></trkpt>
</trkseg>
</trk>
<trk>
<name>hlvrv47</name>
<cmt>q</cmt>
<desc>Rèves Sentier n°47 </desc>
<link href="https://chemins.be/reves/sentier/47"/><trkseg>
<trkpt lat="50.548430" lon="4.397256"><time>2026-05-02T20:39:15Z</time></trkpt>
<trkpt lat="50.549101" lon="4.398322"><time>2026-05-02T20:49:15Z</time></trkpt>
</trkseg>
</trk>
<trk>
<name>hlvrv48</name>
<cmt>v</cmt>
<desc>Rèves Sentier n°48 Ruelle du Grand Car</desc>
<link href="https://chemins.be/reves/sentier/48"/><trkseg>
<trkpt lat="50.548597" lon="4.399055"><time>2026-05-02T20:39:15Z</time></trkpt>
<trkpt lat="50.548211" lon="4.398576"><time>2026-05-02T20:49:15Z</time></trkpt>
</trkseg></trk>
<trk>
<name>hlvrv48</name>
<cmt>b</cmt>
<desc>Rèves Sentier n°48 Ruelle du Grand Car</desc>
<link href="https://chemins.be/reves/sentier/48"/><trkseg>
<trkpt lat="50.548211" lon="4.398576"><time>2026-05-02T20:49:15Z</time></trkpt>
<trkpt lat="50.547905" lon="4.398307"><time>2026-05-02T20:59:15Z</time></trkpt>
</trkseg>
</trk>
<trk>
<name>hlvrv49</name>
<cmt>r</cmt>
<desc>Rèves Sentier n°49 Ruelle Lenoir</desc>
<link href="https://chemins.be/reves/sentier/49"/><trkseg>
<trkpt lat="50.549380" lon="4.396389"><time>2026-05-02T20:39:15Z</time></trkpt>
<trkpt lat="50.549667" lon="4.397067"><time>2026-05-02T20:49:15Z</time></trkpt>
</trkseg></trk>
<trk>
<name>hlvrv49</name>
<cmt>v</cmt>
<desc>Rèves Sentier n°49 Ruelle Lenoir</desc>
<link href="https://chemins.be/reves/sentier/49"/><trkseg>
<trkpt lat="50.549667" lon="4.397067"><time>2026-05-02T20:49:15Z</time></trkpt>
<trkpt lat="50.549838" lon="4.397575"><time>2026-05-02T20:59:15Z</time></trkpt>
<trkpt lat="50.550215" lon="4.398661"><time>2026-05-02T21:09:15Z</time></trkpt>
</trkseg>
</trk>
<trk>
<name>hlvrv5</name>
<cmt>v</cmt>
<desc>Rèves Chemin n°5 Rue de la Station</desc>
<link href="https://chemins.be/reves/chemin/5"/><trkseg>
<trkpt lat="50.550251" lon="4.398732"><time>2026-05-02T20:39:15Z</time></trkpt>
<trkpt lat="50.549955" lon="4.399339"><time>2026-05-02T20:49:15Z</time></trkpt>
<trkpt lat="50.549909" lon="4.401526"><time>2026-05-02T20:59:15Z</time></trkpt>
<trkpt lat="50.550007" lon="4.402993"><time>2026-05-02T21:09:15Z</time></trkpt>
<trkpt lat="50.549854" lon="4.405095"><time>2026-05-02T21:19:15Z</time></trkpt>
<trkpt lat="50.550033" lon="4.407565"><time>2026-05-02T21:29:15Z</time></trkpt>
</trkseg></trk>
<trk>
<name>hlvrv5</name>
<cmt>r</cmt>
<desc>Rèves Chemin n°5 Rue de la Station</desc>
<link href="https://chemins.be/reves/chemin/5"/><trkseg>
<trkpt lat="50.550033" lon="4.407565"><time>2026-05-02T21:29:15Z</time></trkpt>
<trkpt lat="50.549943" lon="4.408736"><time>2026-05-02T21:39:15Z</time></trkpt>
<trkpt lat="50.549538" lon="4.410189"><time>2026-05-02T21:49:15Z</time></trkpt>
<trkpt lat="50.549483" lon="4.411769"><time>2026-05-02T21:59:15Z</time></trkpt>
</trkseg>
</trk>
<trk>
<name>hlvrv50</name>
<cmt>q</cmt>
<desc>Rèves Sentier n°50 </desc>
<link href="https://chemins.be/reves/sentier/50"/><trkseg>
<trkpt lat="50.549910" lon="4.397518"><time>2026-05-02T20:39:15Z</time></trkpt>
<trkpt lat="50.550593" lon="4.397603"><time>2026-05-02T20:49:15Z</time></trkpt>
<trkpt lat="50.555906" lon="4.400161"><time>2026-05-02T20:59:15Z</time></trkpt>
<trkpt lat="50.557955" lon="4.401066"><time>2026-05-02T21:09:15Z</time></trkpt>
<trkpt lat="50.559879" lon="4.401886"><time>2026-05-02T21:19:15Z</time></trkpt>
<trkpt lat="50.561173" lon="4.402239"><time>2026-05-02T21:29:15Z</time></trkpt>
<trkpt lat="50.562693" lon="4.402607"><time>2026-05-02T21:39:15Z</time></trkpt>
</trkseg>
</trk>
<trk>
<name>hlvrv53</name>
<cmt>q</cmt>
<desc>Rèves Sentier n°53 </desc>
<link href="https://chemins.be/reves/sentier/53"/><trkseg>
<trkpt lat="50.550215" lon="4.391957"><time>2026-05-02T20:39:15Z</time></trkpt>
<trkpt lat="50.549779" lon="4.390519"><time>2026-05-02T20:49:15Z</time></trkpt>
<trkpt lat="50.547795" lon="4.389500"><time>2026-05-02T20:59:15Z</time></trkpt>
</trkseg>
</trk>
<trk>
<name>hlvrv54</name>
<cmt>q</cmt>
<desc>Rèves Sentier n°54 </desc>
<link href="https://chemins.be/reves/sentier/54"/><trkseg>
<trkpt lat="50.554901" lon="4.419070"><time>2026-05-02T20:39:15Z</time></trkpt>
<trkpt lat="50.555619" lon="4.420962"><time>2026-05-02T20:49:15Z</time></trkpt>
</trkseg>
</trk>
<trk>
<name>hlvrv55</name>
<cmt>q</cmt>
<desc>Rèves Sentier n°55 </desc>
<link href="https://chemins.be/reves/sentier/55"/><trkseg>
<trkpt lat="50.546972" lon="4.396374"><time>2026-05-02T20:39:15Z</time></trkpt>
<trkpt lat="50.546192" lon="4.394406"><time>2026-05-02T20:49:15Z</time></trkpt>
<trkpt lat="50.546355" lon="4.393209"><time>2026-05-02T20:59:15Z</time></trkpt>
<trkpt lat="50.546659" lon="4.391385"><time>2026-05-02T21:09:15Z</time></trkpt>
</trkseg>
</trk>
<trk>
<name>hlvrv56</name>
<cmt>q</cmt>
<desc>Rèves Sentier n°56 </desc>
<link href="https://chemins.be/reves/sentier/56"/><trkseg>
<trkpt lat="50.546683" lon="4.391388"><time>2026-05-02T20:39:15Z</time></trkpt>
<trkpt lat="50.547270" lon="4.393116"><time>2026-05-02T20:49:15Z</time></trkpt>
</trkseg>
</trk>
<trk>
<name>hlvrv57</name>
<cmt>q</cmt>
<desc>Rèves Sentier n°57 </desc>
<link href="https://chemins.be/reves/sentier/57"/><trkseg>
<trkpt lat="50.545999" lon="4.397086"><time>2026-05-02T20:39:15Z</time></trkpt>
<trkpt lat="50.545267" lon="4.399139"><time>2026-05-02T20:49:15Z</time></trkpt>
<trkpt lat="50.544718" lon="4.399589"><time>2026-05-02T20:59:15Z</time></trkpt>
<trkpt lat="50.543144" lon="4.400377"><time>2026-05-02T21:09:15Z</time></trkpt>
<trkpt lat="50.542452" lon="4.401268"><time>2026-05-02T21:19:15Z</time></trkpt>
<trkpt lat="50.541726" lon="4.402501"><time>2026-05-02T21:29:15Z</time></trkpt>
<trkpt lat="50.541731" lon="4.403416"><time>2026-05-02T21:39:15Z</time></trkpt>
<trkpt lat="50.541531" lon="4.404933"><time>2026-05-02T21:49:15Z</time></trkpt>
</trkseg>
</trk>
<trk>
<name>hlvrv58</name>
<cmt>q</cmt>
<desc>Rèves Sentier n°58 </desc>
<link href="https://chemins.be/reves/sentier/58"/><trkseg>
<trkpt lat="50.544712" lon="4.403885"><time>2026-05-02T20:39:15Z</time></trkpt>
<trkpt lat="50.544924" lon="4.400849"><time>2026-05-02T20:49:15Z</time></trkpt>
<trkpt lat="50.545224" lon="4.399293"><time>2026-05-02T20:59:15Z</time></trkpt>
</trkseg>
</trk>
<trk>
<name>hlvrv59</name>
<cmt>q</cmt>
<desc>Rèves Sentier n°59 </desc>
<link href="https://chemins.be/reves/sentier/59"/><trkseg>
<trkpt lat="50.557832" lon="4.390538"><time>2026-05-02T20:39:15Z</time></trkpt>
<trkpt lat="50.558839" lon="4.388915"><time>2026-05-02T20:49:15Z</time></trkpt>
<trkpt lat="50.561249" lon="4.385896"><time>2026-05-02T20:59:15Z</time></trkpt>
</trkseg></trk>
<trk>
<name>hlvrv59</name>
<cmt>v</cmt>
<desc>Rèves Sentier n°59 </desc>
<link href="https://chemins.be/reves/sentier/59"/><trkseg>
<trkpt lat="50.561249" lon="4.385896"><time>2026-05-02T20:59:15Z</time></trkpt>
<trkpt lat="50.563641" lon="4.382043"><time>2026-05-02T21:09:15Z</time></trkpt>
</trkseg>
</trk>
<trk>
<name>hlvrv6</name>
<cmt>v</cmt>
<desc>Rèves Chemin n°6 Rue Wattimez Haut / Chemin de Fontaine-l'Evêque / Rue Luthéal</desc>
<link href="https://chemins.be/reves/chemin/6"/><trkseg>
<trkpt lat="50.559458" lon="4.421855"><time>2026-05-02T20:39:15Z</time></trkpt>
<trkpt lat="50.556284" lon="4.421527"><time>2026-05-02T20:49:15Z</time></trkpt>
</trkseg></trk>
<trk>
<name>hlvrv6</name>
<cmt>r</cmt>
<desc>Rèves Chemin n°6 Rue Wattimez Haut / Chemin de Fontaine-l'Evêque / Rue Luthéal</desc>
<link href="https://chemins.be/reves/chemin/6"/><trkseg>
<trkpt lat="50.556284" lon="4.421527"><time>2026-05-02T20:49:15Z</time></trkpt>
<trkpt lat="50.554136" lon="4.420777"><time>2026-05-02T20:59:15Z</time></trkpt>
<trkpt lat="50.551296" lon="4.418191"><time>2026-05-02T21:09:15Z</time></trkpt>
<trkpt lat="50.549508" lon="4.416581"><time>2026-05-02T21:19:15Z</time></trkpt>
</trkseg></trk>
<trk>
<name>hlvrv6</name>
<cmt>v</cmt>
<desc>Rèves Chemin n°6 Rue Wattimez Haut / Chemin de Fontaine-l'Evêque / Rue Luthéal</desc>
<link href="https://chemins.be/reves/chemin/6"/><trkseg>
<trkpt lat="50.549508" lon="4.416581"><time>2026-05-02T21:19:15Z</time></trkpt>
<trkpt lat="50.548088" lon="4.414985"><time>2026-05-02T21:29:15Z</time></trkpt>
<trkpt lat="50.547325" lon="4.413856"><time>2026-05-02T21:39:15Z</time></trkpt>
<trkpt lat="50.546039" lon="4.412599"><time>2026-05-02T21:49:15Z</time></trkpt>
<trkpt lat="50.545427" lon="4.411824"><time>2026-05-02T21:59:15Z</time></trkpt>
<trkpt lat="50.542958" lon="4.407065"><time>2026-05-02T22:09:15Z</time></trkpt>
<trkpt lat="50.541529" lon="4.405075"><time>2026-05-02T22:19:15Z</time></trkpt>
<trkpt lat="50.541584" lon="4.402183"><time>2026-05-02T22:29:15Z</time></trkpt>
<trkpt lat="50.539446" lon="4.394578"><time>2026-05-02T22:39:15Z</time></trkpt>
<trkpt lat="50.538440" lon="4.392235"><time>2026-05-02T22:49:15Z</time></trkpt>
<trkpt lat="50.537110" lon="4.390006"><time>2026-05-02T22:59:15Z</time></trkpt>
<trkpt lat="50.536714" lon="4.389498"><time>2026-05-02T23:09:15Z</time></trkpt>
<trkpt lat="50.535375" lon="4.389074"><time>2026-05-02T23:19:15Z</time></trkpt>
</trkseg></trk>
<trk>
<name>hlvrv6</name>
<cmt>r</cmt>
<desc>Rèves Chemin n°6 Rue Wattimez Haut / Chemin de Fontaine-l'Evêque / Rue Luthéal</desc>
<link href="https://chemins.be/reves/chemin/6"/><trkseg>
<trkpt lat="50.535375" lon="4.389074"><time>2026-05-02T23:19:15Z</time></trkpt>
<trkpt lat="50.534027" lon="4.385970"><time>2026-05-02T23:29:15Z</time></trkpt>
</trkseg>
</trk>
<trk>
<name>hlvrv60</name>
<cmt>v</cmt>
<desc>Rèves Sentier n°60 </desc>
<link href="https://chemins.be/reves/sentier/60"/><trkseg>
<trkpt lat="50.561859" lon="4.390709"><time>2026-05-02T20:39:15Z</time></trkpt>
<trkpt lat="50.561788" lon="4.389424"><time>2026-05-02T20:49:15Z</time></trkpt>
<trkpt lat="50.561635" lon="4.386785"><time>2026-05-02T20:59:15Z</time></trkpt>
<trkpt lat="50.561276" lon="4.385853"><time>2026-05-02T21:09:15Z</time></trkpt>
</trkseg>
</trk>
<trk>
<name>hlvrv61</name>
<cmt>q</cmt>
<desc>Rèves Sentier n°61 </desc>
<link href="https://chemins.be/reves/sentier/61"/><trkseg>
<trkpt lat="50.555254" lon="4.373588"><time>2026-05-02T20:39:15Z</time></trkpt>
<trkpt lat="50.555820" lon="4.373489"><time>2026-05-02T20:49:15Z</time></trkpt>
</trkseg>
</trk>
<trk>
<name>hlvrv62</name>
<cmt>q</cmt>
<desc>Rèves Sentier n°62 </desc>
<link href="https://chemins.be/reves/sentier/62"/><trkseg>
<trkpt lat="50.552261" lon="4.412901"><time>2026-05-02T20:39:15Z</time></trkpt>
<trkpt lat="50.551397" lon="4.413831"><time>2026-05-02T20:49:15Z</time></trkpt>
</trkseg>
</trk>
<trk>
<name>hlvrv63</name>
<cmt>q</cmt>
<desc>Rèves Sentier n°63 </desc>
<link href="https://chemins.be/reves/sentier/63"/><trkseg>
<trkpt lat="50.550157" lon="4.412165"><time>2026-05-02T20:39:15Z</time></trkpt>
<trkpt lat="50.550417" lon="4.413097"><time>2026-05-02T20:49:15Z</time></trkpt>
<trkpt lat="50.552341" lon="4.414213"><time>2026-05-02T20:59:15Z</time></trkpt>
<trkpt lat="50.553580" lon="4.417206"><time>2026-05-02T21:09:15Z</time></trkpt>
<trkpt lat="50.554057" lon="4.417630"><time>2026-05-02T21:19:15Z</time></trkpt>
<trkpt lat="50.554883" lon="4.419042"><time>2026-05-02T21:29:15Z</time></trkpt>
<trkpt lat="50.555701" lon="4.419254"><time>2026-05-02T21:39:15Z</time></trkpt>
<trkpt lat="50.557723" lon="4.419907"><time>2026-05-02T21:49:15Z</time></trkpt>
<trkpt lat="50.559710" lon="4.421630"><time>2026-05-02T21:59:15Z</time></trkpt>
</trkseg>
</trk>
<trk>
<name>hlvrv65</name>
<cmt>q</cmt>
<desc>Rèves Sentier n°65 </desc>
<link href="https://chemins.be/reves/sentier/65"/><trkseg>
<trkpt lat="50.551406" lon="4.413718"><time>2026-05-02T20:39:15Z</time></trkpt>
<trkpt lat="50.551074" lon="4.412886"><time>2026-05-02T20:49:15Z</time></trkpt>
<trkpt lat="50.551227" lon="4.412603"><time>2026-05-02T20:59:15Z</time></trkpt>
<trkpt lat="50.550750" lon="4.412123"><time>2026-05-02T21:09:15Z</time></trkpt>
<trkpt lat="50.549951" lon="4.409145"><time>2026-05-02T21:19:15Z</time></trkpt>
</trkseg>
</trk>
<trk>
<name>hlvrv66</name>
<cmt>q</cmt>
<desc>Rèves Sentier n°66 </desc>
<link href="https://chemins.be/reves/sentier/66"/><trkseg>
<trkpt lat="50.549390" lon="4.418852"><time>2026-05-02T20:39:15Z</time></trkpt>
<trkpt lat="50.550470" lon="4.417358"><time>2026-05-02T20:49:15Z</time></trkpt>
</trkseg>
</trk>
<trk>
<name>hlvrv67</name>
<cmt>q</cmt>
<desc>Rèves Sentier n°67 </desc>
<link href="https://chemins.be/reves/sentier/67"/><trkseg>
<trkpt lat="50.549267" lon="4.413053"><time>2026-05-02T20:39:15Z</time></trkpt>
<trkpt lat="50.547819" lon="4.414491"><time>2026-05-02T20:49:15Z</time></trkpt>
</trkseg></trk>
<trk>
<name>hlvrv67</name>
<cmt>v</cmt>
<desc>Rèves Sentier n°67 </desc>
<link href="https://chemins.be/reves/sentier/67"/><trkseg>
<trkpt lat="50.547819" lon="4.414491"><time>2026-05-02T20:49:15Z</time></trkpt>
<trkpt lat="50.544374" lon="4.418452"><time>2026-05-02T20:59:15Z</time></trkpt>
<trkpt lat="50.543655" lon="4.418141"><time>2026-05-02T21:09:15Z</time></trkpt>
<trkpt lat="50.542594" lon="4.418182"><time>2026-05-02T21:19:15Z</time></trkpt>
</trkseg></trk>
<trk>
<name>hlvrv67</name>
<cmt>q</cmt>
<desc>Rèves Sentier n°67 </desc>
<link href="https://chemins.be/reves/sentier/67"/><trkseg>
<trkpt lat="50.542594" lon="4.418182"><time>2026-05-02T21:19:15Z</time></trkpt>
<trkpt lat="50.540419" lon="4.416896"><time>2026-05-02T21:29:15Z</time></trkpt>
<trkpt lat="50.539233" lon="4.414624"><time>2026-05-02T21:39:15Z</time></trkpt>
</trkseg>
</trk>
<trk>
<name>hlvrv68</name>
<cmt>q</cmt>
<desc>Rèves Sentier n°68 </desc>
<link href="https://chemins.be/reves/sentier/68"/><trkseg>
<trkpt lat="50.544359" lon="4.409634"><time>2026-05-02T20:39:15Z</time></trkpt>
<trkpt lat="50.547254" lon="4.410060"><time>2026-05-02T20:49:15Z</time></trkpt>
<trkpt lat="50.548278" lon="4.411486"><time>2026-05-02T20:59:15Z</time></trkpt>
</trkseg>
</trk>
<trk>
<name>hlvrv69</name>
<cmt>q</cmt>
<desc>Rèves Sentier n°69 </desc>
<link href="https://chemins.be/reves/sentier/69"/><trkseg>
<trkpt lat="50.542176" lon="4.422784"><time>2026-05-02T20:39:15Z</time></trkpt>
<trkpt lat="50.543441" lon="4.424333"><time>2026-05-02T20:49:15Z</time></trkpt>
<trkpt lat="50.543931" lon="4.424803"><time>2026-05-02T20:59:15Z</time></trkpt>
<trkpt lat="50.543951" lon="4.425623"><time>2026-05-02T21:09:15Z</time></trkpt>
</trkseg>
</trk>
<trk>
<name>hlvrv7</name>
<cmt>r</cmt>
<desc>Rèves Chemin n°7 Rue Revioux</desc>
<link href="https://chemins.be/reves/chemin/7"/><trkseg>
<trkpt lat="50.535903" lon="4.398807"><time>2026-05-02T20:39:15Z</time></trkpt>
<trkpt lat="50.536407" lon="4.398131"><time>2026-05-02T20:49:15Z</time></trkpt>
<trkpt lat="50.537774" lon="4.396298"><time>2026-05-02T20:59:15Z</time></trkpt>
<trkpt lat="50.539383" lon="4.394422"><time>2026-05-02T21:09:15Z</time></trkpt>
</trkseg></trk>
<trk>
<name>hlvrv7</name>
<cmt>v</cmt>
<desc>Rèves Chemin n°7 Rue Revioux</desc>
<link href="https://chemins.be/reves/chemin/7"/><trkseg>
<trkpt lat="50.539383" lon="4.394422"><time>2026-05-02T21:09:15Z</time></trkpt>
<trkpt lat="50.538512" lon="4.392405"><time>2026-05-02T21:19:15Z</time></trkpt>
<trkpt lat="50.538287" lon="4.390980"><time>2026-05-02T21:29:15Z</time></trkpt>
<trkpt lat="50.537398" lon="4.387791"><time>2026-05-02T21:39:15Z</time></trkpt>
<trkpt lat="50.537047" lon="4.386014"><time>2026-05-02T21:49:15Z</time></trkpt>
<trkpt lat="50.536652" lon="4.384659"><time>2026-05-02T21:59:15Z</time></trkpt>
</trkseg>
</trk>
<trk>
<name>hlvrv70</name>
<cmt>q</cmt>
<desc>Rèves Sentier n°70 </desc>
<link href="https://chemins.be/reves/sentier/70"/><trkseg>
<trkpt lat="50.541145" lon="4.421242"><time>2026-05-02T20:39:15Z</time></trkpt>
<trkpt lat="50.541694" lon="4.420326"><time>2026-05-02T20:49:15Z</time></trkpt>
<trkpt lat="50.541182" lon="4.419352"><time>2026-05-02T20:59:15Z</time></trkpt>
<trkpt lat="50.540913" lon="4.418688"><time>2026-05-02T21:09:15Z</time></trkpt>
<trkpt lat="50.540967" lon="4.418561"><time>2026-05-02T21:19:15Z</time></trkpt>
<trkpt lat="50.540652" lon="4.417870"><time>2026-05-02T21:29:15Z</time></trkpt>
<trkpt lat="50.540509" lon="4.416910"><time>2026-05-02T21:39:15Z</time></trkpt>
</trkseg>
</trk>
<trk>
<name>hlvrv71</name>
<cmt>v</cmt>
<desc>Rèves Sentier n°71 </desc>
<link href="https://chemins.be/reves/sentier/71"/><trkseg>
<trkpt lat="50.537885" lon="4.414129"><time>2026-05-02T20:39:15Z</time></trkpt>
<trkpt lat="50.538136" lon="4.414312"><time>2026-05-02T20:49:15Z</time></trkpt>
<trkpt lat="50.538568" lon="4.415018"><time>2026-05-02T20:59:15Z</time></trkpt>
</trkseg>
</trk>
<trk>
<name>hlvrv72</name>
<cmt>q</cmt>
<desc>Rèves Chemin n°72 </desc>
<link href="https://chemins.be/reves/chemin/72"/><trkseg>
<trkpt lat="50.538774" lon="4.417247"><time>2026-05-02T20:39:15Z</time></trkpt>
<trkpt lat="50.539458" lon="4.415061"><time>2026-05-02T20:49:15Z</time></trkpt>
</trkseg>
</trk>
<trk>
<name>hlvrv73</name>
<cmt>q</cmt>
<desc>Rèves Sentier n°73 </desc>
<link href="https://chemins.be/reves/sentier/73"/><trkseg>
<trkpt lat="50.539618" lon="4.419830"><time>2026-05-02T20:39:15Z</time></trkpt>
<trkpt lat="50.539879" lon="4.418278"><time>2026-05-02T20:49:15Z</time></trkpt>
<trkpt lat="50.540185" lon="4.416346"><time>2026-05-02T20:59:15Z</time></trkpt>
</trkseg>
</trk>
<trk>
<name>hlvrv75</name>
<cmt>v</cmt>
<desc>Rèves Sentier n°75 </desc>
<link href="https://chemins.be/reves/sentier/75"/><trkseg>
<trkpt lat="50.540327" lon="4.420592"><time>2026-05-02T20:39:15Z</time></trkpt>
<trkpt lat="50.540885" lon="4.419478"><time>2026-05-02T20:49:15Z</time></trkpt>
</trkseg>
</trk>
<trk>
<name>hlvrv76</name>
<cmt>q</cmt>
<desc>Rèves Sentier n°76 Rue de Bruxelles</desc>
<link href="https://chemins.be/reves/sentier/76"/><trkseg>
<trkpt lat="50.540275" lon="4.412920"><time>2026-05-02T20:39:15Z</time></trkpt>
<trkpt lat="50.540814" lon="4.410215"><time>2026-05-02T20:49:15Z</time></trkpt>
</trkseg></trk>
<trk>
<name>hlvrv76</name>
<cmt>r</cmt>
<desc>Rèves Sentier n°76 Rue de Bruxelles</desc>
<link href="https://chemins.be/reves/sentier/76"/><trkseg>
<trkpt lat="50.540814" lon="4.410215"><time>2026-05-02T20:49:15Z</time></trkpt>
<trkpt lat="50.541183" lon="4.409646"><time>2026-05-02T20:59:15Z</time></trkpt>
</trkseg></trk>
<trk>
<name>hlvrv76</name>
<cmt>q</cmt>
<desc>Rèves Sentier n°76 Rue de Bruxelles</desc>
<link href="https://chemins.be/reves/sentier/76"/><trkseg>
<trkpt lat="50.541183" lon="4.409646"><time>2026-05-02T20:59:15Z</time></trkpt>
<trkpt lat="50.541616" lon="4.406573"><time>2026-05-02T21:09:15Z</time></trkpt>
</trkseg>
</trk>
<trk>
<name>hlvrv77</name>
<cmt>q</cmt>
<desc>Rèves Chemin n°77 </desc>
<link href="https://chemins.be/reves/chemin/77"/><trkseg>
<trkpt lat="50.532797" lon="4.412287"><time>2026-05-02T20:39:15Z</time></trkpt>
<trkpt lat="50.536392" lon="4.412827"><time>2026-05-02T20:49:15Z</time></trkpt>
<trkpt lat="50.537993" lon="4.410406"><time>2026-05-02T20:59:15Z</time></trkpt>
<trkpt lat="50.539956" lon="4.407563"><time>2026-05-02T21:09:15Z</time></trkpt>
<trkpt lat="50.541592" lon="4.406590"><time>2026-05-02T21:19:15Z</time></trkpt>
<trkpt lat="50.541992" lon="4.405789"><time>2026-05-02T21:29:15Z</time></trkpt>
</trkseg>
</trk>
<trk>
<name>hlvrv78</name>
<cmt>r</cmt>
<desc>Rèves Chemin n°78 Rue Questienne</desc>
<link href="https://chemins.be/reves/chemin/78"/><trkseg>
<trkpt lat="50.537512" lon="4.414600"><time>2026-05-02T20:39:15Z</time></trkpt>
<trkpt lat="50.537187" lon="4.414131"><time>2026-05-02T20:49:15Z</time></trkpt>
</trkseg></trk>
<trk>
<name>hlvrv78</name>
<cmt>q</cmt>
<desc>Rèves Chemin n°78 Rue Questienne</desc>
<link href="https://chemins.be/reves/chemin/78"/><trkseg>
<trkpt lat="50.537187" lon="4.414131"><time>2026-05-02T20:49:15Z</time></trkpt>
<trkpt lat="50.536374" lon="4.412799"><time>2026-05-02T20:59:15Z</time></trkpt>
<trkpt lat="50.534846" lon="4.409194"><time>2026-05-02T21:09:15Z</time></trkpt>
</trkseg>
</trk>
<trk>
<name>hlvrv81</name>
<cmt>r</cmt>
<desc>Rèves Sentier n°81 </desc>
<link href="https://chemins.be/reves/sentier/81"/><trkseg>
<trkpt lat="50.535920" lon="4.421233"><time>2026-05-02T20:39:15Z</time></trkpt>
<trkpt lat="50.535260" lon="4.420993"><time>2026-05-02T20:49:15Z</time></trkpt>
</trkseg></trk>
<trk>
<name>hlvrv81</name>
<cmt>q</cmt>
<desc>Rèves Sentier n°81 </desc>
<link href="https://chemins.be/reves/sentier/81"/><trkseg>
<trkpt lat="50.535260" lon="4.420993"><time>2026-05-02T20:49:15Z</time></trkpt>
<trkpt lat="50.535260" lon="4.420993"><time>2026-05-02T20:59:15Z</time></trkpt>
<trkpt lat="50.534190" lon="4.419803"><time>2026-05-02T21:09:15Z</time></trkpt>
<trkpt lat="50.534200" lon="4.419813"><time>2026-05-02T21:19:15Z</time></trkpt>
<trkpt lat="50.533928" lon="4.419982"><time>2026-05-02T21:29:15Z</time></trkpt>
<trkpt lat="50.532460" lon="4.419813"><time>2026-05-02T21:39:15Z</time></trkpt>
<trkpt lat="50.528900" lon="4.420173"><time>2026-05-02T21:49:15Z</time></trkpt>
</trkseg>
</trk>
<trk>
<name>hlvrv83</name>
<cmt>q</cmt>
<desc>Rèves Sentier n°83 </desc>
<link href="https://chemins.be/reves/sentier/83"/><trkseg>
<trkpt lat="50.533124" lon="4.419030"><time>2026-05-02T20:39:15Z</time></trkpt>
<trkpt lat="50.533929" lon="4.419996"><time>2026-05-02T20:49:15Z</time></trkpt>
</trkseg>
</trk>
<trk>
<name>hlvrv84</name>
<cmt>q</cmt>
<desc>Rèves Sentier n°84 </desc>
<link href="https://chemins.be/reves/sentier/84"/><trkseg>
<trkpt lat="50.544711" lon="4.395342"><time>2026-05-02T20:39:15Z</time></trkpt>
<trkpt lat="50.543905" lon="4.395364"><time>2026-05-02T20:49:15Z</time></trkpt>
<trkpt lat="50.542575" lon="4.396888"><time>2026-05-02T20:59:15Z</time></trkpt>
<trkpt lat="50.540577" lon="4.398604"><time>2026-05-02T21:09:15Z</time></trkpt>
<trkpt lat="50.538872" lon="4.401662"><time>2026-05-02T21:19:15Z</time></trkpt>
<trkpt lat="50.537499" lon="4.403351"><time>2026-05-02T21:29:15Z</time></trkpt>
</trkseg>
</trk>
<trk>
<name>hlvrv85</name>
<cmt>v</cmt>
<desc>Rèves Sentier n°85 </desc>
<link href="https://chemins.be/reves/sentier/85"/><trkseg>
<trkpt lat="50.536197" lon="4.405255"><time>2026-05-02T20:39:15Z</time></trkpt>
<trkpt lat="50.535910" lon="4.404558"><time>2026-05-02T20:49:15Z</time></trkpt>
<trkpt lat="50.535017" lon="4.401339"><time>2026-05-02T20:59:15Z</time></trkpt>
<trkpt lat="50.534407" lon="4.400287"><time>2026-05-02T21:09:15Z</time></trkpt>
</trkseg></trk>
<trk>
<name>hlvrv85</name>
<cmt>q</cmt>
<desc>Rèves Sentier n°85 </desc>
<link href="https://chemins.be/reves/sentier/85"/><trkseg>
<trkpt lat="50.534407" lon="4.400287"><time>2026-05-02T21:09:15Z</time></trkpt>
<trkpt lat="50.535594" lon="4.398766"><time>2026-05-02T21:19:15Z</time></trkpt>
<trkpt lat="50.535775" lon="4.398809"><time>2026-05-02T21:29:15Z</time></trkpt>
<trkpt lat="50.535468" lon="4.394812"><time>2026-05-02T21:39:15Z</time></trkpt>
<trkpt lat="50.536027" lon="4.389409"><time>2026-05-02T21:49:15Z</time></trkpt>
<trkpt lat="50.536177" lon="4.388401"><time>2026-05-02T21:59:15Z</time></trkpt>
</trkseg>
</trk>
<trk>
<name>hlvrv86</name>
<cmt>q</cmt>
<desc>Rèves Sentier n°86 </desc>
<link href="https://chemins.be/reves/sentier/86"/><trkseg>
<trkpt lat="50.536394" lon="4.400641"><time>2026-05-02T20:39:15Z</time></trkpt>
<trkpt lat="50.535324" lon="4.401650"><time>2026-05-02T20:49:15Z</time></trkpt>
</trkseg>
</trk>
<trk>
<name>hlvrv87</name>
<cmt>q</cmt>
<desc>Rèves Sentier n°87 </desc>
<link href="https://chemins.be/reves/sentier/87"/><trkseg>
<trkpt lat="50.530311" lon="4.398520"><time>2026-05-02T20:39:15Z</time></trkpt>
<trkpt lat="50.532050" lon="4.399089"><time>2026-05-02T20:49:15Z</time></trkpt>
<trkpt lat="50.532193" lon="4.398960"><time>2026-05-02T20:59:15Z</time></trkpt>
<trkpt lat="50.534852" lon="4.399664"><time>2026-05-02T21:09:15Z</time></trkpt>
</trkseg>
</trk>
<trk>
<name>hlvrv88</name>
<cmt>q</cmt>
<desc>Rèves Sentier n°88 </desc>
<link href="https://chemins.be/reves/sentier/88"/><trkseg>
<trkpt lat="50.527655" lon="4.398838"><time>2026-05-02T20:39:15Z</time></trkpt>
<trkpt lat="50.528501" lon="4.400383"><time>2026-05-02T20:49:15Z</time></trkpt>
<trkpt lat="50.531693" lon="4.402572"><time>2026-05-02T20:59:15Z</time></trkpt>
</trkseg>
</trk>
<trk>
<name>hlvrv89</name>
<cmt>b</cmt>
<desc>Rèves Sentier n°89 </desc>
<link href="https://chemins.be/reves/sentier/89"/><trkseg>
<trkpt lat="50.527155" lon="4.399577"><time>2026-05-02T20:39:15Z</time></trkpt>
<trkpt lat="50.527030" lon="4.399549"><time>2026-05-02T20:49:15Z</time></trkpt>
<trkpt lat="50.525223" lon="4.398109"><time>2026-05-02T20:59:15Z</time></trkpt>
</trkseg>
</trk>
<trk>
<name>hlvrv9</name>
<cmt>q</cmt>
<desc>Rèves Chemin n°9 </desc>
<link href="https://chemins.be/reves/chemin/9"/><trkseg>
<trkpt lat="50.552169" lon="4.416358"><time>2026-05-02T20:39:15Z</time></trkpt>
<trkpt lat="50.553625" lon="4.417262"><time>2026-05-02T20:49:15Z</time></trkpt>
<trkpt lat="50.553310" lon="4.419167"><time>2026-05-02T20:59:15Z</time></trkpt>
<trkpt lat="50.553058" lon="4.419590"><time>2026-05-02T21:09:15Z</time></trkpt>
</trkseg>
</trk>
<trk>
<name>hlvrv90</name>
<cmt>q</cmt>
<desc>Rèves Sentier n°90 </desc>
<link href="https://chemins.be/reves/sentier/90"/><trkseg>
<trkpt lat="50.528546" lon="4.397520"><time>2026-05-02T20:39:15Z</time></trkpt>
<trkpt lat="50.528300" lon="4.395395"><time>2026-05-02T20:49:15Z</time></trkpt>
<trkpt lat="50.526827" lon="4.391919"><time>2026-05-02T20:59:15Z</time></trkpt>
</trkseg>
</trk>
<trk>
<name>hlvrv91</name>
<cmt>q</cmt>
<desc>Rèves Sentier n°91 </desc>
<link href="https://chemins.be/reves/sentier/91"/><trkseg>
<trkpt lat="50.528768" lon="4.391991"><time>2026-05-02T20:39:15Z</time></trkpt>
<trkpt lat="50.529593" lon="4.391572"><time>2026-05-02T20:49:15Z</time></trkpt>
<trkpt lat="50.531066" lon="4.392055"><time>2026-05-02T20:59:15Z</time></trkpt>
<trkpt lat="50.532731" lon="4.393147"><time>2026-05-02T21:09:15Z</time></trkpt>
<trkpt lat="50.533256" lon="4.393941"><time>2026-05-02T21:19:15Z</time></trkpt>
</trkseg>
</trk>
<trk>
<name>hlvrv92</name>
<cmt>q</cmt>
<desc>Rèves Sentier n°92 </desc>
<link href="https://chemins.be/reves/sentier/92"/><trkseg>
<trkpt lat="50.530475" lon="4.387986"><time>2026-05-02T20:39:15Z</time></trkpt>
<trkpt lat="50.530160" lon="4.392584"><time>2026-05-02T20:49:15Z</time></trkpt>
<trkpt lat="50.530330" lon="4.394756"><time>2026-05-02T20:59:15Z</time></trkpt>
</trkseg>
</trk>
<trk>
<name>hlvrv93</name>
<cmt>q</cmt>
<desc>Rèves Sentier n°93 </desc>
<link href="https://chemins.be/reves/sentier/93"/><trkseg>
<trkpt lat="50.530493" lon="4.388056"><time>2026-05-02T20:39:15Z</time></trkpt>
<trkpt lat="50.532578" lon="4.393248"><time>2026-05-02T20:49:15Z</time></trkpt>
</trkseg>
</trk>
<trk>
<name>hlvrv94</name>
<cmt>q</cmt>
<desc>Rèves Sentier n°94 </desc>
<link href="https://chemins.be/reves/sentier/94"/><trkseg>
<trkpt lat="50.530383" lon="4.398581"><time>2026-05-02T20:39:15Z</time></trkpt>
<trkpt lat="50.530997" lon="4.400104"><time>2026-05-02T20:49:15Z</time></trkpt>
</trkseg>
</trk>
<trk>
<name>hlvrvi2</name>
<cmt>r</cmt>
<desc>Rèves Chemin n°i2 Ruelle de la Meunerie</desc>
<link href="https://chemins.be/reves/chemin/i2"/><trkseg>
<trkpt lat="50.551102" lon="4.395949"><time>2026-05-02T20:39:15Z</time></trkpt>
<trkpt lat="50.550799" lon="4.394973"><time>2026-05-02T20:49:15Z</time></trkpt>
</trkseg>
</trk>
<trk>
<name>hlvrvi3</name>
<cmt>q</cmt>
<desc>Rèves Chemin n°i3 </desc>
<link href="https://chemins.be/reves/chemin/i3"/><trkseg>
<trkpt lat="50.544424" lon="4.404682"><time>2026-05-02T20:39:15Z</time></trkpt>
<trkpt lat="50.543921" lon="4.404103"><time>2026-05-02T20:49:15Z</time></trkpt>
</trkseg>
</trk>
<trk>
<name>hlvrvi4</name>
<cmt>q</cmt>
<desc>Rèves Chemin n°i4 </desc>
<link href="https://chemins.be/reves/chemin/i4"/><trkseg>
<trkpt lat="50.552261" lon="4.412901"><time>2026-05-02T20:39:15Z</time></trkpt>
<trkpt lat="50.553313" lon="4.412196"><time>2026-05-02T20:49:15Z</time></trkpt>
<trkpt lat="50.554113" lon="4.411703"><time>2026-05-02T20:59:15Z</time></trkpt>
</trkseg>
</trk>
<trk>
<name>hlvrvi5</name>
<cmt>v</cmt>
<desc>Rèves Sentier n°i5 </desc>
<link href="https://chemins.be/reves/sentier/i5"/><trkseg>
<trkpt lat="50.541774" lon="4.421497"><time>2026-05-02T20:39:15Z</time></trkpt>
<trkpt lat="50.541648" lon="4.421722"><time>2026-05-02T20:49:15Z</time></trkpt>
</trkseg>
</trk>
<trk>
<name>hlvrvi6</name>
<cmt>v</cmt>
<desc>Rèves Sentier n°i6 </desc>
<link href="https://chemins.be/reves/sentier/i6"/><trkseg>
<trkpt lat="50.530251" lon="4.395345"><time>2026-05-02T20:39:15Z</time></trkpt>
<trkpt lat="50.533279" lon="4.398556"><time>2026-05-02T20:49:15Z</time></trkpt>
<trkpt lat="50.534361" lon="4.400294"><time>2026-05-02T20:59:15Z</time></trkpt>
</trkseg>
</trk>
<trk>
<name>hlvrvi7</name>
<cmt>v</cmt>
<desc>Rèves Chemin n°i7 </desc>
<link href="https://chemins.be/reves/chemin/i7"/><trkseg>
<trkpt lat="50.554616" lon="4.411732"><time>2026-05-02T20:39:15Z</time></trkpt>
<trkpt lat="50.554716" lon="4.410504"><time>2026-05-02T20:49:15Z</time></trkpt>
</trkseg>
</trk>
<trk>
<name>hlvrvL131A</name>
<cmt>q</cmt>
<desc>Rèves Chemin n°L131A Ligne 131</desc>
<link href="https://chemins.be/reves/chemin/L131A"/><trkseg>
<trkpt lat="50.559344" lon="4.377822"><time>2026-05-02T20:39:15Z</time></trkpt>
<trkpt lat="50.558750" lon="4.381957"><time>2026-05-02T20:49:15Z</time></trkpt>
<trkpt lat="50.557265" lon="4.390580"><time>2026-05-02T20:59:15Z</time></trkpt>
<trkpt lat="50.556320" lon="4.398171"><time>2026-05-02T21:09:15Z</time></trkpt>
<trkpt lat="50.555257" lon="4.406257"><time>2026-05-02T21:19:15Z</time></trkpt>
<trkpt lat="50.554446" lon="4.411760"><time>2026-05-02T21:29:15Z</time></trkpt>
</trkseg></trk>
<trk>
<name>hlvrvL131A</name>
<cmt>v</cmt>
<desc>Rèves Chemin n°L131A Ligne 131</desc>
<link href="https://chemins.be/reves/chemin/L131A"/><trkseg>
<trkpt lat="50.554446" lon="4.411760"><time>2026-05-02T21:29:15Z</time></trkpt>
<trkpt lat="50.553418" lon="4.419111"><time>2026-05-02T21:39:15Z</time></trkpt>
<trkpt lat="50.553094" lon="4.420380"><time>2026-05-02T21:49:15Z</time></trkpt>
</trkseg>
</trk>
<trk>
<name>hlvrvr1</name>
<cmt>d</cmt>
<desc>Rèves Chemin de remembrement n°r1 </desc>
<link href="https://chemins.be/reves/chemin/r1"/><trkseg>
<trkpt lat="50.555164" lon="4.373760"><time>2026-05-02T20:39:15Z</time></trkpt>
<trkpt lat="50.556098" lon="4.375530"><time>2026-05-02T20:49:15Z</time></trkpt>
</trkseg>
</trk>
<trk>
<name>hlvrvr2</name>
<cmt>v</cmt>
<desc>Rèves Chemin de remembrement n°r2 </desc>
<link href="https://chemins.be/reves/chemin/r2"/><trkseg>
<trkpt lat="50.557879" lon="4.378655"><time>2026-05-02T20:39:15Z</time></trkpt>
<trkpt lat="50.558058" lon="4.379191"><time>2026-05-02T20:49:15Z</time></trkpt>
<trkpt lat="50.558211" lon="4.379770"><time>2026-05-02T20:59:15Z</time></trkpt>
<trkpt lat="50.558337" lon="4.380546"><time>2026-05-02T21:09:15Z</time></trkpt>
<trkpt lat="50.558570" lon="4.381590"><time>2026-05-02T21:19:15Z</time></trkpt>
<trkpt lat="50.558588" lon="4.381788"><time>2026-05-02T21:29:15Z</time></trkpt>
<trkpt lat="50.558741" lon="4.382014"><time>2026-05-02T21:39:15Z</time></trkpt>
<trkpt lat="50.558966" lon="4.382310"><time>2026-05-02T21:49:15Z</time></trkpt>
<trkpt lat="50.559325" lon="4.382635"><time>2026-05-02T21:59:15Z</time></trkpt>
</trkseg>
</trk>
<trk>
<name>hlvvp12</name>
<cmt>v</cmt>
<desc>Villers-Perwin Chemin n°12 Rue du Brouhon / Rue Jumerée</desc>
<link href="https://chemins.be/villersperwin/chemin/12"/><trkseg>
<trkpt lat="50.533631" lon="4.484015"><time>2026-05-02T20:39:15Z</time></trkpt>
<trkpt lat="50.533731" lon="4.483695"><time>2026-05-02T20:49:15Z</time></trkpt>
<trkpt lat="50.533991" lon="4.482795"><time>2026-05-02T20:59:15Z</time></trkpt>
<trkpt lat="50.534161" lon="4.482315"><time>2026-05-02T21:09:15Z</time></trkpt>
<trkpt lat="50.534351" lon="4.481935"><time>2026-05-02T21:19:15Z</time></trkpt>
<trkpt lat="50.534721" lon="4.481305"><time>2026-05-02T21:29:15Z</time></trkpt>
<trkpt lat="50.535065" lon="4.480720"><time>2026-05-02T21:39:15Z</time></trkpt>
</trkseg>
</trk>
<trk>
<name>hlvvp14</name>
<cmt>v</cmt>
<desc>Villers-Perwin Chemin n°14 </desc>
<link href="https://chemins.be/villersperwin/chemin/14"/><trkseg>
<trkpt lat="50.525333" lon="4.477975"><time>2026-05-02T20:39:15Z</time></trkpt>
<trkpt lat="50.526448" lon="4.476671"><time>2026-05-02T20:49:15Z</time></trkpt>
</trkseg>
</trk>
<trk>
<name>hlvvp15</name>
<cmt>s</cmt>
<desc>Villers-Perwin Chemin n°15 </desc>
<link href="https://chemins.be/villersperwin/chemin/15"/><trkseg>
<trkpt lat="50.519892" lon="4.480335"><time>2026-05-02T20:39:15Z</time></trkpt>
<trkpt lat="50.520949" lon="4.479713"><time>2026-05-02T20:49:15Z</time></trkpt>
<trkpt lat="50.521648" lon="4.480013"><time>2026-05-02T20:59:15Z</time></trkpt>
</trkseg>
</trk>
<trk>
<name>hlvvp17</name>
<cmt>v</cmt>
<desc>Villers-Perwin Chemin n°17 Rue du Calvaire / Rue du Warchais / chemin 17</desc>
<link href="https://chemins.be/villersperwin/chemin/17"/><trkseg>
<trkpt lat="50.526723" lon="4.484931"><time>2026-05-02T20:39:15Z</time></trkpt>
<trkpt lat="50.530378" lon="4.488861"><time>2026-05-02T20:49:15Z</time></trkpt>
<trkpt lat="50.532113" lon="4.490185"><time>2026-05-02T20:59:15Z</time></trkpt>
<trkpt lat="50.532575" lon="4.490317"><time>2026-05-02T21:09:15Z</time></trkpt>
<trkpt lat="50.534367" lon="4.490501"><time>2026-05-02T21:19:15Z</time></trkpt>
<trkpt lat="50.534776" lon="4.490801"><time>2026-05-02T21:29:15Z</time></trkpt>
</trkseg></trk>
<trk>
<name>hlvvp17</name>
<cmt>d</cmt>
<desc>Villers-Perwin Chemin n°17 Rue du Calvaire / Rue du Warchais / chemin 17</desc>
<link href="https://chemins.be/villersperwin/chemin/17"/><trkseg>
<trkpt lat="50.534776" lon="4.490801"><time>2026-05-02T21:29:15Z</time></trkpt>
<trkpt lat="50.535901" lon="4.490898"><time>2026-05-02T21:39:15Z</time></trkpt>
<trkpt lat="50.537422" lon="4.491853"><time>2026-05-02T21:49:15Z</time></trkpt>
</trkseg>
</trk>
<trk>
<name>hlvvp18</name>
<cmt>r</cmt>
<desc>Villers-Perwin Chemin n°18 Rue du Warchais</desc>
<link href="https://chemins.be/villersperwin/chemin/18"/><trkseg>
<trkpt lat="50.531972" lon="4.486664"><time>2026-05-02T20:39:15Z</time></trkpt>
<trkpt lat="50.532528" lon="4.487583"><time>2026-05-02T20:49:15Z</time></trkpt>
</trkseg></trk>
<trk>
<name>hlvvp18</name>
<cmt>v</cmt>
<desc>Villers-Perwin Chemin n°18 Rue du Warchais</desc>
<link href="https://chemins.be/villersperwin/chemin/18"/><trkseg>
<trkpt lat="50.532528" lon="4.487583"><time>2026-05-02T20:49:15Z</time></trkpt>
<trkpt lat="50.534377" lon="4.490521"><time>2026-05-02T20:59:15Z</time></trkpt>
<trkpt lat="50.534836" lon="4.490819"><time>2026-05-02T21:09:15Z</time></trkpt>
<trkpt lat="50.535894" lon="4.492980"><time>2026-05-02T21:19:15Z</time></trkpt>
<trkpt lat="50.536971" lon="4.494308"><time>2026-05-02T21:29:15Z</time></trkpt>
</trkseg>
</trk>
<trk>
<name>hlvvp19</name>
<cmt>v</cmt>
<desc>Villers-Perwin Chemin n°19 Chemin du Monceau du Berger</desc>
<link href="https://chemins.be/villersperwin/chemin/19"/><trkseg>
<trkpt lat="50.536056" lon="4.493107"><time>2026-05-02T20:39:15Z</time></trkpt>
<trkpt lat="50.537197" lon="4.493604"><time>2026-05-02T20:49:15Z</time></trkpt>
</trkseg>
</trk>
<trk>
<name>hlvvp2</name>
<cmt>s</cmt>
<desc>Villers-Perwin Chemin n°2 </desc>
<link href="https://chemins.be/villersperwin/chemin/2"/><trkseg>
<trkpt lat="50.512055" lon="4.461279"><time>2026-05-02T20:39:15Z</time></trkpt>
<trkpt lat="50.513905" lon="4.463298"><time>2026-05-02T20:49:15Z</time></trkpt>
<trkpt lat="50.514659" lon="4.464668"><time>2026-05-02T20:59:15Z</time></trkpt>
<trkpt lat="50.517119" lon="4.468875"><time>2026-05-02T21:09:15Z</time></trkpt>
</trkseg>
</trk>
<trk>
<name>hlvvp22</name>
<cmt>v</cmt>
<desc>Villers-Perwin Chemin n°22 Rue du Warchais</desc>
<link href="https://chemins.be/villersperwin/chemin/22"/><trkseg>
<trkpt lat="50.526804" lon="4.484874"><time>2026-05-02T20:39:15Z</time></trkpt>
<trkpt lat="50.530266" lon="4.484432"><time>2026-05-02T20:49:15Z</time></trkpt>
<trkpt lat="50.530672" lon="4.483902"><time>2026-05-02T20:59:15Z</time></trkpt>
<trkpt lat="50.531121" lon="4.483267"><time>2026-05-02T21:09:15Z</time></trkpt>
</trkseg>
</trk>
<trk>
<name>hlvvp23</name>
<cmt>v</cmt>
<desc>Villers-Perwin Chemin n°23 Rue du Brouhon</desc>
<link href="https://chemins.be/villersperwin/chemin/23"/><trkseg>
<trkpt lat="50.533286" lon="4.485370"><time>2026-05-02T20:39:15Z</time></trkpt>
<trkpt lat="50.533024" lon="4.486258"><time>2026-05-02T20:49:15Z</time></trkpt>
<trkpt lat="50.532421" lon="4.487455"><time>2026-05-02T20:59:15Z</time></trkpt>
</trkseg>
</trk>
<trk>
<name>hlvvp25</name>
<cmt>v</cmt>
<desc>Villers-Perwin Chemin n°25 </desc>
<link href="https://chemins.be/villersperwin/chemin/25"/><trkseg>
<trkpt lat="50.506727" lon="4.451517"><time>2026-05-02T20:39:15Z</time></trkpt>
<trkpt lat="50.505100" lon="4.452702"><time>2026-05-02T20:49:15Z</time></trkpt>
</trkseg>
</trk>
<trk>
<name>hlvvp27</name>
<cmt>v</cmt>
<desc>Villers-Perwin Chemin n°27 Chemin de la Hutte</desc>
<link href="https://chemins.be/villersperwin/chemin/27"/><trkseg>
<trkpt lat="50.528783" lon="4.474612"><time>2026-05-02T20:39:15Z</time></trkpt>
<trkpt lat="50.530581" lon="4.474432"><time>2026-05-02T20:49:15Z</time></trkpt>
<trkpt lat="50.533396" lon="4.473211"><time>2026-05-02T20:59:15Z</time></trkpt>
<trkpt lat="50.533972" lon="4.473058"><time>2026-05-02T21:09:15Z</time></trkpt>
</trkseg>
</trk>
<trk>
<name>hlvvp29</name>
<cmt>q</cmt>
<desc>Villers-Perwin Sentier n°29 </desc>
<link href="https://chemins.be/villersperwin/sentier/29"/><trkseg>
<trkpt lat="50.533740" lon="4.483774"><time>2026-05-02T20:39:15Z</time></trkpt>
<trkpt lat="50.533249" lon="4.482749"><time>2026-05-02T20:49:15Z</time></trkpt>
<trkpt lat="50.533146" lon="4.482041"><time>2026-05-02T20:59:15Z</time></trkpt>
<trkpt lat="50.531926" lon="4.479568"><time>2026-05-02T21:09:15Z</time></trkpt>
<trkpt lat="50.530630" lon="4.477594"><time>2026-05-02T21:19:15Z</time></trkpt>
<trkpt lat="50.529812" lon="4.476832"><time>2026-05-02T21:29:15Z</time></trkpt>
</trkseg>
</trk>
<trk>
<name>hlvvp30</name>
<cmt>q</cmt>
<desc>Villers-Perwin Sentier n°30 </desc>
<link href="https://chemins.be/villersperwin/sentier/30"/><trkseg>
<trkpt lat="50.530412" lon="4.480043"><time>2026-05-02T20:39:15Z</time></trkpt>
<trkpt lat="50.532091" lon="4.479945"><time>2026-05-02T20:49:15Z</time></trkpt>
<trkpt lat="50.535196" lon="4.480124"><time>2026-05-02T20:59:15Z</time></trkpt>
</trkseg>
</trk>
<trk>
<name>hlvvp31</name>
<cmt>q</cmt>
<desc>Villers-Perwin Sentier n°31 </desc>
<link href="https://chemins.be/villersperwin/sentier/31"/><trkseg>
<trkpt lat="50.532966" lon="4.473474"><time>2026-05-02T20:39:15Z</time></trkpt>
<trkpt lat="50.533712" lon="4.474477"><time>2026-05-02T20:49:15Z</time></trkpt>
<trkpt lat="50.536318" lon="4.476296"><time>2026-05-02T20:59:15Z</time></trkpt>
</trkseg>
</trk>
<trk>
<name>hlvvp32</name>
<cmt>q</cmt>
<desc>Villers-Perwin Sentier n°32 </desc>
<link href="https://chemins.be/villersperwin/sentier/32"/><trkseg>
<trkpt lat="50.530276" lon="4.478726"><time>2026-05-02T20:39:15Z</time></trkpt>
<trkpt lat="50.531428" lon="4.475433"><time>2026-05-02T20:49:15Z</time></trkpt>
<trkpt lat="50.531790" lon="4.473930"><time>2026-05-02T20:59:15Z</time></trkpt>
<trkpt lat="50.531647" lon="4.473008"><time>2026-05-02T21:09:15Z</time></trkpt>
</trkseg>
</trk>
<trk>
<name>hlvvp33</name>
<cmt>q</cmt>
<desc>Villers-Perwin Sentier n°33 </desc>
<link href="https://chemins.be/villersperwin/sentier/33"/><trkseg>
<trkpt lat="50.529331" lon="4.475850"><time>2026-05-02T20:39:15Z</time></trkpt>
<trkpt lat="50.529890" lon="4.475716"><time>2026-05-02T20:49:15Z</time></trkpt>
<trkpt lat="50.530531" lon="4.474440"><time>2026-05-02T20:59:15Z</time></trkpt>
</trkseg>
</trk>
<trk>
<name>hlvvp34</name>
<cmt>q</cmt>
<desc>Villers-Perwin Sentier n°34 </desc>
<link href="https://chemins.be/villersperwin/sentier/34"/><trkseg>
<trkpt lat="50.528178" lon="4.476221"><time>2026-05-02T20:39:15Z</time></trkpt>
<trkpt lat="50.528106" lon="4.475909"><time>2026-05-02T20:49:15Z</time></trkpt>
<trkpt lat="50.527758" lon="4.475378"><time>2026-05-02T20:59:15Z</time></trkpt>
<trkpt lat="50.527891" lon="4.474429"><time>2026-05-02T21:09:15Z</time></trkpt>
<trkpt lat="50.528267" lon="4.472803"><time>2026-05-02T21:19:15Z</time></trkpt>
<trkpt lat="50.531155" lon="4.471167"><time>2026-05-02T21:29:15Z</time></trkpt>
</trkseg>
</trk>
<trk>
<name>hlvvp35</name>
<cmt>q</cmt>
<desc>Villers-Perwin Sentier n°35 </desc>
<link href="https://chemins.be/villersperwin/sentier/35"/><trkseg>
<trkpt lat="50.527370" lon="4.477047"><time>2026-05-02T20:39:15Z</time></trkpt>
<trkpt lat="50.527363" lon="4.475695"><time>2026-05-02T20:49:15Z</time></trkpt>
<trkpt lat="50.527835" lon="4.475335"><time>2026-05-02T20:59:15Z</time></trkpt>
<trkpt lat="50.528741" lon="4.474643"><time>2026-05-02T21:09:15Z</time></trkpt>
</trkseg>
</trk>
<trk>
<name>hlvvp36</name>
<cmt>q</cmt>
<desc>Villers-Perwin Sentier n°36 </desc>
<link href="https://chemins.be/villersperwin/sentier/36"/><trkseg>
<trkpt lat="50.527346" lon="4.475759"><time>2026-05-02T20:39:15Z</time></trkpt>
<trkpt lat="50.526493" lon="4.475099"><time>2026-05-02T20:49:15Z</time></trkpt>
</trkseg>
</trk>
<trk>
<name>hlvvp37</name>
<cmt>q</cmt>
<desc>Villers-Perwin Sentier n°37 </desc>
<link href="https://chemins.be/villersperwin/sentier/37"/><trkseg>
<trkpt lat="50.524805" lon="4.477476"><time>2026-05-02T20:39:15Z</time></trkpt>
<trkpt lat="50.525341" lon="4.476773"><time>2026-05-02T20:49:15Z</time></trkpt>
<trkpt lat="50.525385" lon="4.476430"><time>2026-05-02T20:59:15Z</time></trkpt>
<trkpt lat="50.525559" lon="4.476162"><time>2026-05-02T21:09:15Z</time></trkpt>
<trkpt lat="50.525368" lon="4.475834"><time>2026-05-02T21:19:15Z</time></trkpt>
<trkpt lat="50.525750" lon="4.475582"><time>2026-05-02T21:29:15Z</time></trkpt>
<trkpt lat="50.526503" lon="4.475110"><time>2026-05-02T21:39:15Z</time></trkpt>
<trkpt lat="50.526186" lon="4.474348"><time>2026-05-02T21:49:15Z</time></trkpt>
<trkpt lat="50.525712" lon="4.473227"><time>2026-05-02T21:59:15Z</time></trkpt>
<trkpt lat="50.527247" lon="4.469537"><time>2026-05-02T22:09:15Z</time></trkpt>
<trkpt lat="50.527786" lon="4.467380"><time>2026-05-02T22:19:15Z</time></trkpt>
</trkseg>
</trk>
<trk>
<name>hlvvp38</name>
<cmt>q</cmt>
<desc>Villers-Perwin Sentier n°38 </desc>
<link href="https://chemins.be/villersperwin/sentier/38"/><trkseg>
<trkpt lat="50.527455" lon="4.478602"><time>2026-05-02T20:39:15Z</time></trkpt>
<trkpt lat="50.528345" lon="4.477894"><time>2026-05-02T20:49:15Z</time></trkpt>
<trkpt lat="50.528727" lon="4.477224"><time>2026-05-02T20:59:15Z</time></trkpt>
<trkpt lat="50.528526" lon="4.476129"><time>2026-05-02T21:09:15Z</time></trkpt>
</trkseg>
</trk>
<trk>
<name>hlvvp39</name>
<cmt>q</cmt>
<desc>Villers-Perwin Sentier n°39 </desc>
<link href="https://chemins.be/villersperwin/sentier/39"/><trkseg>
<trkpt lat="50.526805" lon="4.478817"><time>2026-05-02T20:39:15Z</time></trkpt>
<trkpt lat="50.526896" lon="4.479053"><time>2026-05-02T20:49:15Z</time></trkpt>
<trkpt lat="50.526957" lon="4.478991"><time>2026-05-02T20:59:15Z</time></trkpt>
<trkpt lat="50.527138" lon="4.479512"><time>2026-05-02T21:09:15Z</time></trkpt>
<trkpt lat="50.527554" lon="4.479225"><time>2026-05-02T21:19:15Z</time></trkpt>
</trkseg>
</trk>
<trk>
<name>hlvvp4</name>
<cmt>v</cmt>
<desc>Villers-Perwin Chemin n°4 Chemin 30 noir</desc>
<link href="https://chemins.be/villersperwin/chemin/4"/><trkseg>
<trkpt lat="50.532075" lon="4.490254"><time>2026-05-02T20:39:15Z</time></trkpt>
<trkpt lat="50.532500" lon="4.496074"><time>2026-05-02T20:49:15Z</time></trkpt>
<trkpt lat="50.533765" lon="4.500136"><time>2026-05-02T20:59:15Z</time></trkpt>
<trkpt lat="50.533192" lon="4.503844"><time>2026-05-02T21:09:15Z</time></trkpt>
</trkseg>
</trk>
<trk>
<name>hlvvp40</name>
<cmt>q</cmt>
<desc>Villers-Perwin Sentier n°40 </desc>
<link href="https://chemins.be/villersperwin/sentier/40"/><trkseg>
<trkpt lat="50.526650" lon="4.477605"><time>2026-05-02T20:39:15Z</time></trkpt>
<trkpt lat="50.527015" lon="4.478549"><time>2026-05-02T20:49:15Z</time></trkpt>
</trkseg>
</trk>
<trk>
<name>hlvvp42</name>
<cmt>q</cmt>
<desc>Villers-Perwin Sentier n°42 </desc>
<link href="https://chemins.be/villersperwin/sentier/42"/><trkseg>
<trkpt lat="50.523335" lon="4.471377"><time>2026-05-02T20:39:15Z</time></trkpt>
<trkpt lat="50.523144" lon="4.467264"><time>2026-05-02T20:49:15Z</time></trkpt>
<trkpt lat="50.522635" lon="4.464810"><time>2026-05-02T20:59:15Z</time></trkpt>
</trkseg>
</trk>
<trk>
<name>hlvvp43</name>
<cmt>q</cmt>
<desc>Villers-Perwin Sentier n°43 </desc>
<link href="https://chemins.be/villersperwin/sentier/43"/><trkseg>
<trkpt lat="50.523646" lon="4.475770"><time>2026-05-02T20:39:15Z</time></trkpt>
<trkpt lat="50.524983" lon="4.474119"><time>2026-05-02T20:49:15Z</time></trkpt>
<trkpt lat="50.525706" lon="4.473227"><time>2026-05-02T20:59:15Z</time></trkpt>
</trkseg>
</trk>
<trk>
<name>hlvvp44</name>
<cmt>q</cmt>
<desc>Villers-Perwin Sentier n°44 </desc>
<link href="https://chemins.be/villersperwin/sentier/44"/><trkseg>
<trkpt lat="50.524006" lon="4.477084"><time>2026-05-02T20:39:15Z</time></trkpt>
<trkpt lat="50.522922" lon="4.475673"><time>2026-05-02T20:49:15Z</time></trkpt>
</trkseg>
</trk>
<trk>
<name>hlvvp46</name>
<cmt>v</cmt>
<desc>Villers-Perwin Sentier n°46 Rue Edmond Aubry</desc>
<link href="https://chemins.be/villersperwin/sentier/46"/><trkseg>
<trkpt lat="50.524924" lon="4.477621"><time>2026-05-02T20:39:15Z</time></trkpt>
<trkpt lat="50.524527" lon="4.478212"><time>2026-05-02T20:49:15Z</time></trkpt>
<trkpt lat="50.523906" lon="4.478930"><time>2026-05-02T20:59:15Z</time></trkpt>
</trkseg></trk>
<trk>
<name>hlvvp46</name>
<cmt>r</cmt>
<desc>Villers-Perwin Sentier n°46 Rue Edmond Aubry</desc>
<link href="https://chemins.be/villersperwin/sentier/46"/><trkseg>
<trkpt lat="50.523906" lon="4.478930"><time>2026-05-02T20:59:15Z</time></trkpt>
<trkpt lat="50.522494" lon="4.479477"><time>2026-05-02T21:09:15Z</time></trkpt>
<trkpt lat="50.520902" lon="4.480474"><time>2026-05-02T21:19:15Z</time></trkpt>
</trkseg></trk>
<trk>
<name>hlvvp46</name>
<cmt>v</cmt>
<desc>Villers-Perwin Sentier n°46 Rue Edmond Aubry</desc>
<link href="https://chemins.be/villersperwin/sentier/46"/><trkseg>
<trkpt lat="50.520902" lon="4.480474"><time>2026-05-02T21:19:15Z</time></trkpt>
<trkpt lat="50.520380" lon="4.481079"><time>2026-05-02T21:29:15Z</time></trkpt>
</trkseg></trk>
<trk>
<name>hlvvp46</name>
<cmt>d</cmt>
<desc>Villers-Perwin Sentier n°46 Rue Edmond Aubry</desc>
<link href="https://chemins.be/villersperwin/sentier/46"/><trkseg>
<trkpt lat="50.520380" lon="4.481079"><time>2026-05-02T21:29:15Z</time></trkpt>
<trkpt lat="50.519246" lon="4.482275"><time>2026-05-02T21:39:15Z</time></trkpt>
<trkpt lat="50.517717" lon="4.483146"><time>2026-05-02T21:49:15Z</time></trkpt>
<trkpt lat="50.517133" lon="4.483257"><time>2026-05-02T21:59:15Z</time></trkpt>
</trkseg>
</trk>
<trk>
<name>hlvvp46bis</name>
<cmt>v</cmt>
<desc>Villers-Perwin Sentier n°46bis </desc>
<link href="https://chemins.be/villersperwin/sentier/46bis"/><trkseg>
<trkpt lat="50.516734" lon="4.482450"><time>2026-05-02T20:39:15Z</time></trkpt>
<trkpt lat="50.516913" lon="4.482569"><time>2026-05-02T20:49:15Z</time></trkpt>
<trkpt lat="50.517656" lon="4.483416"><time>2026-05-02T20:59:15Z</time></trkpt>
<trkpt lat="50.517735" lon="4.483399"><time>2026-05-02T21:09:15Z</time></trkpt>
</trkseg>
</trk>
<trk>
<name>hlvvp47</name>
<cmt>q</cmt>
<desc>Villers-Perwin Sentier n°47 </desc>
<link href="https://chemins.be/villersperwin/sentier/47"/><trkseg>
<trkpt lat="50.523802" lon="4.478956"><time>2026-05-02T20:39:15Z</time></trkpt>
<trkpt lat="50.523598" lon="4.479418"><time>2026-05-02T20:49:15Z</time></trkpt>
<trkpt lat="50.523734" lon="4.485238"><time>2026-05-02T20:59:15Z</time></trkpt>
</trkseg>
</trk>
<trk>
<name>hlvvp48</name>
<cmt>q</cmt>
<desc>Villers-Perwin Sentier n°48 </desc>
<link href="https://chemins.be/villersperwin/sentier/48"/><trkseg>
<trkpt lat="50.525518" lon="4.478999"><time>2026-05-02T20:39:15Z</time></trkpt>
<trkpt lat="50.525750" lon="4.479595"><time>2026-05-02T20:49:15Z</time></trkpt>
<trkpt lat="50.525798" lon="4.480550"><time>2026-05-02T20:59:15Z</time></trkpt>
<trkpt lat="50.525948" lon="4.480877"><time>2026-05-02T21:09:15Z</time></trkpt>
<trkpt lat="50.525900" lon="4.481113"><time>2026-05-02T21:19:15Z</time></trkpt>
</trkseg></trk>
<trk>
<name>hlvvp48</name>
<cmt>r</cmt>
<desc>Villers-Perwin Sentier n°48 </desc>
<link href="https://chemins.be/villersperwin/sentier/48"/><trkseg>
<trkpt lat="50.525900" lon="4.481113"><time>2026-05-02T21:19:15Z</time></trkpt>
<trkpt lat="50.525990" lon="4.481347"><time>2026-05-02T21:29:15Z</time></trkpt>
</trkseg></trk>
<trk>
<name>hlvvp48</name>
<cmt>q</cmt>
<desc>Villers-Perwin Sentier n°48 </desc>
<link href="https://chemins.be/villersperwin/sentier/48"/><trkseg>
<trkpt lat="50.525990" lon="4.481347"><time>2026-05-02T21:29:15Z</time></trkpt>
<trkpt lat="50.525963" lon="4.481375"><time>2026-05-02T21:39:15Z</time></trkpt>
<trkpt lat="50.525918" lon="4.481445"><time>2026-05-02T21:49:15Z</time></trkpt>
<trkpt lat="50.525765" lon="4.481685"><time>2026-05-02T21:59:15Z</time></trkpt>
<trkpt lat="50.525602" lon="4.482347"><time>2026-05-02T22:09:15Z</time></trkpt>
<trkpt lat="50.525656" lon="4.482446"><time>2026-05-02T22:19:15Z</time></trkpt>
<trkpt lat="50.525593" lon="4.482502"><time>2026-05-02T22:29:15Z</time></trkpt>
<trkpt lat="50.525566" lon="4.482826"><time>2026-05-02T22:39:15Z</time></trkpt>
<trkpt lat="50.525422" lon="4.482953"><time>2026-05-02T22:49:15Z</time></trkpt>
<trkpt lat="50.525287" lon="4.483122"><time>2026-05-02T22:59:15Z</time></trkpt>
<trkpt lat="50.525529" lon="4.483856"><time>2026-05-02T23:09:15Z</time></trkpt>
</trkseg></trk>
<trk>
<name>hlvvp48</name>
<cmt>v</cmt>
<desc>Villers-Perwin Sentier n°48 </desc>
<link href="https://chemins.be/villersperwin/sentier/48"/><trkseg>
<trkpt lat="50.525529" lon="4.483856"><time>2026-05-02T23:09:15Z</time></trkpt>
<trkpt lat="50.523585" lon="4.485628"><time>2026-05-02T23:19:15Z</time></trkpt>
</trkseg>
</trk>
<trk>
<name>hlvvp49</name>
<cmt>r</cmt>
<desc>Villers-Perwin Sentier n°49 Rue Dominique Seret</desc>
<link href="https://chemins.be/villersperwin/sentier/49"/><trkseg>
<trkpt lat="50.531919" lon="4.483720"><time>2026-05-02T20:39:15Z</time></trkpt>
<trkpt lat="50.533085" lon="4.483860"><time>2026-05-02T20:49:15Z</time></trkpt>
<trkpt lat="50.533603" lon="4.484053"><time>2026-05-02T20:59:15Z</time></trkpt>
</trkseg>
</trk>
<trk>
<name>hlvvp5</name>
<cmt>s</cmt>
<desc>Villers-Perwin Chemin n°5 </desc>
<link href="https://chemins.be/villersperwin/chemin/5"/><trkseg>
<trkpt lat="50.513899" lon="4.458505"><time>2026-05-02T20:39:15Z</time></trkpt>
<trkpt lat="50.512055" lon="4.460989"><time>2026-05-02T20:49:15Z</time></trkpt>
<trkpt lat="50.510500" lon="4.467049"><time>2026-05-02T20:59:15Z</time></trkpt>
</trkseg>
</trk>
<trk>
<name>hlvvp50</name>
<cmt>q</cmt>
<desc>Villers-Perwin Sentier n°50 </desc>
<link href="https://chemins.be/villersperwin/sentier/50"/><trkseg>
<trkpt lat="50.533757" lon="4.500122"><time>2026-05-02T20:39:15Z</time></trkpt>
<trkpt lat="50.534777" lon="4.503006"><time>2026-05-02T20:49:15Z</time></trkpt>
</trkseg>
</trk>
<trk>
<name>hlvvp51</name>
<cmt>q</cmt>
<desc>Villers-Perwin Sentier n°51 </desc>
<link href="https://chemins.be/villersperwin/sentier/51"/><trkseg>
<trkpt lat="50.523296" lon="4.487235"><time>2026-05-02T20:39:15Z</time></trkpt>
<trkpt lat="50.526589" lon="4.484987"><time>2026-05-02T20:49:15Z</time></trkpt>
</trkseg>
</trk>
<trk>
<name>hlvvp53</name>
<cmt>r</cmt>
<desc>Villers-Perwin Sentier n°53 Rue Haute</desc>
<link href="https://chemins.be/villersperwin/sentier/53"/><trkseg>
<trkpt lat="50.526950" lon="4.484552"><time>2026-05-02T20:39:15Z</time></trkpt>
<trkpt lat="50.526456" lon="4.482540"><time>2026-05-02T20:49:15Z</time></trkpt>
</trkseg>
</trk>
<trk>
<name>hlvvp54</name>
<cmt>q</cmt>
<desc>Villers-Perwin Sentier n°54 </desc>
<link href="https://chemins.be/villersperwin/sentier/54"/><trkseg>
<trkpt lat="50.514989" lon="4.477668"><time>2026-05-02T20:39:15Z</time></trkpt>
<trkpt lat="50.514684" lon="4.477470"><time>2026-05-02T20:49:15Z</time></trkpt>
</trkseg>
</trk>
<trk>
<name>hlvvp55</name>
<cmt>q</cmt>
<desc>Villers-Perwin Sentier n°55 </desc>
<link href="https://chemins.be/villersperwin/sentier/55"/><trkseg>
<trkpt lat="50.510126" lon="4.459483"><time>2026-05-02T20:39:15Z</time></trkpt>
<trkpt lat="50.511982" lon="4.461071"><time>2026-05-02T20:49:15Z</time></trkpt>
</trkseg>
</trk>
<trk>
<name>hlvvp56</name>
<cmt>q</cmt>
<desc>Villers-Perwin Sentier n°56 </desc>
<link href="https://chemins.be/villersperwin/sentier/56"/><trkseg>
<trkpt lat="50.512388" lon="4.454389"><time>2026-05-02T20:39:15Z</time></trkpt>
<trkpt lat="50.511654" lon="4.458266"><time>2026-05-02T20:49:15Z</time></trkpt>
</trkseg></trk>
<trk>
<name>hlvvp56</name>
<cmt>s</cmt>
<desc>Villers-Perwin Sentier n°56 </desc>
<link href="https://chemins.be/villersperwin/sentier/56"/><trkseg>
<trkpt lat="50.511654" lon="4.458266"><time>2026-05-02T20:49:15Z</time></trkpt>
<trkpt lat="50.511460" lon="4.459296"><time>2026-05-02T20:59:15Z</time></trkpt>
</trkseg>
</trk>
<trk>
<name>hlvvp57</name>
<cmt>q</cmt>
<desc>Villers-Perwin Sentier n°57 </desc>
<link href="https://chemins.be/villersperwin/sentier/57"/><trkseg>
<trkpt lat="50.512625" lon="4.455069"><time>2026-05-02T20:39:15Z</time></trkpt>
<trkpt lat="50.510846" lon="4.456885"><time>2026-05-02T20:49:15Z</time></trkpt>
<trkpt lat="50.509710" lon="4.457916"><time>2026-05-02T20:59:15Z</time></trkpt>
</trkseg></trk>
<trk>
<name>hlvvp57</name>
<cmt>s</cmt>
<desc>Villers-Perwin Sentier n°57 </desc>
<link href="https://chemins.be/villersperwin/sentier/57"/><trkseg>
<trkpt lat="50.509710" lon="4.457916"><time>2026-05-02T20:59:15Z</time></trkpt>
<trkpt lat="50.509176" lon="4.458400"><time>2026-05-02T21:09:15Z</time></trkpt>
</trkseg></trk>
<trk>
<name>hlvvp57</name>
<cmt>q</cmt>
<desc>Villers-Perwin Sentier n°57 </desc>
<link href="https://chemins.be/villersperwin/sentier/57"/><trkseg>
<trkpt lat="50.509176" lon="4.458400"><time>2026-05-02T21:09:15Z</time></trkpt>
<trkpt lat="50.507949" lon="4.459439"><time>2026-05-02T21:19:15Z</time></trkpt>
</trkseg>
</trk>
<trk>
<name>hlvvp58</name>
<cmt>b</cmt>
<desc>Villers-Perwin Sentier n°58 </desc>
<link href="https://chemins.be/villersperwin/sentier/58"/><trkseg>
<trkpt lat="50.507780" lon="4.459793"><time>2026-05-02T20:39:15Z</time></trkpt>
<trkpt lat="50.508325" lon="4.458329"><time>2026-05-02T20:49:15Z</time></trkpt>
</trkseg></trk>
<trk>
<name>hlvvp58</name>
<cmt>s</cmt>
<desc>Villers-Perwin Sentier n°58 </desc>
<link href="https://chemins.be/villersperwin/sentier/58"/><trkseg>
<trkpt lat="50.508325" lon="4.458329"><time>2026-05-02T20:49:15Z</time></trkpt>
<trkpt lat="50.508531" lon="4.457778"><time>2026-05-02T20:59:15Z</time></trkpt>
</trkseg></trk>
<trk>
<name>hlvvp58</name>
<cmt>d</cmt>
<desc>Villers-Perwin Sentier n°58 </desc>
<link href="https://chemins.be/villersperwin/sentier/58"/><trkseg>
<trkpt lat="50.508531" lon="4.457778"><time>2026-05-02T20:59:15Z</time></trkpt>
<trkpt lat="50.509688" lon="4.452353"><time>2026-05-02T21:09:15Z</time></trkpt>
</trkseg>
</trk>
<trk>
<name>hlvvp59</name>
<cmt>q</cmt>
<desc>Villers-Perwin Sentier n°59 </desc>
<link href="https://chemins.be/villersperwin/sentier/59"/><trkseg>
<trkpt lat="50.508343" lon="4.459864"><time>2026-05-02T20:39:15Z</time></trkpt>
<trkpt lat="50.508903" lon="4.461919"><time>2026-05-02T20:49:15Z</time></trkpt>
<trkpt lat="50.508818" lon="4.461983"><time>2026-05-02T20:59:15Z</time></trkpt>
<trkpt lat="50.509067" lon="4.463120"><time>2026-05-02T21:09:15Z</time></trkpt>
</trkseg>
</trk>
<trk>
<name>hlvvp6</name>
<cmt>r</cmt>
<desc>Villers-Perwin Chemin n°6 Chemin des Boeufs</desc>
<link href="https://chemins.be/villersperwin/chemin/6"/><trkseg>
<trkpt lat="50.513022" lon="4.465482"><time>2026-05-02T20:39:15Z</time></trkpt>
<trkpt lat="50.514722" lon="4.464682"><time>2026-05-02T20:49:15Z</time></trkpt>
<trkpt lat="50.518185" lon="4.463251"><time>2026-05-02T20:59:15Z</time></trkpt>
<trkpt lat="50.520667" lon="4.461281"><time>2026-05-02T21:09:15Z</time></trkpt>
</trkseg>
</trk>
<trk>
<name>hlvvp60</name>
<cmt>q</cmt>
<desc>Villers-Perwin Sentier n°60 </desc>
<link href="https://chemins.be/villersperwin/sentier/60"/><trkseg>
<trkpt lat="50.515182" lon="4.473256"><time>2026-05-02T20:39:15Z</time></trkpt>
<trkpt lat="50.513645" lon="4.473041"><time>2026-05-02T20:49:15Z</time></trkpt>
<trkpt lat="50.512792" lon="4.471911"><time>2026-05-02T20:59:15Z</time></trkpt>
<trkpt lat="50.511821" lon="4.471542"><time>2026-05-02T21:09:15Z</time></trkpt>
</trkseg>
</trk>
<trk>
<name>hlvvp7</name>
<cmt>s</cmt>
<desc>Villers-Perwin Chemin n°7 Chemin n°3 / Chemin de la Mé</desc>
<link href="https://chemins.be/villersperwin/chemin/7"/><trkseg>
<trkpt lat="50.513553" lon="4.475381"><time>2026-05-02T20:39:15Z</time></trkpt>
<trkpt lat="50.515317" lon="4.473312"><time>2026-05-02T20:49:15Z</time></trkpt>
<trkpt lat="50.516900" lon="4.472033"><time>2026-05-02T20:59:15Z</time></trkpt>
<trkpt lat="50.518662" lon="4.472375"><time>2026-05-02T21:09:15Z</time></trkpt>
<trkpt lat="50.519759" lon="4.471842"><time>2026-05-02T21:19:15Z</time></trkpt>
<trkpt lat="50.522853" lon="4.471143"><time>2026-05-02T21:29:15Z</time></trkpt>
</trkseg></trk>
<trk>
<name>hlvvp7</name>
<cmt>r</cmt>
<desc>Villers-Perwin Chemin n°7 Chemin n°3 / Chemin de la Mé</desc>
<link href="https://chemins.be/villersperwin/chemin/7"/><trkseg>
<trkpt lat="50.522853" lon="4.471143"><time>2026-05-02T21:29:15Z</time></trkpt>
<trkpt lat="50.523302" lon="4.471454"><time>2026-05-02T21:39:15Z</time></trkpt>
<trkpt lat="50.524391" lon="4.470329"><time>2026-05-02T21:49:15Z</time></trkpt>
</trkseg>
</trk>
<trk>
<name>hlvvp9</name>
<cmt>v</cmt>
<desc>Villers-Perwin Chemin n°9 </desc>
<link href="https://chemins.be/villersperwin/chemin/9"/><trkseg>
<trkpt lat="50.528741" lon="4.474643"><time>2026-05-02T20:39:15Z</time></trkpt>
<trkpt lat="50.527909" lon="4.474407"><time>2026-05-02T20:49:15Z</time></trkpt>
<trkpt lat="50.527595" lon="4.474284"><time>2026-05-02T20:59:15Z</time></trkpt>
</trkseg></trk>
<trk>
<name>hlvvp9</name>
<cmt>d</cmt>
<desc>Villers-Perwin Chemin n°9 </desc>
<link href="https://chemins.be/villersperwin/chemin/9"/><trkseg>
<trkpt lat="50.527595" lon="4.474284"><time>2026-05-02T20:59:15Z</time></trkpt>
<trkpt lat="50.526879" lon="4.473731"><time>2026-05-02T21:09:15Z</time></trkpt>
</trkseg></trk>
<trk>
<name>hlvvp9</name>
<cmt>s</cmt>
<desc>Villers-Perwin Chemin n°9 </desc>
<link href="https://chemins.be/villersperwin/chemin/9"/><trkseg>
<trkpt lat="50.526879" lon="4.473731"><time>2026-05-02T21:09:15Z</time></trkpt>
<trkpt lat="50.525713" lon="4.473136"><time>2026-05-02T21:19:15Z</time></trkpt>
<trkpt lat="50.523849" lon="4.471799"><time>2026-05-02T21:29:15Z</time></trkpt>
</trkseg>
</trk>
<trk>
<name>hlvvpi1</name>
<cmt>v</cmt>
<desc>Villers-Perwin Chemin n°i1 </desc>
<link href="https://chemins.be/villersperwin/chemin/i1"/><trkseg>
<trkpt lat="50.526849" lon="4.502081"><time>2026-05-02T20:39:15Z</time></trkpt>
<trkpt lat="50.530288" lon="4.497605"><time>2026-05-02T20:49:15Z</time></trkpt>
<trkpt lat="50.531196" lon="4.497565"><time>2026-05-02T20:59:15Z</time></trkpt>
<trkpt lat="50.532466" lon="4.495580"><time>2026-05-02T21:09:15Z</time></trkpt>
</trkseg>
</trk>
<trk>
<name>hlvvpi2</name>
<cmt>v</cmt>
<desc>Villers-Perwin Chemin n°i2 Chemin 30 noir</desc>
<link href="https://chemins.be/villersperwin/chemin/i2"/><trkseg>
<trkpt lat="50.533756" lon="4.499886"><time>2026-05-02T20:39:15Z</time></trkpt>
<trkpt lat="50.534256" lon="4.494894"><time>2026-05-02T20:49:15Z</time></trkpt>
<trkpt lat="50.534697" lon="4.490717"><time>2026-05-02T20:59:15Z</time></trkpt>
</trkseg></trk>
<trk>
<name>hlvvpi2</name>
<cmt>s</cmt>
<desc>Villers-Perwin Chemin n°i2 Chemin 30 noir</desc>
<link href="https://chemins.be/villersperwin/chemin/i2"/><trkseg>
<trkpt lat="50.534697" lon="4.490717"><time>2026-05-02T20:59:15Z</time></trkpt>
<trkpt lat="50.535531" lon="4.487971"><time>2026-05-02T21:09:15Z</time></trkpt>
</trkseg>
</trk>
<trk>
<name>hlvvpi3</name>
<cmt>q</cmt>
<desc>Villers-Perwin Chemin n°i3 Rue Jumerée</desc>
<link href="https://chemins.be/villersperwin/chemin/i3"/><trkseg>
<trkpt lat="50.535036" lon="4.480730"><time>2026-05-02T20:39:15Z</time></trkpt>
<trkpt lat="50.535729" lon="4.478792"><time>2026-05-02T20:49:15Z</time></trkpt>
<trkpt lat="50.536034" lon="4.477694"><time>2026-05-02T20:59:15Z</time></trkpt>
</trkseg>
</trk>
<trk>
<name>hlvvpL131A</name>
<cmt>v</cmt>
<desc>Villers-Perwin Chemin n°L131A Ligne 131</desc>
<link href="https://chemins.be/villersperwin/chemin/L131A"/><trkseg>
<trkpt lat="50.535132" lon="4.487782"><time>2026-05-02T20:39:15Z</time></trkpt>
<trkpt lat="50.534377" lon="4.490465"><time>2026-05-02T20:49:15Z</time></trkpt>
<trkpt lat="50.532546" lon="4.496017"><time>2026-05-02T20:59:15Z</time></trkpt>
<trkpt lat="50.531015" lon="4.498496"><time>2026-05-02T21:09:15Z</time></trkpt>
<trkpt lat="50.528153" lon="4.501619"><time>2026-05-02T21:19:15Z</time></trkpt>
</trkseg>
</trk>
<trk>
<name>hlvwy1</name>
<cmt>v</cmt>
<desc>Wayaux Chemin n°1 chemin de Mons / Chemin de Mons</desc>
<link href="https://chemins.be/wayaux/chemin/1"/><trkseg>
<trkpt lat="50.487669" lon="4.482046"><time>2026-05-02T20:39:15Z</time></trkpt>
<trkpt lat="50.487239" lon="4.478426"><time>2026-05-02T20:49:15Z</time></trkpt>
<trkpt lat="50.486729" lon="4.476456"><time>2026-05-02T20:59:15Z</time></trkpt>
<trkpt lat="50.486299" lon="4.474506"><time>2026-05-02T21:09:15Z</time></trkpt>
<trkpt lat="50.486059" lon="4.473856"><time>2026-05-02T21:19:15Z</time></trkpt>
<trkpt lat="50.485479" lon="4.471666"><time>2026-05-02T21:29:15Z</time></trkpt>
<trkpt lat="50.485565" lon="4.470097"><time>2026-05-02T21:39:15Z</time></trkpt>
<trkpt lat="50.485149" lon="4.469415"><time>2026-05-02T21:49:15Z</time></trkpt>
<trkpt lat="50.484859" lon="4.469015"><time>2026-05-02T21:59:15Z</time></trkpt>
</trkseg></trk>
<trk>
<name>hlvwy1</name>
<cmt>q</cmt>
<desc>Wayaux Chemin n°1 chemin de Mons / Chemin de Mons</desc>
<link href="https://chemins.be/wayaux/chemin/1"/><trkseg>
<trkpt lat="50.484859" lon="4.469015"><time>2026-05-02T21:59:15Z</time></trkpt>
<trkpt lat="50.485269" lon="4.467075"><time>2026-05-02T22:09:15Z</time></trkpt>
</trkseg></trk>
<trk>
<name>hlvwy1</name>
<cmt>d</cmt>
<desc>Wayaux Chemin n°1 chemin de Mons / Chemin de Mons</desc>
<link href="https://chemins.be/wayaux/chemin/1"/><trkseg>
<trkpt lat="50.485269" lon="4.467075"><time>2026-05-02T22:09:15Z</time></trkpt>
<trkpt lat="50.485419" lon="4.466315"><time>2026-05-02T22:19:15Z</time></trkpt>
<trkpt lat="50.485529" lon="4.463865"><time>2026-05-02T22:29:15Z</time></trkpt>
</trkseg>
</trk>
<trk>
<name>hlvwy10</name>
<cmt>v</cmt>
<desc>Wayaux Chemin n°10 </desc>
<link href="https://chemins.be/wayaux/chemin/10"/><trkseg>
<trkpt lat="50.480702" lon="4.477626"><time>2026-05-02T20:39:15Z</time></trkpt>
<trkpt lat="50.480484" lon="4.478173"><time>2026-05-02T20:49:15Z</time></trkpt>
<trkpt lat="50.480117" lon="4.478660"><time>2026-05-02T20:59:15Z</time></trkpt>
</trkseg>
</trk>
<trk>
<name>hlvwy11</name>
<cmt>q</cmt>
<desc>Wayaux Chemin n°11 </desc>
<link href="https://chemins.be/wayaux/chemin/11"/><trkseg>
<trkpt lat="50.484959" lon="4.470948"><time>2026-05-02T20:39:15Z</time></trkpt>
<trkpt lat="50.483208" lon="4.469267"><time>2026-05-02T20:49:15Z</time></trkpt>
</trkseg>
</trk>
<trk>
<name>hlvwy12</name>
<cmt>q</cmt>
<desc>Wayaux Chemin n°12 </desc>
<link href="https://chemins.be/wayaux/chemin/12"/><trkseg>
<trkpt lat="50.484889" lon="4.469130"><time>2026-05-02T20:39:15Z</time></trkpt>
<trkpt lat="50.483505" lon="4.467930"><time>2026-05-02T20:49:15Z</time></trkpt>
<trkpt lat="50.483434" lon="4.467478"><time>2026-05-02T20:59:15Z</time></trkpt>
<trkpt lat="50.482285" lon="4.465757"><time>2026-05-02T21:09:15Z</time></trkpt>
</trkseg>
</trk>
<trk>
<name>hlvwy13</name>
<cmt>d</cmt>
<desc>Wayaux Chemin n°13 </desc>
<link href="https://chemins.be/wayaux/chemin/13"/><trkseg>
<trkpt lat="50.482479" lon="4.472388"><time>2026-05-02T20:39:15Z</time></trkpt>
<trkpt lat="50.479878" lon="4.470896"><time>2026-05-02T20:49:15Z</time></trkpt>
<trkpt lat="50.478827" lon="4.469695"><time>2026-05-02T20:59:15Z</time></trkpt>
</trkseg>
</trk>
<trk>
<name>hlvwy14</name>
<cmt>v</cmt>
<desc>Wayaux Chemin n°14 </desc>
<link href="https://chemins.be/wayaux/chemin/14"/><trkseg>
<trkpt lat="50.492056" lon="4.477207"><time>2026-05-02T20:39:15Z</time></trkpt>
<trkpt lat="50.491246" lon="4.478374"><time>2026-05-02T20:49:15Z</time></trkpt>
<trkpt lat="50.491200" lon="4.478487"><time>2026-05-02T20:59:15Z</time></trkpt>
<trkpt lat="50.491900" lon="4.479799"><time>2026-05-02T21:09:15Z</time></trkpt>
<trkpt lat="50.492673" lon="4.480619"><time>2026-05-02T21:19:15Z</time></trkpt>
<trkpt lat="50.493562" lon="4.481015"><time>2026-05-02T21:29:15Z</time></trkpt>
<trkpt lat="50.493382" lon="4.481607"><time>2026-05-02T21:39:15Z</time></trkpt>
<trkpt lat="50.494209" lon="4.482271"><time>2026-05-02T21:49:15Z</time></trkpt>
</trkseg>
</trk>
<trk>
<name>hlvwy15</name>
<cmt>q</cmt>
<desc>Wayaux Sentier n°15 </desc>
<link href="https://chemins.be/wayaux/sentier/15"/><trkseg>
<trkpt lat="50.489682" lon="4.472257"><time>2026-05-02T20:39:15Z</time></trkpt>
<trkpt lat="50.490185" lon="4.471867"><time>2026-05-02T20:49:15Z</time></trkpt>
<trkpt lat="50.491126" lon="4.470961"><time>2026-05-02T20:59:15Z</time></trkpt>
<trkpt lat="50.492668" lon="4.466018"><time>2026-05-02T21:09:15Z</time></trkpt>
<trkpt lat="50.493892" lon="4.464696"><time>2026-05-02T21:19:15Z</time></trkpt>
<trkpt lat="50.495467" lon="4.461838"><time>2026-05-02T21:29:15Z</time></trkpt>
<trkpt lat="50.495990" lon="4.460655"><time>2026-05-02T21:39:15Z</time></trkpt>
<trkpt lat="50.496008" lon="4.459852"><time>2026-05-02T21:49:15Z</time></trkpt>
</trkseg>
</trk>
<trk>
<name>hlvwy16</name>
<cmt>q</cmt>
<desc>Wayaux Sentier n°16 </desc>
<link href="https://chemins.be/wayaux/sentier/16"/><trkseg>
<trkpt lat="50.493753" lon="4.469318"><time>2026-05-02T20:39:15Z</time></trkpt>
<trkpt lat="50.491677" lon="4.468835"><time>2026-05-02T20:49:15Z</time></trkpt>
<trkpt lat="50.488585" lon="4.467729"><time>2026-05-02T20:59:15Z</time></trkpt>
<trkpt lat="50.486392" lon="4.466780"><time>2026-05-02T21:09:15Z</time></trkpt>
<trkpt lat="50.484406" lon="4.466212"><time>2026-05-02T21:19:15Z</time></trkpt>
</trkseg></trk>
<trk>
<name>hlvwy16</name>
<cmt>v</cmt>
<desc>Wayaux Sentier n°16 </desc>
<link href="https://chemins.be/wayaux/sentier/16"/><trkseg>
<trkpt lat="50.484406" lon="4.466212"><time>2026-05-02T21:19:15Z</time></trkpt>
<trkpt lat="50.482374" lon="4.465701"><time>2026-05-02T21:29:15Z</time></trkpt>
<trkpt lat="50.481817" lon="4.465982"><time>2026-05-02T21:39:15Z</time></trkpt>
<trkpt lat="50.481285" lon="4.467601"><time>2026-05-02T21:49:15Z</time></trkpt>
<trkpt lat="50.478928" lon="4.469315"><time>2026-05-02T21:59:15Z</time></trkpt>
</trkseg>
</trk>
<trk>
<name>hlvwy17</name>
<cmt>v</cmt>
<desc>Wayaux Sentier n°17 </desc>
<link href="https://chemins.be/wayaux/sentier/17"/><trkseg>
<trkpt lat="50.494112" lon="4.469784"><time>2026-05-02T20:39:15Z</time></trkpt>
<trkpt lat="50.493340" lon="4.468655"><time>2026-05-02T20:49:15Z</time></trkpt>
<trkpt lat="50.492810" lon="4.467681"><time>2026-05-02T20:59:15Z</time></trkpt>
<trkpt lat="50.491317" lon="4.463596"><time>2026-05-02T21:09:15Z</time></trkpt>
</trkseg></trk>
<trk>
<name>hlvwy17</name>
<cmt>q</cmt>
<desc>Wayaux Sentier n°17 </desc>
<link href="https://chemins.be/wayaux/sentier/17"/><trkseg>
<trkpt lat="50.491317" lon="4.463596"><time>2026-05-02T21:09:15Z</time></trkpt>
<trkpt lat="50.487057" lon="4.455707"><time>2026-05-02T21:19:15Z</time></trkpt>
</trkseg>
</trk>
<trk>
<name>hlvwy18</name>
<cmt>q</cmt>
<desc>Wayaux Sentier n°18 </desc>
<link href="https://chemins.be/wayaux/sentier/18"/><trkseg>
<trkpt lat="50.486139" lon="4.474066"><time>2026-05-02T20:39:15Z</time></trkpt>
<trkpt lat="50.487089" lon="4.472916"><time>2026-05-02T20:49:15Z</time></trkpt>
<trkpt lat="50.487139" lon="4.472826"><time>2026-05-02T20:59:15Z</time></trkpt>
<trkpt lat="50.487259" lon="4.472576"><time>2026-05-02T21:09:15Z</time></trkpt>
<trkpt lat="50.488737" lon="4.471085"><time>2026-05-02T21:19:15Z</time></trkpt>
</trkseg></trk>
<trk>
<name>hlvwy18</name>
<cmt>v</cmt>
<desc>Wayaux Sentier n°18 </desc>
<link href="https://chemins.be/wayaux/sentier/18"/><trkseg>
<trkpt lat="50.488737" lon="4.471085"><time>2026-05-02T21:19:15Z</time></trkpt>
<trkpt lat="50.489128" lon="4.470616"><time>2026-05-02T21:29:15Z</time></trkpt>
<trkpt lat="50.489524" lon="4.470069"><time>2026-05-02T21:39:15Z</time></trkpt>
<trkpt lat="50.489354" lon="4.469586"><time>2026-05-02T21:49:15Z</time></trkpt>
</trkseg></trk>
<trk>
<name>hlvwy18</name>
<cmt>q</cmt>
<desc>Wayaux Sentier n°18 </desc>
<link href="https://chemins.be/wayaux/sentier/18"/><trkseg>
<trkpt lat="50.489354" lon="4.469586"><time>2026-05-02T21:49:15Z</time></trkpt>
<trkpt lat="50.490402" lon="4.468453"><time>2026-05-02T21:59:15Z</time></trkpt>
<trkpt lat="50.492627" lon="4.466060"><time>2026-05-02T22:09:15Z</time></trkpt>
</trkseg>
</trk>
<trk>
<name>hlvwy19</name>
<cmt>v</cmt>
<desc>Wayaux Sentier n°19 </desc>
<link href="https://chemins.be/wayaux/sentier/19"/><trkseg>
<trkpt lat="50.489449" lon="4.471916"><time>2026-05-02T20:39:15Z</time></trkpt>
<trkpt lat="50.489299" lon="4.471125"><time>2026-05-02T20:49:15Z</time></trkpt>
<trkpt lat="50.489125" lon="4.470621"><time>2026-05-02T20:59:15Z</time></trkpt>
<trkpt lat="50.489500" lon="4.470047"><time>2026-05-02T21:09:15Z</time></trkpt>
<trkpt lat="50.489359" lon="4.469615"><time>2026-05-02T21:19:15Z</time></trkpt>
</trkseg></trk>
<trk>
<name>hlvwy19</name>
<cmt>q</cmt>
<desc>Wayaux Sentier n°19 </desc>
<link href="https://chemins.be/wayaux/sentier/19"/><trkseg>
<trkpt lat="50.489359" lon="4.469615"><time>2026-05-02T21:19:15Z</time></trkpt>
<trkpt lat="50.488579" lon="4.468195"><time>2026-05-02T21:29:15Z</time></trkpt>
<trkpt lat="50.488439" lon="4.462825"><time>2026-05-02T21:39:15Z</time></trkpt>
<trkpt lat="50.487699" lon="4.460135"><time>2026-05-02T21:49:15Z</time></trkpt>
<trkpt lat="50.487859" lon="4.458505"><time>2026-05-02T21:59:15Z</time></trkpt>
<trkpt lat="50.487609" lon="4.457155"><time>2026-05-02T22:09:15Z</time></trkpt>
<trkpt lat="50.487069" lon="4.456255"><time>2026-05-02T22:19:15Z</time></trkpt>
</trkseg>
</trk>
<trk>
<name>hlvwy2</name>
<cmt>v</cmt>
<desc>Wayaux Chemin n°2 </desc>
<link href="https://chemins.be/wayaux/chemin/2"/><trkseg>
<trkpt lat="50.484194" lon="4.466151"><time>2026-05-02T20:39:15Z</time></trkpt>
<trkpt lat="50.483211" lon="4.464541"><time>2026-05-02T20:49:15Z</time></trkpt>
<trkpt lat="50.481641" lon="4.461194"><time>2026-05-02T20:59:15Z</time></trkpt>
<trkpt lat="50.480944" lon="4.460936"><time>2026-05-02T21:09:15Z</time></trkpt>
</trkseg></trk>
<trk>
<name>hlvwy2</name>
<cmt>s</cmt>
<desc>Wayaux Chemin n°2 </desc>
<link href="https://chemins.be/wayaux/chemin/2"/><trkseg>
<trkpt lat="50.480944" lon="4.460936"><time>2026-05-02T21:09:15Z</time></trkpt>
<trkpt lat="50.479893" lon="4.459155"><time>2026-05-02T21:19:15Z</time></trkpt>
</trkseg>
</trk>
<trk>
<name>hlvwy20</name>
<cmt>q</cmt>
<desc>Wayaux Sentier n°20 Ruelle Sartia</desc>
<link href="https://chemins.be/wayaux/sentier/20"/><trkseg>
<trkpt lat="50.494057" lon="4.477386"><time>2026-05-02T20:39:15Z</time></trkpt>
<trkpt lat="50.493306" lon="4.476364"><time>2026-05-02T20:49:15Z</time></trkpt>
<trkpt lat="50.493081" lon="4.476293"><time>2026-05-02T20:59:15Z</time></trkpt>
<trkpt lat="50.492147" lon="4.475248"><time>2026-05-02T21:09:15Z</time></trkpt>
<trkpt lat="50.491888" lon="4.474148"><time>2026-05-02T21:19:15Z</time></trkpt>
<trkpt lat="50.491080" lon="4.472878"><time>2026-05-02T21:29:15Z</time></trkpt>
<trkpt lat="50.490738" lon="4.472694"><time>2026-05-02T21:39:15Z</time></trkpt>
</trkseg></trk>
<trk>
<name>hlvwy20</name>
<cmt>v</cmt>
<desc>Wayaux Sentier n°20 Ruelle Sartia</desc>
<link href="https://chemins.be/wayaux/sentier/20"/><trkseg>
<trkpt lat="50.490738" lon="4.472694"><time>2026-05-02T21:39:15Z</time></trkpt>
<trkpt lat="50.490200" lon="4.471861"><time>2026-05-02T21:49:15Z</time></trkpt>
</trkseg></trk>
<trk>
<name>hlvwy20</name>
<cmt>q</cmt>
<desc>Wayaux Sentier n°20 Ruelle Sartia</desc>
<link href="https://chemins.be/wayaux/sentier/20"/><trkseg>
<trkpt lat="50.490200" lon="4.471861"><time>2026-05-02T21:49:15Z</time></trkpt>
<trkpt lat="50.490039" lon="4.470705"><time>2026-05-02T21:59:15Z</time></trkpt>
<trkpt lat="50.489501" lon="4.469408"><time>2026-05-02T22:09:15Z</time></trkpt>
</trkseg>
</trk>
<trk>
<name>hlvwy21</name>
<cmt>q</cmt>
<desc>Wayaux Sentier n°21 </desc>
<link href="https://chemins.be/wayaux/sentier/21"/><trkseg>
<trkpt lat="50.489853" lon="4.473661"><time>2026-05-02T20:39:15Z</time></trkpt>
<trkpt lat="50.489665" lon="4.474015"><time>2026-05-02T20:49:15Z</time></trkpt>
<trkpt lat="50.489566" lon="4.474755"><time>2026-05-02T20:59:15Z</time></trkpt>
<trkpt lat="50.489133" lon="4.475522"><time>2026-05-02T21:09:15Z</time></trkpt>
<trkpt lat="50.488648" lon="4.477895"><time>2026-05-02T21:19:15Z</time></trkpt>
<trkpt lat="50.487557" lon="4.481042"><time>2026-05-02T21:29:15Z</time></trkpt>
</trkseg>
</trk>
<trk>
<name>hlvwy22</name>
<cmt>v</cmt>
<desc>Wayaux Sentier n°22 </desc>
<link href="https://chemins.be/wayaux/sentier/22"/><trkseg>
<trkpt lat="50.489339" lon="4.472126"><time>2026-05-02T20:39:15Z</time></trkpt>
<trkpt lat="50.488939" lon="4.472436"><time>2026-05-02T20:49:15Z</time></trkpt>
<trkpt lat="50.488499" lon="4.473056"><time>2026-05-02T20:59:15Z</time></trkpt>
<trkpt lat="50.488499" lon="4.473166"><time>2026-05-02T21:09:15Z</time></trkpt>
<trkpt lat="50.488519" lon="4.473276"><time>2026-05-02T21:19:15Z</time></trkpt>
<trkpt lat="50.488519" lon="4.473406"><time>2026-05-02T21:29:15Z</time></trkpt>
<trkpt lat="50.488469" lon="4.473516"><time>2026-05-02T21:39:15Z</time></trkpt>
<trkpt lat="50.488419" lon="4.473596"><time>2026-05-02T21:49:15Z</time></trkpt>
<trkpt lat="50.488099" lon="4.474126"><time>2026-05-02T21:59:15Z</time></trkpt>
</trkseg></trk>
<trk>
<name>hlvwy22</name>
<cmt>d</cmt>
<desc>Wayaux Sentier n°22 </desc>
<link href="https://chemins.be/wayaux/sentier/22"/><trkseg>
<trkpt lat="50.488099" lon="4.474126"><time>2026-05-02T21:59:15Z</time></trkpt>
<trkpt lat="50.486712" lon="4.476436"><time>2026-05-02T22:09:15Z</time></trkpt>
<trkpt lat="50.485674" lon="4.478711"><time>2026-05-02T22:19:15Z</time></trkpt>
<trkpt lat="50.485476" lon="4.479966"><time>2026-05-02T22:29:15Z</time></trkpt>
</trkseg>
</trk>
<trk>
<name>hlvwy23</name>
<cmt>v</cmt>
<desc>Wayaux Sentier n°23 Chemin des Prés des Fostys</desc>
<link href="https://chemins.be/wayaux/sentier/23"/><trkseg>
<trkpt lat="50.486909" lon="4.472446"><time>2026-05-02T20:39:15Z</time></trkpt>
<trkpt lat="50.487394" lon="4.473180"><time>2026-05-02T20:49:15Z</time></trkpt>
<trkpt lat="50.487941" lon="4.473900"><time>2026-05-02T20:59:15Z</time></trkpt>
<trkpt lat="50.488058" lon="4.474182"><time>2026-05-02T21:09:15Z</time></trkpt>
<trkpt lat="50.488507" lon="4.474873"><time>2026-05-02T21:19:15Z</time></trkpt>
<trkpt lat="50.488839" lon="4.475057"><time>2026-05-02T21:29:15Z</time></trkpt>
<trkpt lat="50.489109" lon="4.475481"><time>2026-05-02T21:39:15Z</time></trkpt>
<trkpt lat="50.489791" lon="4.476201"><time>2026-05-02T21:49:15Z</time></trkpt>
<trkpt lat="50.490350" lon="4.476970"><time>2026-05-02T21:59:15Z</time></trkpt>
</trkseg></trk>
<trk>
<name>hlvwy23</name>
<cmt>r</cmt>
<desc>Wayaux Sentier n°23 Chemin des Prés des Fostys</desc>
<link href="https://chemins.be/wayaux/sentier/23"/><trkseg>
<trkpt lat="50.490350" lon="4.476970"><time>2026-05-02T21:59:15Z</time></trkpt>
<trkpt lat="50.490732" lon="4.476426"><time>2026-05-02T22:09:15Z</time></trkpt>
<trkpt lat="50.491505" lon="4.477006"><time>2026-05-02T22:19:15Z</time></trkpt>
<trkpt lat="50.492829" lon="4.477329"><time>2026-05-02T22:29:15Z</time></trkpt>
<trkpt lat="50.494104" lon="4.477472"><time>2026-05-02T22:39:15Z</time></trkpt>
<trkpt lat="50.494759" lon="4.477501"><time>2026-05-02T22:49:15Z</time></trkpt>
<trkpt lat="50.497335" lon="4.480963"><time>2026-05-02T22:59:15Z</time></trkpt>
</trkseg>
</trk>
<trk>
<name>hlvwy24</name>
<cmt>q</cmt>
<desc>Wayaux Sentier n°24 </desc>
<link href="https://chemins.be/wayaux/sentier/24"/><trkseg>
<trkpt lat="50.484871" lon="4.469031"><time>2026-05-02T20:39:15Z</time></trkpt>
<trkpt lat="50.484298" lon="4.466240"><time>2026-05-02T20:49:15Z</time></trkpt>
</trkseg>
</trk>
<trk>
<name>hlvwy25</name>
<cmt>q</cmt>
<desc>Wayaux Sentier n°25 </desc>
<link href="https://chemins.be/wayaux/sentier/25"/><trkseg>
<trkpt lat="50.479737" lon="4.470859"><time>2026-05-02T20:39:15Z</time></trkpt>
<trkpt lat="50.481457" lon="4.475408"><time>2026-05-02T20:49:15Z</time></trkpt>
</trkseg></trk>
<trk>
<name>hlvwy25</name>
<cmt>r</cmt>
<desc>Wayaux Sentier n°25 </desc>
<link href="https://chemins.be/wayaux/sentier/25"/><trkseg>
<trkpt lat="50.481457" lon="4.475408"><time>2026-05-02T20:49:15Z</time></trkpt>
<trkpt lat="50.480706" lon="4.477597"><time>2026-05-02T20:59:15Z</time></trkpt>
</trkseg></trk>
<trk>
<name>hlvwy25</name>
<cmt>q</cmt>
<desc>Wayaux Sentier n°25 </desc>
<link href="https://chemins.be/wayaux/sentier/25"/><trkseg>
<trkpt lat="50.480706" lon="4.477597"><time>2026-05-02T20:59:15Z</time></trkpt>
<trkpt lat="50.481253" lon="4.479804"><time>2026-05-02T21:09:15Z</time></trkpt>
<trkpt lat="50.481594" lon="4.480294"><time>2026-05-02T21:19:15Z</time></trkpt>
</trkseg></trk>
<trk>
<name>hlvwy25</name>
<cmt>d</cmt>
<desc>Wayaux Sentier n°25 </desc>
<link href="https://chemins.be/wayaux/sentier/25"/><trkseg>
<trkpt lat="50.481594" lon="4.480294"><time>2026-05-02T21:19:15Z</time></trkpt>
<trkpt lat="50.481651" lon="4.480695"><time>2026-05-02T21:29:15Z</time></trkpt>
</trkseg>
</trk>
<trk>
<name>hlvwy26</name>
<cmt>q</cmt>
<desc>Wayaux Sentier n°26 </desc>
<link href="https://chemins.be/wayaux/sentier/26"/><trkseg>
<trkpt lat="50.480154" lon="4.478688"><time>2026-05-02T20:39:15Z</time></trkpt>
<trkpt lat="50.479771" lon="4.479521"><time>2026-05-02T20:49:15Z</time></trkpt>
<trkpt lat="50.479315" lon="4.481431"><time>2026-05-02T20:59:15Z</time></trkpt>
</trkseg>
</trk>
<trk>
<name>hlvwy27</name>
<cmt>q</cmt>
<desc>Wayaux Sentier n°27 </desc>
<link href="https://chemins.be/wayaux/sentier/27"/><trkseg>
<trkpt lat="50.489385" lon="4.473735"><time>2026-05-02T20:39:15Z</time></trkpt>
<trkpt lat="50.489284" lon="4.473724"><time>2026-05-02T20:49:15Z</time></trkpt>
<trkpt lat="50.489194" lon="4.473528"><time>2026-05-02T20:59:15Z</time></trkpt>
<trkpt lat="50.488519" lon="4.473426"><time>2026-05-02T21:09:15Z</time></trkpt>
</trkseg></trk>
<trk>
<name>hlvwy27</name>
<cmt>v</cmt>
<desc>Wayaux Sentier n°27 </desc>
<link href="https://chemins.be/wayaux/sentier/27"/><trkseg>
<trkpt lat="50.488519" lon="4.473426"><time>2026-05-02T21:09:15Z</time></trkpt>
<trkpt lat="50.488519" lon="4.473426"><time>2026-05-02T21:19:15Z</time></trkpt>
<trkpt lat="50.488079" lon="4.474156"><time>2026-05-02T21:29:15Z</time></trkpt>
</trkseg></trk>
<trk>
<name>hlvwy27</name>
<cmt>q</cmt>
<desc>Wayaux Sentier n°27 </desc>
<link href="https://chemins.be/wayaux/sentier/27"/><trkseg>
<trkpt lat="50.488079" lon="4.474156"><time>2026-05-02T21:29:15Z</time></trkpt>
<trkpt lat="50.488079" lon="4.474156"><time>2026-05-02T21:39:15Z</time></trkpt>
<trkpt lat="50.485969" lon="4.473666"><time>2026-05-02T21:49:15Z</time></trkpt>
<trkpt lat="50.482049" lon="4.474586"><time>2026-05-02T21:59:15Z</time></trkpt>
</trkseg>
</trk>
<trk>
<name>hlvwy28</name>
<cmt>q</cmt>
<desc>Wayaux Sentier n°28 </desc>
<link href="https://chemins.be/wayaux/sentier/28"/><trkseg>
<trkpt lat="50.487981" lon="4.469757"><time>2026-05-02T20:39:15Z</time></trkpt>
<trkpt lat="50.488836" lon="4.468645"><time>2026-05-02T20:49:15Z</time></trkpt>
</trkseg>
</trk>
<trk>
<name>hlvwy29</name>
<cmt>q</cmt>
<desc>Wayaux Sentier n°29 </desc>
<link href="https://chemins.be/wayaux/sentier/29"/><trkseg>
<trkpt lat="50.492660" lon="4.484551"><time>2026-05-02T20:39:15Z</time></trkpt>
<trkpt lat="50.493857" lon="4.483666"><time>2026-05-02T20:49:15Z</time></trkpt>
<trkpt lat="50.496060" lon="4.482290"><time>2026-05-02T20:59:15Z</time></trkpt>
<trkpt lat="50.496942" lon="4.481855"><time>2026-05-02T21:09:15Z</time></trkpt>
</trkseg>
</trk>
<trk>
<name>hlvwy30</name>
<cmt>q</cmt>
<desc>Wayaux Sentier n°30 </desc>
<link href="https://chemins.be/wayaux/sentier/30"/><trkseg>
<trkpt lat="50.490116" lon="4.474492"><time>2026-05-02T20:39:15Z</time></trkpt>
<trkpt lat="50.489740" lon="4.474895"><time>2026-05-02T20:49:15Z</time></trkpt>
<trkpt lat="50.489556" lon="4.474798"><time>2026-05-02T20:59:15Z</time></trkpt>
</trkseg>
</trk>
<trk>
<name>hlvwy33</name>
<cmt>q</cmt>
<desc>Wayaux Sentier n°33 </desc>
<link href="https://chemins.be/wayaux/sentier/33"/><trkseg>
<trkpt lat="50.483145" lon="4.469267"><time>2026-05-02T20:39:15Z</time></trkpt>
<trkpt lat="50.482479" lon="4.469181"><time>2026-05-02T20:49:15Z</time></trkpt>
<trkpt lat="50.481392" lon="4.468630"><time>2026-05-02T20:59:15Z</time></trkpt>
<trkpt lat="50.480772" lon="4.467980"><time>2026-05-02T21:09:15Z</time></trkpt>
</trkseg>
</trk>
<trk>
<name>hlvwy34</name>
<cmt>q</cmt>
<desc>Wayaux Sentier n°34 </desc>
<link href="https://chemins.be/wayaux/sentier/34"/><trkseg>
<trkpt lat="50.489079" lon="4.472296"><time>2026-05-02T20:39:15Z</time></trkpt>
<trkpt lat="50.487663" lon="4.472142"><time>2026-05-02T20:49:15Z</time></trkpt>
<trkpt lat="50.486709" lon="4.471966"><time>2026-05-02T20:59:15Z</time></trkpt>
</trkseg>
</trk>
<trk>
<name>hlvwy35</name>
<cmt>q</cmt>
<desc>Wayaux Sentier n°35 </desc>
<link href="https://chemins.be/wayaux/sentier/35"/><trkseg>
<trkpt lat="50.487178" lon="4.472893"><time>2026-05-02T20:39:15Z</time></trkpt>
<trkpt lat="50.486843" lon="4.476048"><time>2026-05-02T20:49:15Z</time></trkpt>
</trkseg>
</trk>
<trk>
<name>hlvwy36</name>
<cmt>q</cmt>
<desc>Wayaux Sentier n°36 </desc>
<link href="https://chemins.be/wayaux/sentier/36"/><trkseg>
<trkpt lat="50.481294" lon="4.467657"><time>2026-05-02T20:39:15Z</time></trkpt>
<trkpt lat="50.480501" lon="4.469839"><time>2026-05-02T20:49:15Z</time></trkpt>
<trkpt lat="50.479817" lon="4.470838"><time>2026-05-02T20:59:15Z</time></trkpt>
</trkseg>
</trk>
<trk>
<name>hlvwy4</name>
<cmt>v</cmt>
<desc>Wayaux Chemin n°4 </desc>
<link href="https://chemins.be/wayaux/chemin/4"/><trkseg>
<trkpt lat="50.481794" lon="4.480593"><time>2026-05-02T20:39:15Z</time></trkpt>
<trkpt lat="50.481250" lon="4.479808"><time>2026-05-02T20:49:15Z</time></trkpt>
<trkpt lat="50.480870" lon="4.479260"><time>2026-05-02T20:59:15Z</time></trkpt>
<trkpt lat="50.480170" lon="4.478574"><time>2026-05-02T21:09:15Z</time></trkpt>
<trkpt lat="50.479296" lon="4.478259"><time>2026-05-02T21:19:15Z</time></trkpt>
<trkpt lat="50.478340" lon="4.478273"><time>2026-05-02T21:29:15Z</time></trkpt>
<trkpt lat="50.477639" lon="4.478288"><time>2026-05-02T21:39:15Z</time></trkpt>
</trkseg></trk>
<trk>
<name>hlvwy4</name>
<cmt>s</cmt>
<desc>Wayaux Chemin n°4 </desc>
<link href="https://chemins.be/wayaux/chemin/4"/><trkseg>
<trkpt lat="50.477639" lon="4.478288"><time>2026-05-02T21:39:15Z</time></trkpt>
<trkpt lat="50.476322" lon="4.478320"><time>2026-05-02T21:49:15Z</time></trkpt>
</trkseg></trk>
<trk>
<name>hlvwy4</name>
<cmt>r</cmt>
<desc>Wayaux Chemin n°4 </desc>
<link href="https://chemins.be/wayaux/chemin/4"/><trkseg>
<trkpt lat="50.476322" lon="4.478320"><time>2026-05-02T21:49:15Z</time></trkpt>
<trkpt lat="50.475326" lon="4.478345"><time>2026-05-02T21:59:15Z</time></trkpt>
</trkseg>
</trk>
<trk>
<name>hlvwyi1</name>
<cmt>v</cmt>
<desc>Wayaux Chemin n°i1 </desc>
<link href="https://chemins.be/wayaux/chemin/i1"/><trkseg>
<trkpt lat="50.495076" lon="4.468208"><time>2026-05-02T20:39:15Z</time></trkpt>
<trkpt lat="50.495273" lon="4.469068"><time>2026-05-02T20:49:15Z</time></trkpt>
</trkseg>
</trk>
<trk>
<name>hlvwyi2</name>
<cmt>v</cmt>
<desc>Wayaux Chemin n°i2 </desc>
<link href="https://chemins.be/wayaux/chemin/i2"/><trkseg>
<trkpt lat="50.481340" lon="4.461086"><time>2026-05-02T20:39:15Z</time></trkpt>
<trkpt lat="50.481026" lon="4.460164"><time>2026-05-02T20:49:15Z</time></trkpt>
<trkpt lat="50.481286" lon="4.458018"><time>2026-05-02T20:59:15Z</time></trkpt>
<trkpt lat="50.481540" lon="4.457508"><time>2026-05-02T21:09:15Z</time></trkpt>
</trkseg>
</trk>
<trk>
<name>hlvwyi7</name>
<cmt>v</cmt>
<desc>Wayaux Chemin n°i7 </desc>
<link href="https://chemins.be/wayaux/chemin/i7"/><trkseg>
<trkpt lat="50.476225" lon="4.484905"><time>2026-05-02T20:39:15Z</time></trkpt>
<trkpt lat="50.476568" lon="4.483793"><time>2026-05-02T20:49:15Z</time></trkpt>
<trkpt lat="50.476949" lon="4.480919"><time>2026-05-02T20:59:15Z</time></trkpt>
<trkpt lat="50.477607" lon="4.478300"><time>2026-05-02T21:09:15Z</time></trkpt>
</trkseg>
</trk>
</gpx>